[[[{"header":{"parameterUnit":"kt","parameterCategory":2,"dx":1,"dy":1,"la1":29.587661999999998,"la2":31.0,"lo1":-88.76705300000003,"lo2":-86.6583820000003,"nx":115,"ny":88,"refTime":"2022-09-29T12:00:00:Z","depth":0,"parameterNumber":1,"parameterNumberName":"U-component_of_WINDS"},"data":[11.2548,11.2548,11.2548,11.2548,11.2548,11.2548,11.2548,11.2548,11.2548,11.2548,11.2548,11.2548,11.2548,11.2548,11.2548,11.2548,11.2548,11.2548,11.2548,11.2548,11.2548,11.2548,11.2548,11.2548,11.2548,11.2548,11.2548,11.2548,11.2548,11.2548,11.2548,11.2548,11.2548,11.2548,11.2548,11.2548,11.2548,11.2548,11.2548,11.2548,11.2548,11.2548,11.2548,11.2548,11.2548,11.2548,11.2548,11.2548,11.2548,11.2548,11.2548,11.2548,11.2548,11.2548,11.2548,11.2548,11.2548,11.2548,11.2548,11.2548,11.2548,11.2548,11.2548,11.2548,11.2548,11.2548,11.2548,11.259,11.259,11.2566,11.2583,11.261,11.2628,11.2689,11.2716,11.2892,11.2997,11.3119,11.3248,11.3352,11.3456,11.3438,11.3404,11.3334,11.3213,11.3143,11.2968,11.2916,11.2678,11.2592,11.2566,11.2557,11.2566,11.2548,11.2548,11.2548,11.2548,11.2548,11.2548,11.2548,11.2548,11.2548,11.2548,11.2548,11.2548,11.2548,11.2548,11.2548,11.2548,11.2548,11.2548,11.2548,11.2548,11.2548,11.2548,11.2638,11.2548,11.2539,11.2548,11.2548,11.2548,11.2548,11.2548,11.2548,11.2548,11.2548,11.2548,11.2548,11.2548,11.2548,11.2548,11.2548,11.2548,11.2548,11.2548,11.2548,11.2548,11.2548,11.2548,11.2548,11.2548,11.2548,11.2548,11.2548,11.2548,11.2548,11.2548,11.2548,11.2548,11.2548,11.2548,11.2548,11.2548,11.2548,11.2548,11.2548,11.2548,11.2548,11.2548,11.2548,11.2548,11.2548,11.2548,11.2548,11.2548,11.2548,11.2548,11.2548,11.2548,11.2548,11.2548,11.2548,11.2548,11.2548,11.2548,11.2548,11.2548,11.2548,11.2548,11.2548,11.2548,11.2548,11.2548,11.2548,11.2548,11.2548,11.2557,11.2557,11.2583,11.2583,11.2636,11.2645,11.2672,11.2689,11.2698,11.2733,11.2742,11.2716,11.2707,11.2663,11.2645,11.2592,11.2599,11.259,11.2548,11.2548,11.2548,11.2548,11.2548,11.2548,11.2548,11.2548,11.2548,11.2548,11.2548,11.2548,11.2548,11.2548,11.2548,11.2548,11.2548,11.2548,11.2548,11.2548,11.2548,11.2548,11.2548,11.2548,11.2548,11.2548,11.4452,11.3622,11.2883,11.2548,11.2548,11.2548,11.2548,11.2548,11.2548,11.2548,11.2548,11.2548,11.2548,11.2548,11.2548,11.2548,11.2548,11.2548,11.2548,11.2548,11.2548,11.2548,11.2548,11.2548,11.2548,11.2548,11.2548,11.2548,11.2548,11.2548,11.2548,11.2548,11.2548,11.2548,11.2548,11.2548,11.2548,11.2548,11.2548,11.2548,11.2548,11.2548,11.2548,11.2548,11.2548,11.2548,11.2548,11.2548,11.2548,11.2548,11.2548,11.2548,11.2548,11.2548,11.2548,11.2548,11.2548,11.2548,11.2548,11.2548,11.2548,11.2548,11.2548,11.2548,11.2548,11.2548,11.2548,11.2548,11.2548,11.2548,11.2548,11.2548,11.2548,11.2548,11.2548,11.2548,11.2548,11.2548,11.2548,11.2548,11.2548,11.2548,11.2548,11.2548,11.2548,11.2548,11.2548,11.2548,11.2548,11.2548,11.2548,11.2548,11.2548,11.2548,11.2548,11.2548,11.2548,11.2548,11.2548,11.2548,11.2548,11.2548,11.2548,11.2548,11.2548,11.2548,11.2548,11.2548,11.2548,11.2548,11.2548,11.2548,11.2548,11.2548,11.2548,11.6153,11.5116,11.4043,11.3361,11.3072,11.308,11.2916,11.2614,11.3179,11.3672,11.3517,11.3287,11.3122,11.308,11.2826,11.2548,11.2548,11.2548,11.2548,11.2539,11.2548,11.2548,11.2548,11.2548,11.2548,11.2548,11.2548,11.2548,11.2548,11.2548,11.2548,11.2548,11.2548,11.2548,11.2548,11.2548,11.2548,11.2548,11.2548,11.2548,11.2548,11.2548,11.2548,11.2548,11.2548,11.2548,11.2548,11.2548,11.2548,11.2548,11.2548,11.2548,11.2548,11.2548,11.2548,11.2548,11.2548,11.2548,11.2548,11.2548,11.2548,11.2548,11.2548,11.2548,11.2548,11.2548,11.2548,11.2548,11.2548,11.2548,11.2548,11.2548,11.2548,11.2548,11.2548,11.2548,11.2548,11.2548,11.2548,11.2548,11.2548,11.2548,11.2548,11.2548,11.2548,11.2548,11.2548,11.2548,11.2548,11.2548,11.2548,11.2548,11.2548,11.2548,11.2548,11.2548,11.2548,11.2548,11.2548,11.2548,11.2548,11.2548,11.2548,11.2548,11.2548,11.2548,11.2548,11.2548,11.2548,11.2548,11.2548,11.2548,11.2548,11.2548,11.2548,11.6778,11.6623,11.6515,11.5684,11.459,11.4533,11.3852,11.291,11.5227,11.6425,11.6022,11.5059,11.4524,11.4345,11.3663,11.3164,11.323,11.323,11.3296,11.2596,11.2826,11.2671,11.2638,11.2548,11.2548,11.2548,11.2548,11.2548,11.2548,11.2548,11.2548,11.2548,11.2548,11.2548,11.2548,11.2548,11.2548,11.2548,11.2548,11.2548,11.2548,11.2548,11.2548,11.2548,11.2548,11.2548,11.2548,11.2548,11.2548,11.2548,11.2548,11.2548,11.2548,11.2548,11.2548,11.2548,11.2548,11.2548,11.2548,11.2548,11.2548,11.2548,11.2548,11.2548,11.2548,11.2548,11.2548,11.2548,11.2548,11.2548,11.2548,11.2548,11.2548,11.2548,11.2548,11.2548,11.2548,11.2548,11.2548,11.2548,11.2548,11.2548,11.2548,11.2548,11.2548,11.2548,11.2548,11.2548,11.2548,11.2548,11.2548,11.2548,11.2548,11.2548,11.2548,11.2548,11.2548,11.2548,11.2548,11.2548,11.2548,11.2548,11.2548,11.2548,11.2548,11.2548,11.2548,11.2548,11.2548,11.2548,11.2548,11.2548,11.2548,11.2548,11.2548,11.9032,11.8299,11.8257,11.7369,11.612,11.598,11.5735,11.5406,11.6303,11.6811,11.6754,11.6261,11.598,11.5857,11.534,11.4988,11.4988,11.4823,11.4461,11.4058,11.3885,11.3442,11.2769,11.2548,11.2736,11.2548,11.2548,11.2901,11.2548,11.2548,11.2539,11.2572,11.2548,11.2548,11.2572,11.2638,11.2605,11.2638,11.2539,11.2548,11.2548,11.2548,11.2548,11.2548,11.2548,11.2548,11.2548,11.2548,11.2548,11.2548,11.2548,11.2548,11.2548,11.2548,11.2548,11.2548,11.2548,11.2548,11.2548,11.2548,11.2548,11.2548,11.2548,11.2638,11.2671,11.2704,11.2671,11.2548,11.2548,11.2548,11.2548,11.2548,11.2548,11.2548,11.2548,11.2548,11.2548,11.2548,11.2548,11.2548,11.2548,11.2548,11.2548,11.2548,11.2548,11.2548,11.2548,11.2548,11.2548,11.2548,11.2548,11.2548,11.2548,11.2548,11.2548,11.2548,11.2548,11.2548,11.2548,11.2548,11.2548,11.2548,11.2548,11.2548,11.2548,11.2548,11.2548,11.2548,11.2548,11.2548,11.2548,11.2548,11.2548,11.2548,11.2548,12.0676,11.9812,11.9788,11.9112,11.8177,11.8111,11.8102,11.8078,11.8135,11.8111,11.8069,11.7717,11.7501,11.7412,11.705,11.6754,11.6721,11.6646,11.6087,11.5717,11.5289,11.4617,11.4231,11.4043,11.3855,11.3879,11.3944,11.4133,11.3846,11.3212,11.3212,11.2695,11.2539,11.2548,11.2704,11.3,11.3179,11.3212,11.2761,11.2638,11.2548,11.2548,11.2548,11.2548,11.2548,11.2548,11.2548,11.2548,11.2548,11.2548,11.2548,11.2548,11.2548,11.2548,11.2539,11.2539,11.2572,11.2572,11.2548,11.2548,11.2548,11.2548,11.3559,11.3451,11.3245,11.3245,11.3039,11.2728,11.2548,11.2548,11.2548,11.2548,11.2548,11.2548,11.2548,11.2548,11.2548,11.2548,11.2548,11.2548,11.2548,11.2548,11.2548,11.2548,11.2548,11.2548,11.2548,11.2548,11.2548,11.2548,11.2548,11.2548,11.2548,11.2548,11.2548,11.2548,11.2548,11.2548,11.2548,11.2548,11.2548,11.2548,11.2548,11.2548,11.2548,11.2548,11.2548,11.2548,11.2548,11.2548,11.2548,11.2548,11.2548,11.2548,11.2548,12.1254,12.1221,12.1212,12.1123,12.1071,12.0808,12.0949,12.1047,12.1047,12.0982,12.0906,11.9483,11.9056,11.8793,11.7642,11.7247,11.7313,11.7289,11.7059,11.6886,11.6811,11.6524,11.6336,11.6171,11.5875,11.6228,11.6261,11.5702,11.635,11.5265,11.3992,11.3221,11.3296,11.3296,11.3616,11.4067,11.4575,11.4387,11.3903,11.3508,11.332,11.3,11.2925,11.2802,11.2638,11.2548,11.2548,11.2548,11.2548,11.2548,11.2548,11.2548,11.2548,11.2548,11.2572,11.2638,11.2704,11.2892,11.3056,11.3221,11.3122,11.3624,11.5095,11.5373,11.5101,11.4608,11.4246,11.3705,11.3122,11.2934,11.2539,11.2572,11.2572,11.2548,11.2548,11.2539,11.2539,11.2572,11.2572,11.2548,11.2548,11.2548,11.2548,11.2548,11.2548,11.2548,11.2548,11.2548,11.2548,11.2548,11.2548,11.2548,11.2548,11.2548,11.2548,11.2548,11.2548,11.2548,11.2548,11.2548,11.2548,11.2548,11.2548,11.2548,11.2548,11.2548,11.2548,11.2548,11.2548,11.2548,11.2548,11.2548,11.2548,11.2548,11.2548,12.131,12.131,12.131,12.131,12.131,12.131,12.131,12.131,12.131,12.131,12.1212,12.0808,12.0479,12.0347,11.9986,11.9732,11.9765,11.9699,11.9525,11.8398,11.8365,11.7839,11.7214,11.6721,11.7214,11.6778,11.6778,11.6918,11.7083,11.6392,11.5801,11.5373,11.5373,11.5161,11.5448,11.5678,11.6078,11.589,11.5505,11.5011,11.4847,11.4452,11.3941,11.3729,11.3221,11.2671,11.2581,11.2548,11.2548,11.2548,11.2548,11.2548,11.2548,11.2704,11.3048,11.372,11.404,11.4443,11.5011,11.5209,11.5349,11.5367,11.6106,11.6524,11.6252,11.612,11.5669,11.511,11.4509,11.4213,11.3861,11.2695,11.2704,11.2614,11.2647,11.2638,11.2671,11.2695,11.2662,11.2572,11.2548,11.2548,11.2548,11.2548,11.2548,11.2548,11.2548,11.2548,11.2548,11.2548,11.2548,11.2548,11.2548,11.2548,11.2548,11.2548,11.2548,11.2548,11.2548,11.2548,11.2548,11.2548,11.2548,11.2548,11.2548,11.2548,11.2548,11.2548,11.2548,11.2548,11.2548,11.2548,11.2548,11.2548,11.2548,12.131,12.131,12.131,12.131,12.131,12.131,12.131,12.131,12.131,12.131,12.131,12.131,12.131,12.131,12.1146,12.1113,12.1179,12.1245,12.1047,11.992,11.9887,11.9088,11.876,11.867,11.8539,11.8374,11.8342,11.8572,11.8219,11.7815,11.7708,11.7346,11.6895,11.743,11.8013,11.774,11.7632,11.7525,11.7074,11.6811,11.6679,11.5923,11.5397,11.5364,11.4617,11.4273,11.4273,11.4381,11.4381,11.4339,11.4372,11.4306,11.4273,11.4264,11.4584,11.5125,11.5444,11.5914,11.6515,11.7971,11.821,11.8342,11.8539,11.8374,11.7665,11.7609,11.7214,11.6623,11.5759,11.5552,11.5388,11.442,11.3935,11.3813,11.3723,11.3681,11.3287,11.3278,11.3089,11.3065,11.2581,11.2548,11.2548,11.2548,11.2548,11.2548,11.2548,11.2548,11.2548,11.2548,11.2548,11.2548,11.2548,11.2548,11.2548,11.2548,11.2548,11.2548,11.2548,11.2548,11.2548,11.2548,11.2548,11.2548,11.2548,11.2548,11.2548,11.2548,11.2548,11.2548,11.2548,11.2548,11.2548,11.2548,11.2548,12.131,12.131,12.131,12.131,12.131,12.131,12.131,12.131,12.131,12.131,12.131,12.131,12.131,12.131,12.131,12.131,12.131,12.1301,12.1169,12.1024,12.0873,12.1113,12.0883,12.0719,12.0347,12.1123,12.0784,12.0488,12.085,11.9723,11.922,11.8858,11.8407,11.8562,12.0817,11.9854,11.9243,11.9013,11.782,11.7534,11.7402,11.7205,11.6909,11.6778,11.6327,11.5965,11.5932,11.5941,11.5908,11.5932,11.5998,11.6031,11.6064,11.6153,11.6449,11.6811,11.6886,11.7017,11.7214,11.9723,12.0578,12.062,12.0258,12.0084,11.9417,11.9088,11.8802,11.8078,11.7149,11.6909,11.6843,11.6655,11.6359,11.6162,11.6031,11.5833,11.5077,11.4739,11.433,11.4109,11.3328,11.2704,11.2736,11.2704,11.2802,11.2769,11.2638,11.2548,11.2548,11.2548,11.2548,11.2548,11.2548,11.2548,11.2548,11.2548,11.2548,11.2548,11.2548,11.2548,11.2548,11.2548,11.2548,11.2548,11.2548,11.2548,11.2548,11.2548,11.2548,11.2548,11.2548,11.2548,11.2548,11.2548,11.2548,12.131,12.131,12.131,12.131,12.131,12.131,12.131,12.131,12.131,12.131,12.131,12.131,12.131,12.131,12.131,12.131,12.131,12.131,12.131,12.131,12.131,12.131,12.131,12.131,12.131,12.131,12.131,12.131,12.131,12.0873,12.0578,12.038,12.0249,12.0216,12.1212,12.0827,12.0653,12.0643,12.0141,11.9986,11.969,11.9023,11.8464,11.8389,11.7543,11.7214,11.7172,11.7238,11.7172,11.7139,11.7074,11.6951,11.6886,11.6942,11.7402,11.8036,11.8605,11.9041,11.9765,12.0916,12.1212,12.131,12.131,12.108,12.0784,12.0643,12.0357,11.96,11.8901,11.8464,11.8412,11.7698,11.7313,11.7576,11.751,11.7346,11.6623,11.6219,11.5744,11.5161,11.5194,11.4931,11.4692,11.4091,11.4157,11.4124,11.3771,11.332,11.3122,11.2958,11.2793,11.2671,11.2572,11.2548,11.2548,11.2548,11.2548,11.2548,11.2548,11.2548,11.2548,11.2548,11.2548,11.2548,11.2548,11.2548,11.2548,11.2548,11.2548,11.2548,11.2548,11.2548,11.2548,11.2548,11.2548,12.131,12.131,12.131,12.131,12.131,12.131,12.131,12.131,12.131,12.131,12.131,12.131,12.131,12.131,12.131,12.131,12.131,12.131,12.131,12.131,12.131,12.131,12.131,12.131,12.131,12.131,12.131,12.131,12.131,12.1179,12.131,12.131,12.1113,12.131,12.131,12.1212,12.1212,12.1202,12.1245,12.1245,12.1146,12.0347,11.9986,11.9976,11.8802,11.8605,11.8454,11.8529,11.852,11.8619,11.8694,11.8802,11.8835,11.8793,11.9196,11.9831,11.9953,12.0324,12.1024,12.1212,12.131,12.131,12.131,12.1278,12.1179,12.1245,12.131,12.108,12.039,11.9995,11.9943,11.9121,11.8342,11.8506,11.8548,11.8407,11.8078,11.7839,11.7355,11.6294,11.6359,11.6688,11.612,11.5576,11.5585,11.5454,11.4716,11.4133,11.3861,11.3631,11.3179,11.2949,11.2638,11.2548,11.2548,11.2548,11.2548,11.2548,11.2548,11.2548,11.2548,11.2548,11.2548,11.2548,11.2548,11.2548,11.2548,11.2548,11.2548,11.2548,11.2548,11.2548,11.2548,11.2548,11.2548,12.131,12.131,12.131,12.131,12.131,12.131,12.131,12.131,12.131,12.131,12.131,12.131,12.131,12.131,12.131,12.131,12.131,12.131,12.131,12.131,12.131,12.131,12.131,12.131,12.131,12.131,12.131,12.131,12.131,12.131,12.131,12.131,12.131,12.131,12.131,12.131,12.131,12.131,12.131,12.131,12.1278,12.1212,12.108,12.1104,12.1179,12.1287,12.1245,12.0906,12.0742,12.0709,12.0643,12.0653,12.0488,12.0545,12.0512,12.0883,12.0949,12.1014,12.1212,12.131,12.131,12.131,12.131,12.131,12.131,12.131,12.131,12.1245,12.108,12.1014,12.1113,12.1212,12.0578,12.039,12.0061,11.9798,11.9502,11.9262,11.8628,11.7534,11.7304,11.7642,11.7337,11.7665,11.774,11.7106,11.6392,11.5899,11.543,11.4772,11.4124,11.34,11.3024,11.2835,11.2802,11.2548,11.2548,11.2548,11.2548,11.2548,11.2548,11.2548,11.2548,11.2548,11.2548,11.2548,11.2548,11.2548,11.2548,11.2548,11.2548,11.2548,11.2548,11.2548,11.2548,12.131,12.131,12.131,12.131,12.131,12.131,12.131,12.131,12.131,12.131,12.131,12.131,12.131,12.131,12.131,12.131,12.131,12.131,12.131,12.131,12.131,12.131,12.131,12.131,12.131,12.131,12.131,12.131,12.131,12.131,12.131,12.131,12.131,12.131,12.131,12.131,12.131,12.131,12.131,12.131,12.131,12.131,12.131,12.131,12.131,12.131,12.131,12.131,12.131,12.131,12.131,12.131,12.131,12.131,12.131,12.131,12.131,12.131,12.131,12.131,12.131,12.131,12.131,12.131,12.131,12.131,12.131,12.131,12.131,12.131,12.131,12.131,12.131,12.131,12.131,12.1123,12.0827,12.0554,11.9986,11.9361,11.9154,11.9187,11.9121,11.9591,11.9394,11.8727,11.8234,11.7764,11.7106,11.6359,11.5528,11.4476,11.4157,11.3935,11.3418,11.2704,11.2581,11.2548,11.2548,11.2548,11.2548,11.2548,11.2548,11.2548,11.2548,11.2548,11.2548,11.2548,11.2548,11.2548,11.2548,11.2548,11.2548,11.2548,11.2548,12.131,12.131,12.131,12.131,12.131,12.131,12.131,12.131,12.131,12.131,12.131,12.131,12.131,12.131,12.131,12.131,12.131,12.131,12.131,12.131,12.131,12.131,12.131,12.131,12.131,12.131,12.131,12.131,12.131,12.131,12.131,12.131,12.131,12.131,12.131,12.131,12.131,12.131,12.131,12.131,12.131,12.131,12.131,12.131,12.131,12.131,12.131,12.131,12.131,12.131,12.131,12.131,12.131,12.131,12.131,12.131,12.131,12.131,12.131,12.131,12.131,12.131,12.131,12.131,12.131,12.131,12.131,12.131,12.131,12.131,12.131,12.131,12.131,12.131,12.131,12.1179,12.1179,12.131,12.131,12.131,12.1146,12.062,12.0324,12.0554,12.0347,11.9953,11.9723,11.9417,11.8891,11.8102,11.7008,11.5914,11.5561,11.5134,11.4231,11.3311,11.3311,11.2826,11.2826,11.2548,11.2548,11.2548,11.2548,11.2548,11.2548,11.2548,11.2548,11.2548,11.2548,11.2548,11.2548,11.2548,11.2548,11.2548,11.2548,12.131,12.131,12.131,12.131,12.131,12.131,12.131,12.131,12.131,12.131,12.131,12.131,12.131,12.131,12.131,12.131,12.131,12.131,12.131,12.131,12.131,12.131,12.131,12.131,12.131,12.131,12.131,12.131,12.131,12.131,12.131,12.131,12.131,12.131,12.131,12.131,12.131,12.131,12.131,12.131,12.131,12.131,12.131,12.131,12.131,12.131,12.131,12.131,12.131,12.131,12.131,12.131,12.131,12.131,12.131,12.131,12.131,12.131,12.131,12.131,12.131,12.131,12.131,12.131,12.131,12.131,12.131,12.131,12.131,12.131,12.131,12.131,12.131,12.131,12.131,12.131,12.131,12.131,12.131,12.131,12.131,12.1179,12.108,12.1212,12.131,12.131,12.1278,12.1146,12.0742,11.9854,11.8825,11.8069,11.7609,11.6557,11.5579,11.4533,11.404,11.3236,11.2925,11.2548,11.2548,11.2548,11.2548,11.2605,11.2548,11.2548,11.2548,11.2548,11.2548,11.2548,11.2548,11.2548,11.2548,11.2548,11.2548,12.131,12.131,12.131,12.131,12.131,12.131,12.131,12.131,12.131,12.131,12.131,12.131,12.131,12.131,12.131,12.131,12.131,12.131,12.131,12.131,12.131,12.131,12.131,12.131,12.131,12.131,12.131,12.131,12.131,12.131,12.131,12.131,12.131,12.131,12.131,12.131,12.131,12.131,12.131,12.131,12.131,12.131,12.131,12.131,12.131,12.131,12.131,12.131,12.131,12.131,12.131,12.131,12.131,12.131,12.131,12.131,12.131,12.131,12.131,12.131,12.131,12.131,12.131,12.131,12.131,12.131,12.131,12.131,12.131,12.131,12.131,12.131,12.131,12.131,12.131,12.131,12.131,12.131,12.131,12.131,12.131,12.1278,12.1245,12.131,12.131,12.131,12.131,12.131,12.1212,12.061,12.0282,11.9755,11.9098,11.7947,11.6876,11.5863,11.5322,11.4443,11.3804,11.3188,11.2934,11.2605,11.2695,11.2826,11.2728,11.2548,11.2548,11.2548,11.2548,11.2548,11.2548,11.2548,11.2548,11.2548,11.2548,12.131,12.131,12.131,12.131,12.131,12.131,12.131,12.131,12.131,12.131,12.131,12.131,12.131,12.131,12.131,12.131,12.131,12.131,12.131,12.131,12.131,12.131,12.131,12.131,12.131,12.131,12.131,12.131,12.131,12.131,12.131,12.131,12.131,12.131,12.131,12.131,12.131,12.131,12.131,12.131,12.131,12.131,12.131,12.131,12.131,12.131,12.131,12.131,12.131,12.131,12.131,12.131,12.131,12.131,12.131,12.131,12.131,12.131,12.131,12.131,12.131,12.131,12.131,12.131,12.131,12.131,12.131,12.131,12.131,12.131,12.131,12.131,12.131,12.131,12.131,12.131,12.131,12.131,12.131,12.131,12.131,12.131,12.131,12.131,12.131,12.131,12.131,12.131,12.131,12.1113,12.1005,12.0653,12.039,11.9295,11.8323,11.7689,11.7205,11.5932,11.4979,11.4157,11.3639,11.2958,11.2859,11.3137,11.2793,11.2539,11.2548,11.2548,11.2548,11.2548,11.2548,11.2548,11.2548,11.2548,11.2548,12.131,12.131,12.131,12.131,12.131,12.131,12.131,12.131,12.131,12.131,12.131,12.131,12.131,12.131,12.131,12.131,12.131,12.131,12.131,12.131,12.131,12.131,12.131,12.131,12.131,12.131,12.131,12.131,12.131,12.131,12.131,12.131,12.131,12.131,12.131,12.131,12.131,12.131,12.131,12.131,12.131,12.131,12.131,12.131,12.131,12.131,12.131,12.131,12.131,12.131,12.131,12.131,12.131,12.131,12.131,12.131,12.131,12.131,12.131,12.131,12.131,12.131,12.131,12.131,12.131,12.131,12.131,12.131,12.131,12.131,12.131,12.131,12.131,12.131,12.131,12.131,12.131,12.131,12.131,12.131,12.131,12.131,12.131,12.131,12.131,12.131,12.131,12.131,12.131,12.131,12.131,12.131,12.131,12.0446,11.9647,11.9187,11.8562,11.7139,11.6186,11.5364,11.4692,11.3681,11.3245,11.3753,11.3654,11.3024,11.2671,11.2548,11.2548,11.2548,11.2548,11.2548,11.2548,11.2548,11.2548,12.131,12.131,12.131,12.131,12.131,12.131,12.131,12.131,12.131,12.131,12.131,12.131,12.131,12.131,12.131,12.131,12.131,12.131,12.131,12.131,12.131,12.131,12.131,12.131,12.131,12.131,12.131,12.131,12.131,12.131,12.131,12.131,12.131,12.131,12.131,12.131,12.131,12.131,12.131,12.131,12.131,12.131,12.131,12.131,12.131,12.131,12.131,12.131,12.131,12.131,12.131,12.131,12.131,12.131,12.131,12.131,12.131,12.131,12.131,12.131,12.131,12.131,12.131,12.131,12.131,12.131,12.131,12.131,12.131,12.131,12.131,12.131,12.131,12.131,12.131,12.131,12.131,12.131,12.131,12.131,12.131,12.131,12.131,12.131,12.131,12.131,12.131,12.131,12.131,12.131,12.131,12.131,12.131,12.0709,12.0446,12.0051,11.945,11.8323,11.7492,11.6918,11.6378,11.5579,11.5035,11.505,11.4458,11.3663,11.3188,11.2769,11.2548,11.2548,11.2548,11.2548,11.2548,11.2548,11.2548,12.131,12.131,12.131,12.131,12.131,12.131,12.131,12.131,12.131,12.131,12.131,12.131,12.131,12.131,12.131,12.131,12.131,12.131,12.131,12.131,12.131,12.131,12.131,12.131,12.131,12.131,12.131,12.131,12.131,12.131,12.131,12.131,12.131,12.131,12.131,12.131,12.131,12.131,12.131,12.131,12.131,12.131,12.131,12.131,12.131,12.131,12.131,12.131,12.131,12.131,12.131,12.131,12.131,12.131,12.131,12.131,12.131,12.131,12.131,12.131,12.131,12.131,12.131,12.131,12.131,12.131,12.131,12.131,12.131,12.131,12.131,12.131,12.131,12.131,12.131,12.131,12.131,12.131,12.131,12.131,12.131,12.131,12.131,12.131,12.131,12.131,12.131,12.131,12.131,12.131,12.131,12.131,12.131,12.1245,12.1113,12.0709,12.0075,11.9506,11.875,11.8299,11.8031,11.7487,11.69,11.6201,11.5576,11.4716,11.3631,11.2901,11.2548,11.2548,11.2548,11.2548,11.2548,11.2548,11.2548,12.131,12.131,12.131,12.131,12.131,12.131,12.131,12.131,12.131,12.131,12.131,12.131,12.131,12.131,12.131,12.131,12.131,12.131,12.131,12.131,12.131,12.131,12.131,12.131,12.131,12.131,12.131,12.131,12.131,12.131,12.131,12.131,12.131,12.131,12.131,12.131,12.131,12.131,12.131,12.131,12.131,12.131,12.131,12.131,12.131,12.131,12.131,12.131,12.131,12.131,12.131,12.131,12.131,12.131,12.131,12.131,12.131,12.131,12.131,12.131,12.131,12.131,12.131,12.131,12.131,12.131,12.131,12.131,12.131,12.131,12.131,12.131,12.131,12.131,12.131,12.131,12.131,12.131,12.131,12.131,12.131,12.131,12.131,12.131,12.131,12.131,12.131,12.131,12.131,12.131,12.131,12.131,12.131,12.131,12.1179,12.1047,12.0742,12.0512,11.9976,11.9582,11.9553,11.9192,11.8628,11.783,11.6769,11.5543,11.4393,11.3589,11.2548,11.2548,11.2548,11.2548,11.2548,11.2548,11.2548,12.131,12.131,12.131,12.131,12.131,12.131,12.131,12.131,12.131,12.131,12.131,12.131,12.131,12.131,12.131,12.131,12.131,12.131,12.131,12.131,12.131,12.131,12.131,12.131,12.131,12.131,12.131,12.131,12.131,12.131,12.131,12.131,12.131,12.131,12.131,12.131,12.131,12.131,12.131,12.131,12.131,12.131,12.131,12.131,12.131,12.131,12.131,12.131,12.131,12.131,12.131,12.131,12.131,12.131,12.131,12.131,12.131,12.131,12.131,12.131,12.131,12.131,12.131,12.131,12.131,12.131,12.131,12.131,12.131,12.131,12.131,12.131,12.131,12.131,12.131,12.131,12.131,12.131,12.131,12.131,12.131,12.131,12.131,12.131,12.131,12.131,12.131,12.131,12.131,12.131,12.131,12.131,12.131,12.131,12.131,12.131,12.131,12.1278,12.0709,12.0578,12.054,12.0442,12.0094,11.9154,11.7369,11.6045,11.4951,11.3852,11.2859,11.2548,11.2548,11.2548,11.2548,11.2548,11.2548,12.131,12.131,12.131,12.131,12.131,12.131,12.131,12.131,12.131,12.131,12.131,12.131,12.131,12.131,12.131,12.131,12.131,12.131,12.131,12.131,12.1278,12.1278,12.131,12.131,12.131,12.131,12.131,12.131,12.131,12.131,12.131,12.131,12.131,12.131,12.131,12.131,12.131,12.131,12.131,12.131,12.131,12.131,12.131,12.131,12.131,12.131,12.131,12.131,12.131,12.131,12.131,12.131,12.131,12.131,12.131,12.131,12.131,12.131,12.131,12.131,12.131,12.131,12.131,12.131,12.131,12.131,12.131,12.131,12.131,12.131,12.131,12.131,12.131,12.131,12.131,12.131,12.131,12.131,12.131,12.131,12.131,12.131,12.131,12.131,12.131,12.131,12.131,12.131,12.131,12.131,12.131,12.131,12.131,12.131,12.131,12.131,12.131,12.1278,12.0982,12.1071,12.1057,12.1057,12.0347,11.922,11.7773,11.635,11.4969,11.3687,11.2925,11.2548,11.2548,11.2548,11.2548,11.2548,11.2548,12.131,12.131,12.131,12.131,12.131,12.131,12.131,12.131,12.131,12.131,12.131,12.131,12.131,12.131,12.131,12.131,12.131,12.131,12.131,12.1287,12.0972,12.0906,12.1245,12.131,12.131,12.131,12.131,12.131,12.131,12.131,12.131,12.131,12.131,12.131,12.131,12.131,12.131,12.131,12.131,12.131,12.131,12.131,12.131,12.131,12.131,12.131,12.131,12.131,12.131,12.131,12.131,12.131,12.131,12.131,12.131,12.131,12.131,12.131,12.131,12.131,12.131,12.131,12.131,12.131,12.131,12.131,12.131,12.131,12.131,12.131,12.131,12.131,12.131,12.131,12.131,12.131,12.131,12.131,12.131,12.131,12.131,12.131,12.131,12.131,12.131,12.131,12.131,12.131,12.131,12.131,12.131,12.131,12.1202,12.1278,12.1245,12.1245,12.1113,12.0958,12.0686,12.0488,12.015,12.0084,11.9492,11.8825,11.7008,11.5914,11.4665,11.3532,11.3122,11.2548,11.2548,11.2548,11.2548,11.2548,11.2548,12.131,12.131,12.131,12.131,12.131,12.131,12.1245,12.1245,12.1212,12.108,12.1047,12.0873,12.1014,12.1179,12.0817,12.0817,12.1212,12.0916,12.0817,12.0587,11.992,11.9788,12.0653,12.0742,12.0719,12.0883,12.0925,12.1047,12.0784,12.0982,12.131,12.1179,12.1212,12.131,12.131,12.131,12.131,12.131,12.131,12.131,12.131,12.131,12.131,12.131,12.131,12.131,12.131,12.131,12.131,12.131,12.131,12.131,12.131,12.131,12.131,12.131,12.131,12.131,12.131,12.131,12.131,12.131,12.131,12.131,12.131,12.131,12.131,12.131,12.131,12.131,12.131,12.131,12.131,12.131,12.131,12.131,12.131,12.131,12.131,12.131,12.131,12.131,12.131,12.131,12.131,12.131,12.131,12.131,12.131,12.131,12.131,12.1169,12.0972,12.0906,12.061,12.0479,11.9887,11.96,11.9065,11.8506,11.7905,11.7839,11.751,11.7008,11.6045,11.5214,11.4261,11.3344,11.2671,11.2548,11.2548,11.2548,11.2548,11.2548,11.2548,12.131,12.131,12.131,12.131,12.131,12.131,12.0827,12.0019,11.9962,11.9384,11.8605,11.8497,11.8473,11.8473,11.8473,11.8473,11.8473,11.8473,11.8464,11.8332,11.783,11.7938,11.8374,11.8497,11.8506,11.8515,11.8506,11.8497,11.8539,11.9408,11.992,12.0173,12.0873,12.1278,12.131,12.131,12.131,12.131,12.131,12.131,12.131,12.131,12.131,12.131,12.131,12.131,12.131,12.131,12.131,12.131,12.131,12.131,12.131,12.131,12.131,12.131,12.131,12.131,12.131,12.131,12.131,12.131,12.131,12.131,12.131,12.131,12.131,12.131,12.131,12.131,12.131,12.131,12.131,12.131,12.1179,12.131,12.131,12.131,12.1245,12.1146,12.1179,12.131,12.131,12.131,12.131,12.131,12.131,12.131,12.131,12.1212,12.1278,12.1179,12.0512,11.9976,11.9878,11.9384,11.8736,11.7947,11.7289,11.6524,11.6129,11.6096,11.6162,11.5726,11.5265,11.4434,11.372,11.2859,11.2548,11.2548,11.2548,11.2548,11.2548,11.2548,11.2548,12.0643,12.0578,12.0136,11.992,11.9896,11.9896,11.9384,11.8473,11.8431,11.7839,11.6951,11.6811,11.6811,11.6811,11.6811,11.6853,11.6721,11.5866,11.5777,11.612,11.6153,11.6425,11.682,11.6843,11.6811,11.6811,11.6811,11.6843,11.7083,11.7896,11.8422,11.8727,11.9887,12.0587,12.0568,12.1113,12.131,12.131,12.131,12.131,12.131,12.131,12.131,12.131,12.131,12.131,12.131,12.131,12.131,12.131,12.131,12.131,12.131,12.131,12.131,12.131,12.131,12.131,12.131,12.131,12.131,12.131,12.131,12.131,12.131,12.131,12.131,12.131,12.131,12.131,12.131,12.131,12.0808,11.9986,11.9887,11.9732,11.9624,11.9755,11.992,11.9929,11.9896,11.9896,11.9864,11.9788,11.9624,11.9647,11.969,11.9732,11.9798,11.9558,11.9887,11.9896,11.9286,11.8422,11.8365,11.8078,11.6895,11.5687,11.5218,11.4626,11.4757,11.4856,11.4955,11.479,11.4288,11.3663,11.2958,11.2548,11.2548,11.2548,11.2548,11.2548,11.2548,11.2548,11.2548,11.9178,11.8948,11.7543,11.7149,11.7247,11.7289,11.6975,11.6876,11.6886,11.6679,11.6294,11.6548,11.6317,11.6557,11.6294,11.6617,11.614,11.4168,11.3747,11.474,11.4752,11.5391,11.6438,11.6387,11.6327,11.6383,11.6655,11.6623,11.6458,11.6721,11.6853,11.7149,11.8407,11.922,11.9253,12.0488,12.1169,12.131,12.131,12.131,12.131,12.131,12.131,12.131,12.131,12.131,12.131,12.131,12.131,12.131,12.1245,12.1278,12.1156,12.0949,12.1146,12.0916,12.1113,12.1146,12.1113,12.0949,12.0808,12.0817,12.1047,12.0817,12.0719,12.0808,12.0841,12.0742,12.085,12.1014,12.0949,12.0883,11.9929,11.7534,11.7379,11.7379,11.7181,11.6984,11.6918,11.7158,11.7313,11.6951,11.6961,11.7355,11.751,11.7435,11.7412,11.7444,11.7576,11.7609,11.7106,11.7106,11.7064,11.6933,11.6853,11.6632,11.4964,11.3648,11.3517,11.3418,11.3681,11.3747,11.3879,11.378,11.3311,11.3221,11.2548,11.2548,11.2548,11.2548,11.2548,11.2548,11.2548,11.2548,11.2548,11.7576,11.7468,11.705,11.6811,11.6811,11.6811,11.6294,11.5379,11.5388,11.4805,11.4043,11.3911,11.3935,11.3944,11.392,11.4203,11.4531,11.3855,11.3566,11.3986,11.3749,11.3848,11.4218,11.407,11.3944,11.3977,11.3935,11.3944,11.4001,11.4904,11.5355,11.5463,11.6843,11.806,11.9056,11.9582,12.038,12.1179,12.131,12.131,12.131,12.131,12.131,12.131,12.131,12.131,12.131,12.131,12.131,12.1169,12.0347,11.9854,11.9723,11.8868,11.8285,11.8285,11.8299,11.8234,11.8285,11.8285,11.8299,11.8276,11.8276,11.8234,11.8285,11.8266,11.8266,11.8266,11.8266,11.8266,11.8276,11.8276,11.7914,11.7116,11.6811,11.6811,11.6811,11.6778,11.6721,11.6655,11.6623,11.6721,11.682,11.6745,11.6721,11.6811,11.6811,11.6811,11.6811,11.6811,11.6811,11.6745,11.5947,11.5454,11.5397,11.4823,11.3311,11.3032,11.2934,11.2802,11.2868,11.2802,11.2769,11.2671,11.2572,11.2539,11.2548,11.2548,11.2548,11.2548,11.2548,11.2548,11.2548,11.2548,11.2548,11.6524,11.6022,11.5514,11.5293,11.5284,11.5284,11.479,11.3917,11.3917,11.3439,11.2815,11.2751,11.2846,11.2977,11.3206,11.3586,11.4021,11.4055,11.4072,11.4038,11.3817,11.3612,11.3474,11.3241,11.3042,11.2977,11.2828,11.2713,11.268,11.3433,11.3917,11.4148,11.5331,11.6811,11.8159,11.8891,11.9887,12.1146,12.131,12.131,12.131,12.131,12.131,12.131,12.131,12.1038,12.0545,12.0521,12.0268,11.9666,11.8835,11.8299,11.8234,11.7379,11.6811,11.6811,11.6811,11.6811,11.6811,11.6811,11.6811,11.6811,11.6811,11.6918,11.6811,11.6811,11.6811,11.6843,11.6843,11.6244,11.5805,11.5347,11.5274,11.5284,11.5251,11.5143,11.5284,11.5284,11.5316,11.5284,11.5274,11.5284,11.5077,11.5251,11.5284,11.5274,11.5251,11.5185,11.5251,11.5251,11.5119,11.5086,11.4518,11.3917,11.3926,11.3048,11.2521,11.2539,11.2548,11.2548,11.2548,11.2548,11.2548,11.2548,11.2548,11.2548,11.2548,11.2548,11.2548,11.2548,11.2548,11.2548,11.2548,11.2548,11.2548,11.5857,11.45,11.3155,11.2704,11.2581,11.273,11.2632,11.2748,11.2717,11.2887,11.3187,11.3195,11.3438,11.3945,11.4569,11.4794,11.4802,11.481,11.4852,11.481,11.4786,11.4544,11.4226,11.4166,11.4006,11.3808,11.343,11.3047,11.2707,11.27,11.2557,11.2629,11.395,11.528,11.6721,11.8036,11.9615,12.0883,12.1057,12.1169,12.1254,12.108,12.0883,12.0841,12.1005,12.0291,11.9253,11.9046,11.8422,11.6918,11.682,11.6745,11.6745,11.659,11.6425,11.6491,11.6524,11.6524,11.6495,11.6456,11.6466,11.6573,11.644,11.6606,11.6392,11.6392,11.6392,11.6606,11.6443,11.5633,11.3853,11.3479,11.3076,11.2972,11.2799,11.2805,11.2721,11.3032,11.2614,11.2745,11.2934,11.3056,11.2769,11.2548,11.2826,11.2859,11.2704,11.2802,11.2991,11.2835,11.2868,11.2868,11.2802,11.2596,11.2572,11.2539,11.2539,11.2548,11.2548,11.2548,11.2548,11.2548,11.2548,11.2548,11.2548,11.2548,11.2548,11.2548,11.2548,11.2548,11.2548,11.2548,11.2548,11.2548,11.2548,11.3442,11.3122,11.2745,11.2548,11.2566,11.2821,11.2977,11.3021,11.3282,11.3543,11.381,11.3836,11.4603,11.588,11.6152,11.6221,11.6213,11.6255,11.6229,11.6189,11.5966,11.5772,11.5628,11.5205,11.4901,11.4761,11.4166,11.3784,11.3614,11.3256,11.2828,11.2599,11.2916,11.3861,11.5191,11.5651,11.7172,11.9483,11.9746,12.0291,12.085,11.9164,11.8036,11.8046,11.8036,11.7872,11.7477,11.7477,11.7247,11.6829,11.5824,11.528,11.5256,11.4297,11.3714,11.3714,11.3714,11.383,11.4139,11.4165,11.4263,11.4551,11.457,11.4594,11.4561,11.4561,11.4594,11.4656,11.4764,11.4762,11.3859,11.3585,11.3307,11.3003,11.2968,11.2846,11.2583,11.2548,11.2548,11.2548,11.2548,11.2548,11.2548,11.2548,11.2548,11.2548,11.2548,11.2548,11.2548,11.2548,11.2548,11.2548,11.2548,11.2548,11.2548,11.2548,11.2548,11.2548,11.2548,11.2548,11.2548,11.2548,11.2548,11.2548,11.2548,11.2548,11.2548,11.2548,11.2548,11.2548,11.2548,11.2548,11.2548,11.2548,11.2548,11.2652,11.2769,11.2777,11.2856,11.3082,11.3379,11.3535,11.3586,11.4098,11.4477,11.4659,11.4122,11.4908,11.6608,11.6672,11.7016,11.7615,11.7615,11.7615,11.7585,11.735,11.7182,11.7003,11.6616,11.6295,11.6036,11.5423,11.4999,11.4686,11.4107,11.3533,11.3082,11.2872,11.3518,11.4797,11.477,11.5839,11.8093,11.8201,11.8586,11.9164,11.7708,11.6811,11.6811,11.6811,11.6623,11.6045,11.5947,11.5693,11.5077,11.4279,11.3547,11.2955,11.2151,11.1489,11.1086,11.1029,11.1254,11.1717,11.187,11.2055,11.2264,11.2289,11.2606,11.3131,11.3248,11.3549,11.402,11.397,11.4173,11.461,11.4225,11.3808,11.3552,11.3291,11.3047,11.2786,11.2636,11.2548,11.2548,11.2548,11.2548,11.2548,11.2548,11.2548,11.2548,11.2548,11.2548,11.2548,11.2548,11.2548,11.2548,11.2548,11.2548,11.2548,11.2548,11.2548,11.2548,11.2548,11.2548,11.2548,11.2548,11.2548,11.2548,11.2548,11.2548,11.2548,11.2548,11.2548,11.2548,11.2548,11.2548,11.2548,11.2548,11.2548,11.2863,11.3204,11.3248,11.3473,11.3885,11.4183,11.4226,11.4176,11.4888,11.5389,11.538,11.4296,11.4821,11.6232,11.6357,11.7087,11.8274,11.8504,11.8393,11.8351,11.849,11.8319,11.7832,11.8016,11.779,11.7208,11.6908,11.647,11.5945,11.5254,11.4595,11.3962,11.3456,11.3892,11.4928,11.4773,11.529,11.6635,11.6583,11.655,11.648,11.6471,11.6471,11.6467,11.6392,11.5824,11.4557,11.45,11.3917,11.2704,11.2465,11.1765,11.0638,11.0353,10.9859,10.9011,10.9021,10.9271,10.9879,11.0174,11.0524,11.0376,11.059,11.1208,11.2398,11.2561,11.3193,11.4294,11.4038,11.4074,11.5175,11.4469,11.3867,11.385,11.3435,11.3141,11.3112,11.2846,11.2583,11.2557,11.2548,11.2548,11.2548,11.2548,11.2548,11.2548,11.2548,11.2548,11.2548,11.2548,11.2548,11.2548,11.2548,11.2548,11.2548,11.2548,11.2548,11.2548,11.2548,11.2548,11.2548,11.2548,11.2548,11.2548,11.2548,11.2548,11.2548,11.2548,11.2548,11.2548,11.2548,11.2548,11.2548,11.2548,11.2548,11.3353,11.3878,11.3878,11.4318,11.4951,11.5531,11.5155,11.4317,11.477,11.4991,11.5086,11.5273,11.5546,11.5998,11.5962,11.6166,11.6488,11.6523,11.6517,11.6488,11.6523,11.6455,11.6439,11.7316,11.756,11.7297,11.7819,11.7948,11.7557,11.6644,11.6018,11.5587,11.4477,11.4045,11.4369,11.4091,11.448,11.5494,11.4803,11.4266,11.3994,11.3994,11.3786,11.3544,11.355,11.3352,11.308,11.3006,11.2841,11.253,11.1493,11.0779,11.0417,10.9638,10.9168,10.9221,10.9633,11.0095,11.0412,11.0972,11.1372,11.1685,11.1901,11.2139,11.2502,11.2355,11.2894,11.4211,11.3841,11.3495,11.3669,11.3259,11.3144,11.3579,11.3271,11.3106,11.3456,11.3263,11.2874,11.2592,11.2548,11.2515,11.2548,11.2548,11.2548,11.2548,11.2548,11.2548,11.2548,11.2548,11.2548,11.2548,11.2548,11.2548,11.2548,11.2548,11.2548,11.2548,11.2548,11.2548,11.2548,11.2548,11.2548,11.2548,11.2548,11.2548,11.2548,11.2548,11.2548,11.2548,11.2548,11.2548,11.2548,11.2548,11.2548,11.3698,11.3854,11.3966,11.4015,11.4053,11.4521,11.4414,11.4013,11.4308,11.4124,11.3622,11.3909,11.4475,11.5133,11.5133,11.5522,11.6228,11.6192,11.6228,11.6192,11.6215,11.6234,11.6279,11.6871,11.7011,11.6859,11.7983,11.8348,11.7965,11.7781,11.7571,11.7262,11.6145,11.526,11.4793,11.4385,11.4337,11.4706,11.466,11.4343,11.3852,11.3681,11.3491,11.3293,11.2953,11.2804,11.2786,11.2026,11.1656,11.1822,11.0453,10.9467,10.8927,10.8509,10.7807,10.6905,10.7468,10.7741,10.7626,10.8018,10.8811,10.9983,11.0247,11.0254,10.9991,10.9843,11.0437,11.187,11.2164,11.2343,11.284,11.3057,11.3198,11.3373,11.2684,11.2357,11.2345,11.1956,11.1475,11.1159,11.1497,11.1839,11.1863,11.225,11.2548,11.2548,11.2548,11.2548,11.2548,11.2548,11.2548,11.2548,11.2548,11.2548,11.2548,11.2548,11.2548,11.2548,11.2548,11.2548,11.2548,11.2548,11.2548,11.2548,11.2548,11.2548,11.2548,11.2548,11.2548,11.2548,11.2548,11.2548,11.2548,11.2548,11.2548,11.3695,11.3487,11.3817,11.3527,11.2889,11.3151,11.3521,11.3824,11.369,11.3005,11.2026,11.2061,11.2812,11.4083,11.4071,11.4845,11.6075,11.611,11.6081,11.6116,11.611,11.6075,11.6075,11.6317,11.6248,11.6168,11.7598,11.8079,11.7614,11.817,11.8566,11.8386,11.7679,11.6863,11.6077,11.5375,11.4926,11.4685,11.5471,11.5586,11.4967,11.4569,11.436,11.4259,11.3656,11.3244,11.2984,11.1492,11.0723,11.0799,10.9493,10.8186,10.7044,10.7004,10.6112,10.4144,10.4516,10.4706,10.4317,10.4445,10.5446,10.7296,10.7571,10.7342,10.6807,10.6716,10.7342,10.8862,10.975,11.0604,11.1579,11.2254,11.2423,11.222,11.1495,11.0934,11.0837,11.0244,10.9784,10.9684,11.0299,11.0825,11.0907,11.1699,11.229,11.2378,11.2527,11.266,11.2621,11.2481,11.2441,11.2595,11.2619,11.2592,11.2557,11.2548,11.2548,11.2548,11.2548,11.2548,11.2548,11.2548,11.2548,11.2548,11.2548,11.2548,11.2548,11.2548,11.2548,11.2548,11.2548,11.2548,11.2548,11.2004,11.1774,11.2782,11.3241,11.3729,11.4149,11.4499,11.4762,11.509,11.5285,11.3242,0.0,0.0,11.2492,11.2755,11.301,11.2999,11.3141,11.3391,11.3427,11.3432,11.3421,11.3451,11.3421,11.3492,11.4752,11.523,11.503,11.6533,11.7145,11.6818,11.671,11.719,11.7984,11.7727,11.7687,11.7962,11.7201,11.7014,11.7444,11.7102,11.6725,11.63,11.6002,11.562,11.5074,11.4645,11.3716,11.2206,11.1864,11.1165,11.0099,10.8875,10.7531,10.6081,10.5394,10.4544,10.3489,10.4179,10.4857,10.54,10.5682,10.6086,10.6674,10.6935,10.673,10.6034,10.5757,10.6293,10.782,10.7917,10.7884,10.791,10.7877,10.8107,10.8727,10.826,10.8586,11.0011,10.9746,10.9458,11.0201,11.0015,11.0033,10.9999,11.0931,11.1582,11.1689,11.2254,11.303,11.2908,11.219,11.1896,11.264,11.267,11.2777,11.2579,11.241,11.2548,11.2344,11.2392,11.2548,11.2548,11.2548,11.2548,11.2276,11.2515,11.2408,11.2473,11.2342,11.2548,11.2548,11.2548,11.2548,11.2342,11.0696,10.9242,11.2973,11.2887,11.3394,11.3441,0.0,11.3497,11.2977,11.1832,11.0554,11.007,11.0197,11.0349,11.0398,11.0398,11.0398,11.0815,11.1559,11.1595,11.2023,11.2712,11.2712,11.2712,11.2783,11.3545,11.384,11.3791,11.5287,11.5959,11.5883,11.6359,11.6915,11.7451,11.7111,11.705,11.7376,11.7233,11.7119,11.6892,11.7126,11.7048,11.6707,11.6262,11.5836,11.5333,11.4084,0.0,0.0,0.0,0.0,0.0,0.0,0.0,0.0,0.0,0.0,10.187,10.2513,10.2593,10.161,10.1812,10.2045,10.2208,10.3186,10.2953,10.1152,10.1647,10.2359,10.3122,10.376,10.4053,10.3845,10.51,10.5985,10.6207,10.6563,10.6973,10.7519,10.7266,10.7005,10.7148,10.8004,10.8512,10.8326,10.979,11.0861,11.0839,11.1223,11.1687,11.2285,11.1631,11.1153,11.1731,11.1664,11.1294,11.0963,11.0782,11.0628,11.0668,11.053,11.0417,11.0408,11.04,11.04,11.0375,11.0408,11.0358,11.0367,11.0417,11.0375,11.0375,11.0375,11.0454,11.0718,10.9737,10.8754,11.2158,11.1542,11.2064,11.1727,11.0871,11.1116,11.0032,10.8084,10.8084,10.8084,10.8084,10.8084,10.8084,10.8084,10.8084,10.8787,10.9937,10.9948,11.0656,11.1861,11.185,11.185,11.185,11.2141,11.2314,11.2374,11.3867,11.4634,11.467,11.5709,11.6357,11.6623,11.6239,11.6142,11.6415,0.0,0.0,0.0,11.6539,11.6925,11.6708,11.6115,11.5713,11.532,11.3554,0.0,11.1133,10.9665,10.8177,10.6717,10.5294,0.0,0.0,0.0,0.0,0.0,0.0,0.0,0.0,0.0,0.0,0.0,9.7719,9.7084,9.4908,9.6294,9.7631,9.8252,9.9444,10.022,10.0344,10.2605,10.3841,10.3509,10.4282,10.4725,10.4261,10.3893,10.3715,10.355,10.5214,10.6407,10.6459,10.8542,11.0019,10.9806,11.0088,11.0596,11.1341,11.0668,11.0416,11.0855,11.0856,11.0211,10.9567,10.9362,10.9336,10.8988,10.8728,10.8574,10.8648,10.8598,10.8524,10.8598,10.8466,10.8524,10.8566,10.845,10.8681,10.845,10.8524,10.8488,10.8582,10.8613,10.8638,10.774,10.7675,10.8216,10.8304,10.8177,10.849,10.8387,10.8084,10.8084,10.8084,10.8084,10.8084,10.8084,10.8084,10.8084,10.8191,10.837,10.8359,10.8512,10.8685,10.8691,10.8685,10.8732,11.0096,11.0722,11.0752,11.2303,11.3027,11.3063,11.3178,11.397,11.526,11.5274,11.5781,11.6789,11.5639,11.4935,11.4829,11.5837,11.6361,11.6288,11.6032,11.5566,11.4988,11.4356,11.2556,10.951,10.9151,10.7786,10.5249,10.3678,10.2358,10.1137,9.9776,9.7905,0.0,9.5535,0.0,0.0,0.0,0.0,0.0,0.0,0.0,0.0,9.0804,9.36,9.6294,9.6854,9.7579,9.8885,9.9149,9.9237,9.916,9.9081,9.9481,10.0422,10.0158,10.0777,10.319,10.3025,10.3255,10.4566,10.7053,10.8645,10.8514,11.0012,11.0781,10.9769,10.9021,10.9501,11.2009,11.2071,11.0771,11.0109,10.9744,10.9423,10.9507,10.8971,10.9105,10.8774,10.884,10.8964,10.8931,10.8674,10.8807,10.9097,10.8973,10.8964,10.8766,10.8716,10.8255,10.6854,10.6421,10.6385,10.7328,10.7356,10.7745,10.5886,10.2746,10.2844,10.2905,10.29,10.289,10.2905,10.289,10.2905,10.2895,10.2895,10.2905,10.3404,10.4149,10.42,10.5153,10.6753,10.6789,10.7222,10.8089,10.8787,10.9144,10.9138,10.9827,11.0148,11.0178,11.0154,11.0535,11.1197,11.2072,11.2348,11.202,11.1356,11.1458,11.2307,11.2796,11.3787,11.5276,11.5108,11.4799,11.4316,11.25,11.0657,10.8989,10.8126,10.6257,10.331,10.253,10.0823,9.7839,9.6997,9.5016,0.0,0.0,0.0,0.0,0.0,0.0,0.0,0.0,0.0,0.0,0.0,8.8619,9.0822,9.1879,9.2727,9.3404,9.4131,9.4604,9.4599,9.5256,9.6242,9.7613,9.7538,9.8128,9.9964,10.0607,10.137,10.264,10.4601,10.6033,10.6536,10.739,10.7883,10.7597,10.7362,10.7518,10.8568,10.8358,10.7822,10.7301,10.6532,10.5952,10.5655,10.5362,10.5069,10.4956,10.4891,10.4958,10.4958,10.494,10.4917,10.4932,10.4932,10.5233,10.5817,10.6112,10.5755,10.4868,10.4727,10.4818,10.555,10.5506,10.4932,10.1972,9.76,9.7605,9.7595,9.76,9.7564,9.761,9.7605,9.7559,9.7595,9.7564,9.7605,9.843,9.9948,9.9953,10.1447,10.3996,10.4062,10.4714,10.5826,10.6223,10.6402,10.6448,10.6794,10.6962,10.6973,10.7329,10.7508,10.7549,10.795,10.7777,10.7008,10.736,10.8287,10.9836,10.9846,11.1102,11.3546,11.3461,11.3072,11.2439,11.011,10.8403,10.7405,10.623,10.4209,10.1204,10.0263,9.8147,9.4512,9.3583,0.0,0.0,0.0,0.0,0.0,0.0,0.0,0.0,0.0,7.7826,7.8218,0.0,8.3387,0.0,8.6443,8.7866,8.8584,8.9734,0.0,0.0,9.203,9.3218,9.4314,9.4389,9.4975,9.6482,9.7621,9.8898,10.0438,10.1974,10.3152,10.3576,10.3333,10.3739,10.5354,10.5422,10.5416,10.5976,10.5826,10.5186,10.5007,10.4136,10.3646,10.2857,10.2572,10.2218,10.2016,10.193,10.1872,10.1857,10.1891,10.1905,10.2047,10.1872,10.2161,10.2238,10.2377,10.2461,10.2918,10.344,10.3747,9.944,9.9185,9.6275,9.4751,9.4278,9.4282,9.4251,9.4282,9.4278,9.4287,9.4237,9.4247,9.4273,9.4242,9.4278,0.0,9.6792,9.6818,9.7674,9.9317,9.9312,9.9388,9.9567,10.1009,10.163,10.1697,10.3093,10.3802,10.3837,10.5209,10.5922,10.5856,10.318,10.2462,10.3791,10.5203,10.6677,10.8227,10.8257,10.9062,11.073,11.0702,10.9885,10.8276,10.795,10.6367,10.333,10.3031,10.1604,9.8724,9.5653,9.3289,9.169,0.0,0.0,0.0,0.0,0.0,0.0,0.0,0.0,0.0,0.0,0.0,0.0,0.0,0.0,7.8285,8.1028,0.0,8.6827,8.7211,0.0,0.0,0.0,8.9654,8.9743,8.9666,9.0703,9.3679,0.0,0.0,9.7879,9.9638,10.0162,9.9058,9.8861,9.9865,10.2556,10.2938,10.3866,10.6086,10.6623,10.6454,10.5376,10.5152,10.4558,10.3774,10.3779,10.3147,10.3025,10.2936,10.2955,10.2703,10.3009,10.2907,10.3016,10.2717,10.2177,9.9385,9.8865,9.9311,10.0793,10.2096,10.2902,9.3569,9.006,8.8815,8.8267,8.8267,8.8267,8.8236,8.8236,8.8267,8.824,8.8267,8.8276,8.8276,8.8271,8.828,0.0,0.0,0.0,9.2035,9.4442,9.5393,9.6366,9.7415,9.8944,9.9653,9.9674,10.0306,10.0596,10.0622,10.1238,10.0061,9.7305,0.0,0.0,9.9235,10.0754,10.2772,10.5127,10.5239,10.6488,10.893,10.899,10.8642,10.7909,10.6105,10.448,10.3109,10.0415,9.7888,9.5728,9.2553,8.9763,0.0,0.0,0.0,0.0,0.0,0.0,0.0,0.0,0.0,0.0,0.0,6.6487,6.7107,0.0,0.0,0.0,7.5331,7.7864,8.0957,8.2114,0.0,0.0,0.0,0.0,0.0,0.0,0.0,8.9324,9.0337,9.2004,9.5018,9.4409,9.4162,9.5473,9.5661,9.6767,9.9851,0.0,10.0608,10.1596,10.1737,10.1614,10.1268,10.0962,10.0699,10.0339,9.9826,9.9455,9.9094,9.8935,9.8858,9.8768,9.8759,9.8765,9.8765,9.9196,9.9088,9.7932,9.7765,9.8086,9.8731,9.9483,9.9968,8.663,0.0,0.0,0.0,0.0,8.1889,8.1889,8.1893,8.1897,8.1889,8.1889,8.1881,0.0,0.0,0.0,0.0,0.0,0.0,8.6568,8.9569,9.1174,9.2544,9.3744,9.5295,9.6035,9.5995,9.5999,9.5999,9.5964,9.5112,9.3172,9.034,0.0,0.0,0.0,0.0,9.8925,10.187,10.2518,10.4026,10.6677,10.6753,10.6962,10.7395,10.4352,10.209,10.0724,9.7472,9.452,9.1964,8.8896,0.0,0.0,0.0,0.0,0.0,0.0,0.0,0.0,0.0,0.0,0.0,0.0,0.0,0.0,0.0,0.0,0.0,0.0,0.0,7.4638,7.666,7.8087,0.0,0.0,0.0,0.0,0.0,0.0,0.0,0.0,0.0,9.0862,8.9261,8.9052,0.0,0.0,9.4202,9.6958,9.7783,9.8167,9.8411,9.8463,0.0,9.8227,9.7997,9.7806,9.7806,9.7424,9.7026,9.6559,9.6406,9.6311,9.6303,9.621,9.5606,9.4282,9.4305,9.4719,9.4878,9.4991,9.5113,9.5214,9.5709,9.622,0.0,0.0,0.0,0.0,0.0,0.0,0.0,0.0,7.5522,7.5483,0.0,7.5519,0.0,0.0,0.0,0.0,7.9997,8.0029,0.0,0.0,8.6359,8.7131,8.7322,8.8865,8.9547,8.952,8.9587,8.9542,8.9297,8.6456,0.0,0.0,0.0,0.0,0.0,0.0,9.5638,9.8808,10.0336,10.1926,10.3481,10.3583,10.4235,10.5601,10.2757,9.9011,9.4532,9.4059,9.1852,8.7326,8.4116,0.0,0.0,0.0,0.0,0.0,0.0,0.0,0.0,0.0,0.0,0.0,0.0,0.0,0.0,0.0,0.0,0.0,0.0,0.0,0.0,7.1174,0.0,0.0,0.0,0.0,0.0,0.0,0.0,0.0,0.0,8.4703,8.4823,8.4743,8.5849,8.8949,0.0,0.0,0.0,0.0,9.6982,9.8385,9.8691,9.8665,9.8615,9.8437,9.8231,9.8241,0.0,0.0,9.7475,9.7238,9.6937,9.7083,9.6804,9.5381,8.991,8.906,8.9132,8.9354,8.9467,8.938,8.9565,9.0879,9.2213,0.0,0.0,0.0,0.0,0.0,0.0,0.0,0.0,0.0,6.9033,6.8994,6.8987,0.0,0.0,0.0,0.0,0.0,0.0,0.0,0.0,8.1111,8.232,8.2427,8.4953,8.617,0.0,8.617,8.4065,0.0,0.0,0.0,0.0,0.0,0.0,0.0,0.0,9.2401,9.5495,9.7196,9.8802,10.0275,10.0347,10.0637,10.1131,10.0102,9.7778,9.3997,9.0951,8.7639,0.0,0.0,0.0,0.0,0.0,0.0,0.0,0.0,0.0,0.0,0.0,0.0,0.0,0.0,0.0,0.0,0.0,0.0,0.0,0.0,0.0,0.0,0.0,6.77,0.0,0.0,0.0,0.0,0.0,0.0,0.0,0.0,0.0,7.8598,7.932,8.1536,8.5627,8.6626,8.7946,9.047,0.0,0.0,0.0,0.0,0.0,0.0,0.0,9.3915,9.3915,9.3004,9.2213,9.2128,9.1957,9.1805,9.1609,0.0,0.0,8.6694,8.5946,8.5968,8.6103,8.6112,8.6129,8.6166,8.7393,8.8646,0.0,0.0,0.0,0.0,0.0,0.0,0.0,0.0,0.0,6.319,6.2719,0.0,0.0,0.0,0.0,0.0,0.0,0.0,0.0,0.0,0.0,0.0,7.6906,7.995,0.0,0.0,0.0,0.0,0.0,0.0,0.0,0.0,0.0,0.0,0.0,0.0,8.9997,9.306,9.5274,9.6915,9.7931,9.8506,9.8787,9.8711,9.8221,9.6687,9.3926,0.0,0.0,0.0,0.0,0.0,0.0,0.0,0.0,0.0,0.0,0.0,0.0,0.0,0.0,0.0,0.0,0.0,0.0,0.0,0.0,0.0,0.0,0.0,0.0,0.0,6.3426,0.0,0.0,0.0,0.0,0.0,0.0,0.0,0.0,0.0,0.0,0.0,7.8138,8.1758,8.3574,8.5323,8.7379,8.8548,8.9235,0.0,0.0,0.0,0.0,0.0,0.0,0.0,0.0,0.0,0.0,0.0,0.0,0.0,0.0,8.3576,8.176,8.1425,8.1429,8.1456,0.0,0.0,0.0,0.0,0.0,0.0,0.0,0.0,0.0,0.0,0.0,0.0,0.0,0.0,0.0,5.6737,0.0,0.0,5.6917,0.0,0.0,0.0,0.0,0.0,0.0,0.0,0.0,0.0,0.0,0.0,0.0,0.0,0.0,0.0,0.0,0.0,0.0,0.0,0.0,0.0,0.0,8.8272,9.1437,9.4551,9.6283,9.6394,9.7833,9.8573,9.8532,9.7134,9.5528,9.3819,0.0,0.0,0.0,0.0,0.0,0.0,0.0,0.0,0.0,0.0,0.0,0.0,0.0,0.0,0.0,0.0,0.0,0.0,0.0,0.0,0.0,0.0,0.0,0.0,0.0,0.0,6.1024,6.2359,6.3377,0.0,0.0,0.0,0.0,0.0,0.0,0.0,0.0,0.0,7.7404,8.1477,8.4355,8.447,8.7102,8.8842,8.8945,8.9087,8.919,8.9199,8.9123,8.9128,0.0,0.0,0.0,0.0,0.0,0.0,0.0,0.0,0.0,0.0,0.0,0.0,0.0,0.0,0.0,0.0,0.0,0.0,0.0,0.0,0.0,0.0,0.0,0.0,0.0,0.0,0.0,0.0,0.0,0.0,0.0,0.0,0.0,0.0,0.0,0.0,0.0,0.0,0.0,0.0,0.0,0.0,0.0,0.0,0.0,0.0,0.0,0.0,0.0,0.0,0.0,0.0,0.0,0.0,8.4059,8.8281,9.1415,9.3533,9.4648,9.5072,9.5312,9.5312,9.3809,9.2779,0.0,0.0,0.0,0.0,0.0,0.0,0.0,0.0,0.0,0.0,0.0,0.0,0.0,0.0,0.0,0.0,0.0,0.0,0.0,0.0,0.0,0.0,0.0,0.0,0.0,0.0,0.0,0.0,5.9166,6.0536,6.1619,0.0,0.0,0.0,0.0,0.0,0.0,0.0,0.0,0.0,0.0,7.8874,8.0985,8.3014,8.4307,8.4307,8.6149,8.7576,8.7616,8.6657,8.5965,8.5961,0.0,0.0,0.0,0.0,0.0,0.0,0.0,0.0,0.0,0.0,0.0,0.0,0.0,0.0,0.0,0.0,0.0,0.0,0.0,0.0,0.0,0.0,0.0,0.0,0.0,0.0,0.0,0.0,0.0,0.0,0.0,0.0,0.0,0.0,0.0,0.0,0.0,0.0,0.0,0.0,0.0,0.0,0.0,0.0,0.0,0.0,0.0,0.0,0.0,0.0,0.0,0.0,0.0,8.2173,8.681,8.9948,9.2342,9.3814,9.3921,9.3921,9.3921,9.2383,9.1018,0.0,0.0,0.0,0.0,0.0,0.0,0.0,0.0,0.0,0.0,0.0,0.0,0.0,0.0,0.0,0.0,0.0,0.0,0.0,0.0,0.0,0.0,0.0,0.0,0.0,0.0,0.0,0.0,5.6108,5.7453,5.8391,0.0,0.0,0.0,0.0,0.0,0.0,0.0,0.0,0.0,0.0,7.6087,7.7918,8.0009,0.0,0.0,8.2966,8.4174,8.4214,8.3402,8.2567,8.1968,8.0275,0.0,0.0,0.0,0.0,0.0,0.0,0.0,0.0,0.0,0.0,0.0,0.0,0.0,0.0,0.0,0.0,0.0,0.0,0.0,0.0,0.0,0.0,0.0,0.0,0.0,0.0,0.0,0.0,0.0,0.0,0.0,0.0,0.0,0.0,0.0,0.0,0.0,0.0,0.0,0.0,0.0,0.0,0.0,0.0,0.0,0.0,0.0,0.0,0.0,0.0,0.0,0.0,8.1919,8.6631,8.9801,9.2195,9.3845,9.3921,9.3921,9.389,9.2276,8.9984,0.0,0.0,0.0,0.0,0.0,0.0,0.0,0.0,0.0,0.0,0.0,0.0,0.0,0.0,0.0,0.0,0.0,0.0,0.0,0.0,0.0,0.0,0.0,0.0,0.0,0.0,0.0,0.0,0.0,0.0,0.0,0.0,0.0,0.0,0.0,0.0,0.0,0.0,0.0,0.0,0.0,7.4893,7.5083,7.7672,7.9562,0.0,7.9672,7.9752,7.9744,7.9573,7.8947,7.7496,0.0,0.0,0.0,0.0,0.0,0.0,0.0,0.0,0.0,0.0,0.0,0.0,0.0,0.0,0.0,0.0,0.0,0.0,0.0,0.0,0.0,0.0,0.0,0.0,0.0,0.0,0.0,0.0,0.0,0.0,0.0,0.0,0.0,0.0,0.0,0.0,0.0,0.0,0.0,0.0,0.0,0.0,0.0,0.0,0.0,0.0,0.0,0.0,0.0,0.0,0.0,0.0,0.0,0.0,8.506,8.8227,9.1112,9.3774,9.3921,9.3921,9.385,9.125,0.0,0.0,0.0,0.0,0.0,0.0,0.0,0.0,0.0,0.0,0.0,0.0,0.0,0.0,0.0,0.0,0.0,0.0,0.0,0.0,0.0,0.0,0.0,0.0,0.0,0.0,0.0,5.0204,0.0,0.0,0.0,0.0,0.0,0.0,0.0,0.0,0.0,0.0,0.0,0.0,0.0,0.0,6.9402,7.1622,7.4473,7.6403,0.0,0.0,7.813,7.8166,7.6176,7.4503,0.0,0.0,0.0,0.0,0.0,0.0,0.0,0.0,0.0,0.0,0.0,0.0,0.0,0.0,0.0,0.0,0.0,0.0,0.0,0.0,0.0,0.0,0.0,0.0,0.0,0.0,0.0,0.0,0.0,0.0,0.0,0.0,0.0,0.0,0.0,0.0,0.0,0.0,0.0,0.0,0.0,0.0,0.0,0.0,0.0,0.0,0.0,0.0,0.0,0.0,0.0,0.0,0.0,0.0,7.8305,8.4426,8.7625,9.0751,9.3743,9.3921,9.3564,9.2887,9.0506,8.7549,0.0,0.0,0.0,0.0,0.0,0.0,0.0,0.0,0.0,0.0,0.0,0.0,0.0,0.0,0.0,0.0,0.0,0.0,0.0,0.0,0.0,0.0,0.0,0.0,0.0,0.0,0.0,0.0,0.0,0.0,0.0,0.0,0.0,0.0,0.0,0.0,0.0,0.0,0.0,0.0,0.0,0.0,6.8571,7.1435,0.0,0.0,0.0,7.4619,7.4538,0.0,0.0,0.0,0.0,0.0,0.0,0.0,0.0,0.0,0.0,0.0,0.0,0.0,0.0,0.0,0.0,0.0,0.0,0.0,0.0,0.0,0.0,0.0,0.0,0.0,0.0,0.0,0.0,0.0,0.0,0.0,0.0,0.0,0.0,0.0,0.0,0.0,0.0,0.0,0.0,0.0,0.0,0.0,0.0,0.0,0.0,0.0,0.0,0.0,0.0,0.0,0.0,0.0,0.0,0.0,0.0,0.0,8.4145,8.7513,9.072,9.3707,9.3921,9.3163,9.162,8.989,8.6078,0.0,0.0,0.0,0.0,0.0,0.0,0.0,0.0,0.0,0.0,0.0,0.0,0.0,0.0,0.0,0.0,0.0,0.0,0.0,0.0,0.0,0.0,0.0,0.0,0.0,0.0,0.0,0.0,0.0,0.0,0.0,0.0,0.0,0.0,0.0,0.0,0.0,0.0,0.0,0.0,0.0,6.5878,6.5809,6.8317,7.0143,0.0,0.0,6.9903,6.9759,6.8365,0.0,0.0,0.0,0.0,0.0,0.0,0.0,0.0,0.0,0.0,0.0,0.0,0.0,0.0,0.0,0.0,0.0,0.0,0.0,0.0,0.0,0.0,0.0,0.0,0.0,0.0,0.0,0.0,0.0,0.0,0.0,0.0,0.0,0.0,0.0,0.0,0.0,0.0,0.0,0.0,0.0,0.0,0.0,0.0,0.0,0.0,0.0,0.0,0.0,0.0,0.0,0.0,0.0,0.0,0.0,0.0,8.2598,8.7014,9.0764,9.3702,9.3921,9.3163,9.1575,8.8842,8.503,0.0,0.0,0.0,0.0,0.0,0.0,0.0,0.0,0.0,0.0,0.0,0.0,0.0,0.0,0.0,0.0,0.0,0.0,0.0,0.0,0.0,0.0,0.0,0.0,0.0,0.0,0.0,0.0,0.0,0.0,0.0,0.0,0.0,0.0,0.0,0.0,0.0,0.0,0.0,0.0,0.0,6.162,6.2751,6.4325,0.0,0.0,0.0,0.0,6.4995,6.3638,0.0,0.0,0.0,0.0,0.0,0.0,0.0,0.0,0.0,0.0,0.0,0.0,0.0,0.0,0.0,0.0,0.0,0.0,0.0,0.0,0.0,0.0,0.0,0.0,0.0,0.0,0.0,0.0,0.0,0.0,0.0,0.0,0.0,0.0,0.0,0.0,0.0,0.0,0.0,0.0,0.0,0.0,0.0,0.0,0.0,0.0,0.0,0.0,0.0,0.0,0.0,0.0,0.0,0.0,0.0,0.0,8.0972,8.5752,8.964,9.2668,9.3488,9.2789,9.0492,8.8129,8.4,0.0,0.0,0.0,0.0,0.0,0.0,0.0,0.0,0.0,0.0,0.0,0.0,0.0,0.0,0.0,0.0,0.0,0.0,0.0,0.0,0.0,0.0,0.0,0.0,0.0,0.0,0.0,0.0,0.0,0.0,0.0,0.0,0.0,0.0,0.0,0.0,0.0,0.0,0.0,0.0,5.9818,6.0353,6.0925,0.0,0.0,0.0,0.0,0.0,0.0,6.1322,6.0228,0.0,0.0,0.0,0.0,0.0,0.0,0.0,0.0,0.0,0.0,0.0,0.0,0.0,0.0,0.0,0.0,0.0,0.0,0.0,0.0,0.0,0.0,0.0,0.0,0.0,0.0,0.0,0.0,0.0,0.0,0.0,0.0,0.0,0.0,0.0,0.0,0.0,0.0,0.0,0.0,0.0,0.0,0.0,0.0,0.0,0.0,0.0,0.0,0.0,0.0,0.0,0.0,0.0,0.0,0.0,7.9462,8.4388,8.8388,9.1477,9.3091,9.2427,8.9333,8.7473,8.2836,7.5173,0.0,0.0,0.0,0.0,0.0,0.0,0.0,0.0,0.0,0.0,0.0,0.0,0.0,0.0,0.0,0.0,0.0,0.0,0.0,0.0,0.0,0.0,0.0,0.0,0.0,0.0,0.0,0.0,0.0,0.0,0.0,0.0,0.0,0.0,0.0,0.0,0.0,0.0,0.0,5.8641,5.964,0.0,0.0,0.0,0.0,0.0,0.0,0.0,0.0,5.8705,0.0,0.0,0.0,0.0,0.0,0.0,0.0,0.0,0.0,0.0,0.0,0.0,0.0,0.0,0.0,0.0,0.0,0.0,0.0,0.0,0.0,0.0,0.0,0.0,0.0,0.0,0.0,0.0,0.0,0.0,0.0,0.0,0.0,0.0,0.0,0.0,0.0,0.0,0.0,0.0,0.0,0.0,0.0,0.0,0.0,0.0,0.0,0.0,0.0,0.0,0.0,0.0,0.0,0.0,0.0,0.0,8.3826,8.841,9.1468,9.3096,9.2361,8.9266,8.6452,8.1254,7.3557,0.0,0.0,0.0,0.0,0.0,0.0,0.0,0.0,0.0,0.0,0.0,0.0,0.0,0.0,0.0,0.0,0.0,0.0,0.0,0.0,0.0,0.0,0.0,0.0,0.0,0.0,0.0,0.0,0.0,0.0,0.0,0.0,0.0,0.0,0.0,0.0,0.0,0.0,5.2539,5.4947,0.0,0.0,0.0,0.0,0.0,0.0,0.0,0.0,5.7807,0.0,0.0,0.0,0.0,0.0,0.0,0.0,0.0,0.0,0.0,0.0,0.0,0.0,0.0,0.0,0.0,0.0,0.0,0.0,0.0,0.0,0.0,0.0,0.0,0.0,0.0,0.0,0.0,0.0,0.0,0.0,0.0,0.0,0.0,0.0,0.0,0.0,0.0,0.0,0.0,0.0,0.0,0.0,0.0,0.0,0.0,0.0,0.0,0.0,0.0,0.0,0.0,0.0,0.0,0.0,0.0,0.0,0.0,8.6323,9.0211,9.2632,9.2387,8.9306,8.6243,8.1005,0.0,0.0,0.0,0.0,0.0,0.0,0.0,0.0,0.0,0.0,0.0,0.0,0.0,0.0,0.0,0.0,0.0,0.0,0.0,0.0,0.0,0.0,0.0,0.0,0.0,0.0,0.0,0.0,0.0,0.0,0.0,0.0,0.0,0.0,0.0,0.0,0.0,0.0,0.0,0.0,0.0,0.0,0.0,0.0,0.0,0.0,0.0,0.0,0.0,0.0,0.0,0.0,0.0,0.0,0.0,0.0,0.0,0.0,0.0,0.0,0.0,0.0,0.0,0.0,0.0,0.0,0.0,0.0,0.0,0.0,0.0,0.0,0.0,0.0,0.0,0.0,0.0,0.0,0.0,0.0,0.0,0.0,0.0,0.0,0.0,0.0,0.0,0.0,0.0,0.0,0.0,0.0,0.0,0.0,0.0,0.0,0.0,0.0,0.0,0.0,0.0,0.0,0.0,0.0,0.0,0.0,0.0,0.0,8.4064,8.8676,9.1849,9.2112,8.9306,8.6062,8.0642,0.0,0.0,0.0,0.0,0.0,0.0,0.0,0.0,0.0,0.0,0.0,0.0,0.0,0.0,0.0,0.0,0.0,0.0,0.0,0.0,0.0,0.0,0.0,0.0,0.0,0.0,0.0,0.0,0.0,0.0,0.0,0.0,0.0,0.0,0.0,0.0,0.0,0.0,0.0,0.0,0.0,0.0,0.0,0.0,0.0,0.0,0.0,0.0,5.5219,0.0,0.0,0.0,0.0,0.0,0.0,0.0,0.0,0.0,0.0,0.0,0.0,0.0,0.0,0.0,0.0,0.0,0.0,0.0,0.0,0.0,0.0,0.0,0.0,0.0,0.0,0.0,0.0,0.0,0.0,0.0,0.0,0.0,0.0,0.0,0.0,0.0,0.0,0.0,0.0,0.0,0.0,0.0,0.0,0.0,0.0,0.0,0.0,0.0,0.0,0.0,0.0,0.0,0.0,0.0,0.0,0.0,0.0,0.0,8.2722,8.7209,9.0446,9.1211,8.9181,8.5172,7.9288,0.0,0.0,0.0,0.0,0.0,0.0,0.0,0.0,0.0,0.0,0.0,0.0,0.0,0.0,0.0,0.0,0.0,0.0,0.0,0.0,0.0,0.0,0.0,0.0,0.0,0.0,0.0,0.0,0.0,0.0,0.0,0.0,0.0,0.0,0.0,0.0,0.0,0.0,0.0,0.0,0.0,0.0,0.0,0.0,0.0,0.0,0.0,0.0,0.0,0.0,0.0,0.0,0.0,0.0,0.0,0.0,0.0,0.0,0.0,0.0,0.0,0.0,0.0,0.0,0.0,0.0,0.0,0.0,0.0,0.0,0.0,0.0,0.0,0.0,0.0,0.0,0.0,0.0,0.0,0.0,0.0,0.0,0.0,0.0,0.0,0.0,0.0,0.0,0.0,0.0,0.0,0.0,0.0,0.0,0.0,0.0,0.0,0.0,0.0,0.0,0.0,0.0,0.0,0.0,0.0,0.0,0.0,0.0,7.9476,8.5846,8.9087,8.9534,8.7123,8.4589,7.9054,0.0,0.0,0.0,0.0,0.0,0.0,0.0,0.0,0.0,0.0,0.0,0.0,0.0,0.0,0.0,0.0,0.0,0.0,0.0,0.0,0.0,0.0,0.0,0.0,0.0,0.0,0.0,0.0,0.0,0.0,0.0,0.0,0.0,0.0,0.0,0.0,0.0,0.0,0.0,0.0,0.0,0.0,0.0,0.0,0.0,0.0,0.0,0.0,0.0,0.0,0.0,0.0,0.0,0.0,0.0,0.0,0.0,0.0,0.0,0.0,0.0,0.0,0.0,0.0,0.0,0.0,0.0,0.0,0.0,0.0,0.0,0.0,0.0,0.0,0.0,0.0,0.0,0.0,0.0,0.0,0.0,0.0,0.0,0.0,0.0,0.0,0.0,0.0,0.0,0.0,0.0,0.0,0.0,0.0,0.0,0.0,0.0,0.0,0.0,0.0,0.0,0.0,0.0,0.0,0.0,0.0,0.0,0.0,0.0,8.3779,8.5971,8.6208,8.4579,8.2351,7.7201,0.0,0.0,0.0,0.0,0.0,0.0,0.0,0.0,0.0,0.0,0.0,0.0,0.0,0.0,0.0,0.0,0.0,0.0,0.0,0.0,0.0,0.0,0.0,0.0,0.0,0.0,0.0,0.0,0.0,0.0,0.0,0.0,0.0,0.0,0.0,0.0,0.0,0.0,0.0,0.0,0.0,0.0,0.0,0.0,0.0,0.0,0.0,0.0,0.0,0.0,0.0,0.0,0.0,0.0,0.0,0.0,0.0,0.0,0.0,0.0,0.0,0.0,0.0,0.0,0.0,0.0,0.0,0.0,0.0,0.0,0.0,0.0,0.0,0.0,0.0,0.0,0.0,0.0,0.0,0.0,0.0,0.0,0.0,0.0,0.0,0.0,0.0,0.0,0.0,0.0,0.0,0.0,0.0,0.0,0.0,0.0,0.0,0.0,0.0,0.0,0.0,0.0,0.0,0.0,0.0,0.0,0.0,0.0,0.0,8.1175,8.0268,8.0395,8.1656,7.7397,7.2566,0.0,0.0,0.0,0.0,0.0,0.0,0.0,0.0,0.0,0.0,0.0,0.0,0.0,0.0,0.0,0.0,0.0,0.0,0.0,0.0,0.0,0.0,0.0,0.0,0.0,0.0,0.0,0.0,0.0,0.0,0.0,0.0,0.0,0.0,0.0,0.0,0.0,0.0,0.0,0.0,0.0,0.0,0.0,0.0,0.0,0.0,0.0,0.0,0.0,0.0,0.0,0.0,0.0,0.0,0.0,0.0,0.0,0.0,0.0,0.0,0.0,0.0,0.0,0.0,0.0,0.0,0.0,0.0,0.0,0.0,0.0,0.0,0.0,0.0,0.0,0.0,0.0,0.0,0.0,0.0,0.0,0.0,0.0,0.0,0.0,0.0,0.0,0.0,0.0,0.0,0.0,0.0,0.0,0.0,0.0,0.0,0.0,0.0,0.0,0.0,0.0,0.0,0.0,0.0,0.0,0.0,0.0,0.0,0.0,7.4325,7.5832,7.6405,7.6038,7.4363,7.0184,6.3232,0.0,0.0,0.0,0.0,0.0,0.0,0.0,0.0,0.0,0.0,0.0,0.0,0.0,0.0,0.0,0.0,0.0,0.0,0.0,0.0,0.0,0.0,0.0,0.0,0.0,0.0,0.0,0.0,0.0,0.0,0.0,0.0,0.0,0.0,0.0,0.0,0.0,0.0,0.0,0.0,0.0,0.0,0.0,0.0,0.0,0.0,0.0,0.0,0.0,0.0,0.0,0.0,0.0,0.0,0.0,0.0,0.0,0.0,0.0,0.0,0.0,0.0,0.0,0.0,0.0,0.0,0.0,0.0,0.0,0.0,0.0,0.0,0.0,0.0,0.0,0.0,0.0,0.0,0.0,0.0,0.0,0.0,0.0,0.0,0.0,0.0,0.0,0.0,0.0,0.0,0.0,0.0,0.0,0.0,0.0,0.0,0.0,0.0,0.0,0.0,0.0,0.0,0.0,0.0,0.0,0.0,0.0,0.0,6.8318,7.0896,7.1695,7.0651,7.0217,6.6815,0.0,0.0,0.0,0.0,0.0,0.0,0.0,0.0,0.0,0.0,0.0,0.0,0.0,0.0,0.0,0.0,0.0,0.0,0.0,0.0,0.0,0.0,0.0,0.0,0.0,0.0,0.0,0.0,0.0,0.0,0.0,0.0,0.0,0.0,0.0,0.0,0.0,0.0,0.0,0.0,0.0,0.0,0.0,0.0,0.0,0.0,0.0,0.0,0.0,0.0,0.0,0.0,0.0,0.0,0.0,0.0,0.0,0.0,0.0,0.0,0.0,0.0,0.0,0.0,0.0,0.0,0.0,0.0,0.0,0.0,0.0,0.0,0.0,0.0,0.0,0.0,0.0,0.0,0.0,0.0,0.0,0.0,0.0,0.0,0.0,0.0,0.0,0.0,0.0,0.0,0.0,0.0,0.0,0.0,0.0,0.0,0.0,0.0,0.0,0.0,0.0,0.0,0.0,0.0,0.0,0.0,0.0,0.0,5.8955,6.3449,6.5233,6.6157,6.5915,6.4554,6.2088,0.0,0.0,0.0,0.0,0.0,0.0,0.0,0.0,0.0,0.0,0.0,0.0,0.0,0.0,0.0,0.0,0.0,0.0,0.0,0.0,0.0,0.0,0.0,0.0,0.0,0.0,0.0,0.0,0.0,0.0,0.0,0.0,0.0,0.0,0.0,0.0,0.0,0.0,0.0,0.0,0.0,0.0,0.0,0.0,0.0,0.0,0.0,0.0,0.0,0.0,0.0,0.0,0.0,0.0,0.0,0.0,0.0,0.0,0.0,0.0,0.0,0.0,0.0,0.0,0.0,0.0,0.0,0.0,0.0,0.0,0.0,0.0,0.0,0.0,0.0,0.0,0.0,0.0,0.0,0.0,0.0,0.0,0.0,0.0,0.0,0.0,0.0,0.0,0.0,0.0,0.0,0.0,0.0,0.0,0.0,0.0,0.0,0.0,0.0,0.0,0.0,0.0,0.0,0.0,0.0,0.0,0.0,0.0,0.0,5.8784,0.0,6.2881,0.0,6.1271,5.8851,0.0,0.0,0.0,0.0,0.0,0.0,0.0,0.0,0.0,0.0,0.0,0.0,0.0,0.0,0.0,0.0,0.0,0.0,0.0,0.0,0.0,0.0,0.0,0.0,0.0,0.0,0.0,0.0,0.0,0.0,0.0,0.0,0.0,0.0,0.0,0.0,0.0,0.0,0.0,0.0,0.0,0.0,0.0,0.0,0.0,0.0,0.0,0.0,0.0,0.0,0.0,0.0,0.0,0.0,0.0,0.0,0.0,0.0,0.0,0.0,0.0,0.0,0.0,0.0,0.0,0.0,0.0,0.0,0.0,0.0,0.0,0.0,0.0,0.0,0.0,0.0,0.0,0.0,0.0,0.0,0.0,0.0,0.0,0.0,0.0,0.0,0.0,0.0,0.0,0.0,0.0,0.0,0.0,0.0,0.0,0.0,0.0,0.0,0.0,0.0,0.0,0.0,0.0,0.0,0.0,0.0,0.0,0.0,0.0,5.5767,5.829,5.9985,6.0503,5.8945,5.6777,0.0,0.0,0.0,0.0,0.0,0.0,0.0,0.0,0.0,0.0,0.0,0.0,0.0,0.0,0.0,0.0,0.0,0.0,0.0,0.0,0.0,0.0,0.0,0.0,0.0,0.0,0.0,0.0,0.0,0.0,0.0,0.0,0.0,0.0,0.0,0.0,0.0,0.0,0.0,0.0,0.0,0.0,0.0,0.0,0.0,0.0,0.0,0.0,0.0,0.0,0.0,0.0,0.0,0.0,0.0,0.0,0.0,0.0,0.0,0.0,0.0,0.0,0.0,0.0,0.0,0.0,0.0,0.0,0.0,0.0,0.0,0.0,0.0,0.0,0.0,0.0,0.0,0.0,0.0,0.0,0.0,0.0,0.0,0.0,0.0,0.0,0.0,0.0,0.0,0.0,0.0,0.0,0.0,0.0,0.0,0.0,0.0,0.0,0.0,0.0,0.0,0.0,0.0,0.0,0.0,0.0,0.0,0.0,0.0,5.4106,5.5753,5.7353,5.8872,5.7357,5.5657,0.0,0.0,0.0,0.0,0.0,0.0,0.0,0.0,0.0,0.0,0.0,0.0,0.0,0.0,0.0,0.0,0.0,0.0,0.0,0.0,0.0,0.0,0.0,0.0,0.0,0.0,0.0,0.0,0.0,0.0,0.0,0.0,0.0,0.0,0.0,0.0,0.0,0.0,0.0,0.0,0.0,0.0,0.0,0.0,0.0,0.0,0.0,0.0,0.0,0.0,0.0,0.0,0.0,0.0,0.0,0.0,0.0,0.0,0.0,0.0,0.0,0.0,0.0,0.0,0.0,0.0,0.0,0.0,0.0,0.0,0.0,0.0,0.0,0.0,0.0,0.0,0.0,0.0,0.0,0.0,0.0,0.0,0.0,0.0,0.0,0.0,0.0,0.0,0.0,0.0,0.0,0.0,0.0,0.0,0.0,0.0,0.0,0.0,0.0,0.0,0.0,0.0,0.0,0.0,0.0,0.0,0.0,0.0,0.0,0.0,5.5156,5.6802,5.7132,5.5717,5.4066,5.2403,0.0,0.0,0.0,0.0,0.0,0.0,0.0,0.0,0.0,0.0,0.0,0.0,0.0,0.0,0.0,0.0,0.0,0.0,0.0,0.0,0.0,0.0,0.0,0.0,0.0,0.0,0.0,0.0,0.0,0.0,0.0,0.0,0.0,0.0,0.0,0.0,0.0,0.0,0.0,0.0,0.0,0.0,0.0,0.0,0.0,0.0,0.0,0.0,0.0,0.0,0.0,0.0,0.0,0.0,0.0,0.0,0.0,0.0,0.0,0.0,0.0,0.0,0.0,0.0,0.0,0.0,0.0,0.0,0.0,0.0,0.0,0.0,0.0,0.0,0.0,0.0,0.0,0.0,0.0,0.0,0.0,0.0,0.0,0.0,0.0,0.0,0.0,0.0,0.0,0.0,0.0,0.0,0.0,0.0,0.0,0.0,0.0,0.0,0.0,0.0,0.0,0.0,0.0,0.0,0.0,0.0,0.0,0.0,0.0,0.0,5.4896,5.5607,5.4706,5.3435,0.0,0.0,0.0,0.0,0.0,0.0,0.0,0.0,0.0,0.0,0.0,0.0,0.0,0.0,0.0,0.0,0.0,0.0,0.0,0.0,0.0,0.0,0.0,0.0,0.0,0.0,0.0,0.0,0.0,0.0,0.0,0.0,0.0,0.0,0.0,0.0,0.0,0.0,0.0,0.0,0.0,0.0,0.0,0.0,0.0,0.0,0.0,0.0,0.0,0.0,0.0,0.0,0.0,0.0,0.0,0.0,0.0,0.0,0.0,0.0,0.0,0.0,0.0,0.0,0.0,0.0,0.0,0.0,0.0,0.0,0.0,0.0,0.0,0.0,0.0,0.0,0.0,0.0,0.0,0.0,0.0,0.0,0.0,0.0,0.0,0.0,0.0,0.0,0.0,0.0,0.0,0.0,0.0,0.0,0.0,0.0,0.0,0.0,0.0,0.0,0.0,0.0,0.0,0.0,0.0,0.0,0.0,0.0,0.0,0.0,0.0,5.2459,5.3922,5.3992,0.0,5.1741,0.0,0.0,0.0,0.0,0.0,0.0,0.0,0.0,0.0,0.0,0.0,0.0,0.0,0.0,0.0,0.0,0.0,0.0,0.0,0.0,0.0,0.0,0.0,0.0,0.0,0.0,0.0,0.0,0.0,0.0,0.0,0.0,0.0,0.0,0.0,0.0,0.0,0.0,0.0,0.0,0.0,0.0,0.0,0.0,0.0,0.0,0.0,0.0,0.0,0.0,0.0,0.0,0.0,0.0,0.0,0.0,0.0,0.0,0.0,0.0,0.0,0.0,0.0,0.0,0.0,0.0,0.0,0.0,0.0,0.0,0.0,0.0,0.0,0.0,0.0,0.0,0.0,0.0,0.0,0.0,0.0,0.0,0.0,0.0,0.0,0.0,0.0,0.0,0.0,0.0,0.0,0.0,0.0,0.0,0.0,0.0,0.0,0.0,0.0,0.0,0.0,0.0,0.0,0.0,0.0,0.0,0.0,0.0,0.0,0.0,0.0,0.0,5.227,5.208,5.1705,0.0,0.0,0.0,0.0,0.0,0.0,0.0,0.0,0.0,0.0,0.0,0.0,0.0,0.0,0.0,0.0,0.0,0.0,0.0,0.0,0.0,0.0,0.0,0.0,0.0,0.0,0.0,0.0,0.0,0.0,0.0,0.0,0.0,0.0,0.0,0.0,0.0,0.0,0.0,0.0,0.0,0.0,0.0,0.0,0.0,0.0,0.0,0.0,0.0,0.0,0.0,0.0,0.0,0.0,0.0,0.0,0.0,0.0,0.0,0.0,0.0,0.0,0.0,0.0,0.0,0.0,0.0,0.0,0.0,0.0,0.0,0.0,0.0,0.0,0.0,0.0,0.0,0.0,0.0,0.0,0.0,0.0,0.0,0.0,0.0,0.0,0.0,0.0,0.0,0.0,0.0,0.0,0.0,0.0,0.0,0.0,0.0,0.0,0.0,0.0,0.0,0.0,0.0,0.0,0.0,0.0,0.0,0.0,0.0,0.0,5.0575,5.0579,5.054,5.0541,5.0546,0.0,0.0,0.0,0.0,0.0,0.0,0.0,0.0,0.0,0.0,0.0,0.0,0.0,0.0,0.0,0.0,0.0,0.0,0.0,0.0,0.0,0.0,0.0,0.0,0.0,0.0,0.0,0.0,0.0,0.0,0.0,0.0,0.0,0.0,0.0,0.0,0.0,0.0,0.0,0.0,0.0,0.0,0.0,0.0,0.0,0.0,0.0,0.0,0.0,0.0,0.0,0.0,0.0,0.0,0.0,0.0,0.0,0.0,0.0,0.0,0.0,0.0,0.0,0.0,0.0,0.0,0.0,0.0,0.0,0.0,0.0,0.0,0.0,0.0,0.0,0.0,0.0,0.0,0.0,0.0,0.0,0.0,0.0,0.0,0.0,0.0,0.0,0.0,0.0,0.0,0.0,0.0,0.0,0.0,0.0,0.0,0.0,0.0,0.0,0.0,0.0,0.0,0.0,0.0,0.0,0.0,0.0,0.0,0.0,0.0,0.0,0.0,0.0,0.0,4.9195,0.0,0.0,0.0,0.0,0.0,0.0,0.0,0.0,0.0,0.0,0.0,0.0,0.0,0.0,0.0,0.0,0.0,0.0,0.0,0.0,0.0,0.0,0.0,0.0,0.0,0.0,0.0,0.0,0.0,0.0,0.0,0.0,0.0,0.0,0.0,0.0,0.0,0.0,0.0,0.0,0.0,0.0,0.0,0.0,0.0,0.0,0.0,0.0,0.0,0.0,0.0,0.0,0.0,0.0,0.0,0.0,0.0,0.0,0.0,0.0,0.0,0.0,0.0,0.0,0.0,0.0,0.0,0.0,0.0,0.0,0.0,0.0,0.0,0.0,0.0,0.0,0.0,0.0,0.0,0.0,0.0,0.0,0.0,0.0,0.0,0.0,0.0,0.0,0.0,0.0,0.0,0.0,0.0,0.0,0.0,0.0,0.0,0.0,0.0,0.0,0.0,0.0,0.0,0.0,0.0,0.0,0.0,0.0,0.0,0.0,0.0,0.0,0.0,0.0,0.0,0.0,0.0,0.0,0.0,0.0,0.0,0.0,0.0,0.0,0.0,0.0,0.0,0.0,0.0,0.0,0.0,0.0,0.0,0.0,0.0,0.0,0.0,0.0,0.0,0.0,0.0,0.0,0.0,0.0,0.0,0.0,0.0,0.0,0.0,0.0,0.0,0.0,0.0,0.0,0.0,0.0,0.0,0.0,0.0,0.0,0.0,0.0,0.0,0.0,0.0,0.0,0.0,0.0,0.0,0.0,0.0,0.0,0.0,0.0,0.0,0.0,0.0,0.0,0.0,0.0,0.0,0.0,0.0,0.0,0.0,0.0,0.0,0.0,0.0,0.0,0.0,0.0,0.0,0.0,0.0,0.0,0.0,0.0,0.0,0.0,0.0,0.0,0.0,0.0,0.0,0.0,0.0,0.0,0.0,0.0,0.0,0.0,0.0,0.0,0.0,0.0,0.0,0.0,0.0,0.0,0.0,0.0,0.0,0.0,0.0,0.0,0.0,0.0,0.0,0.0,0.0,0.0,0.0,0.0,0.0,0.0,0.0,0.0,0.0,0.0,0.0,0.0,0.0,0.0,0.0,0.0,0.0,0.0,0.0,0.0,0.0,0.0,0.0,0.0,0.0,0.0,0.0,0.0,0.0,0.0,0.0,0.0,0.0,0.0,0.0,0.0,0.0,0.0,0.0,0.0,0.0,0.0,0.0,0.0,0.0,0.0,0.0,0.0,0.0,0.0,0.0,0.0,0.0,0.0,0.0,0.0,0.0,0.0,0.0,0.0,0.0,0.0,0.0,0.0,0.0,0.0,0.0,0.0,0.0,0.0,0.0,0.0,0.0,0.0,0.0,0.0,0.0,0.0,0.0,0.0,0.0,0.0,0.0,0.0,0.0,0.0,0.0,0.0,0.0,0.0,0.0,0.0,0.0,0.0,0.0,0.0,0.0,0.0,0.0,0.0,0.0,0.0,0.0,0.0,0.0,0.0,0.0,0.0,0.0,0.0,0.0,0.0,0.0,0.0,0.0,0.0,0.0,0.0,0.0,0.0,0.0,0.0,0.0,0.0,0.0,0.0,0.0,0.0,0.0,0.0,0.0,0.0,0.0,0.0,0.0,0.0,0.0,0.0,0.0,0.0,0.0,0.0,0.0,0.0,0.0,0.0,0.0,0.0,0.0,0.0,0.0,0.0,0.0,0.0,0.0,0.0,0.0,0.0,0.0,0.0,0.0,0.0,0.0,0.0,0.0,0.0,0.0,0.0,0.0,0.0,0.0,0.0,0.0,0.0,0.0,0.0,0.0,0.0,0.0,0.0,0.0,0.0,0.0,0.0,0.0,0.0,0.0,0.0,0.0,0.0,0.0,0.0,0.0,0.0,0.0,0.0,0.0,0.0,0.0,0.0,0.0,0.0,0.0,0.0,0.0,0.0,0.0,0.0,0.0,0.0,0.0,0.0,0.0,0.0,0.0,0.0,0.0,0.0,0.0,0.0,0.0,0.0,0.0,0.0,0.0,0.0,0.0,0.0,0.0,0.0,0.0,0.0,0.0,0.0,0.0,0.0,0.0,0.0,0.0,0.0,0.0,0.0,0.0,0.0,0.0,0.0,0.0,0.0,0.0,0.0,0.0,0.0,0.0,0.0,0.0,0.0,0.0,0.0,0.0,0.0,0.0,0.0,0.0,0.0,0.0,0.0,0.0,0.0,0.0,0.0,0.0,0.0,0.0,0.0,0.0,0.0,0.0,0.0,0.0,0.0,0.0,0.0,0.0,0.0,0.0,0.0,0.0,0.0,0.0,0.0,0.0,0.0,0.0,0.0,0.0,0.0,0.0,0.0,0.0,0.0,0.0,0.0,0.0,0.0,0.0,0.0,0.0,0.0,0.0,0.0,0.0,0.0,0.0,0.0,0.0,0.0,0.0,0.0,0.0,0.0,0.0,0.0,0.0,0.0,0.0,0.0,0.0,0.0,0.0,0.0,0.0,0.0,0.0,0.0,0.0,0.0,0.0,0.0,0.0,0.0,0.0,0.0,0.0,0.0,0.0,0.0,0.0,0.0,0.0,0.0,0.0,0.0,0.0,0.0,0.0,0.0,0.0,0.0,0.0,0.0,0.0,0.0,0.0,0.0,0.0,0.0,0.0,0.0,0.0,0.0,0.0,0.0,0.0,0.0,0.0,0.0,0.0,0.0,0.0,0.0,0.0,0.0,0.0,0.0,0.0,0.0,0.0,0.0,0.0,0.0,0.0,0.0,0.0,0.0,0.0,0.0,0.0,0.0,0.0,0.0,0.0,0.0,0.0,0.0,0.0,0.0,0.0,0.0,0.0,0.0,0.0,0.0,0.0,0.0,0.0,0.0,0.0,0.0,0.0,0.0,0.0,0.0,0.0,0.0,0.0,0.0,0.0,0.0,0.0,0.0,0.0,0.0,0.0,0.0,0.0,0.0,0.0,0.0,0.0,0.0,0.0,0.0,0.0,0.0,0.0,0.0,0.0,0.0,0.0,0.0,0.0,0.0,0.0,0.0,0.0,0.0,0.0,0.0,0.0,0.0,0.0,0.0,0.0,0.0,0.0,0.0,0.0,0.0,0.0,0.0,0.0,0.0,0.0,0.0,0.0,0.0,0.0,0.0,0.0,0.0,0.0,0.0,0.0,0.0,0.0,0.0,0.0,0.0,0.0,0.0,0.0,0.0,0.0,0.0,0.0,0.0,0.0,0.0,0.0,0.0,0.0,0.0,0.0,0.0,0.0,0.0,0.0,0.0,0.0,0.0,0.0,0.0,0.0,0.0,0.0,0.0,0.0,0.0,0.0,0.0,0.0,0.0,0.0,0.0,0.0,0.0,0.0,0.0,0.0,0.0,0.0,0.0,0.0,0.0,0.0,0.0,0.0,0.0,0.0,0.0,0.0,0.0,0.0,0.0,0.0,0.0,0.0,0.0,0.0,0.0,0.0,0.0,0.0,0.0,0.0,0.0,0.0,0.0,0.0,0.0,0.0,0.0,0.0,0.0,0.0,0.0,0.0,0.0,0.0,0.0,0.0,0.0,0.0,0.0,0.0,0.0,0.0,0.0,0.0,0.0,0.0,0.0,0.0,0.0,0.0,0.0,0.0,0.0,0.0,0.0,0.0,0.0,0.0,0.0,0.0,0.0,0.0,0.0,0.0,0.0,0.0,0.0,0.0,0.0,0.0,0.0,0.0,0.0,0.0,0.0,0.0,0.0,0.0,0.0,0.0,0.0,0.0,0.0,0.0,0.0,0.0,0.0,0.0,0.0,0.0,0.0,0.0,0.0,0.0,0.0,0.0,0.0,0.0,0.0,0.0,0.0,0.0,0.0,0.0,0.0,0.0,0.0,0.0,0.0,0.0,0.0,0.0,0.0,0.0,0.0,0.0,0.0,0.0,0.0,0.0,0.0,0.0,0.0,0.0,0.0,0.0,0.0,0.0,0.0,0.0,0.0,0.0,0.0,0.0,0.0,0.0,0.0,0.0,0.0,0.0,0.0,0.0,0.0,0.0,0.0,0.0,0.0,0.0,0.0,0.0,0.0,0.0,0.0,0.0,0.0,0.0,0.0,0.0,0.0,0.0,0.0,0.0,0.0,0.0,0.0,0.0,0.0,0.0,0.0,0.0,0.0,0.0,0.0,0.0,0.0,0.0,0.0,0.0,0.0,0.0,0.0,0.0,0.0,0.0,0.0,0.0,0.0,0.0,0.0,0.0,0.0,0.0,0.0,0.0,0.0,0.0,0.0,0.0,0.0,0.0,0.0,0.0,0.0,0.0,0.0,0.0,0.0,0.0,0.0,0.0,0.0,0.0,0.0,0.0,0.0,0.0,0.0,0.0,0.0,0.0,0.0,0.0,0.0]}],[{"header":{"parameterUnit":"kt","parameterCategory":2,"dx":1,"dy":1,"la1":29.587661999999998,"la2":31.0,"lo1":-88.76705300000003,"lo2":-86.6583820000003,"nx":115,"ny":88,"refTime":"2022-09-29T12:00:00:Z","depth":0,"parameterNumber":2,"parameterNumberName":"V-component_of_WINDS"},"data":[6.4898,6.4898,6.4898,6.4898,6.4898,6.4898,6.4898,6.4898,6.4898,6.4898,6.4898,6.4898,6.4898,6.4898,6.4898,6.4898,6.4898,6.4898,6.4898,6.4898,6.4898,6.4898,6.4898,6.4898,6.4898,6.4898,6.4898,6.4898,6.4898,6.4898,6.4898,6.4898,6.4898,6.4898,6.4898,6.4898,6.4898,6.4898,6.4898,6.4898,6.4898,6.4898,6.4898,6.4898,6.4898,6.4898,6.4898,6.4898,6.4898,6.4898,6.4898,6.4898,6.4898,6.4898,6.4898,6.4898,6.4898,6.4898,6.4898,6.4898,6.4898,6.4898,6.4898,6.4898,6.4898,6.4898,6.4898,6.4901,6.4901,6.4867,6.4836,6.479,6.476,6.4652,6.4606,6.4298,6.4114,6.3898,6.3747,6.3561,6.3376,6.3407,6.3468,6.3592,6.3808,6.3932,6.424,6.4333,6.4748,6.4821,6.4867,6.4882,6.4867,6.4898,6.4898,6.4898,6.4898,6.4898,6.4898,6.4898,6.4898,6.4898,6.4898,6.4898,6.4898,6.4898,6.4898,6.4898,6.4898,6.4898,6.4898,6.4898,6.4898,6.4898,6.4898,6.497,6.4898,6.4913,6.4898,6.4898,6.4898,6.4898,6.4898,6.4898,6.4898,6.4898,6.4898,6.4898,6.4898,6.4898,6.4898,6.4898,6.4898,6.4898,6.4898,6.4898,6.4898,6.4898,6.4898,6.4898,6.4898,6.4898,6.4898,6.4898,6.4898,6.4898,6.4898,6.4898,6.4898,6.4898,6.4898,6.4898,6.4898,6.4898,6.4898,6.4898,6.4898,6.4898,6.4898,6.4898,6.4898,6.4898,6.4898,6.4898,6.4898,6.4898,6.4898,6.4898,6.4898,6.4898,6.4898,6.4898,6.4898,6.4898,6.4898,6.4898,6.4898,6.4898,6.4898,6.4898,6.4898,6.4898,6.4898,6.4898,6.4898,6.4898,6.4882,6.4882,6.4836,6.4836,6.4744,6.4729,6.4683,6.4652,6.4637,6.4575,6.456,6.4606,6.4621,6.4698,6.4729,6.4821,6.4886,6.4901,6.4898,6.4898,6.4898,6.4898,6.4898,6.4898,6.4898,6.4898,6.4898,6.4898,6.4898,6.4898,6.4898,6.4898,6.4898,6.4898,6.4898,6.4898,6.4898,6.4898,6.4898,6.4898,6.4898,6.4898,6.4898,6.4898,6.6079,6.562,6.5153,6.4898,6.4898,6.4898,6.4898,6.4898,6.4898,6.4898,6.4898,6.4898,6.4898,6.4898,6.4898,6.4898,6.4898,6.4898,6.4898,6.4898,6.4898,6.4898,6.4898,6.4898,6.4898,6.4898,6.4898,6.4898,6.4898,6.4898,6.4898,6.4898,6.4898,6.4898,6.4898,6.4898,6.4898,6.4898,6.4898,6.4898,6.4898,6.4898,6.4898,6.4898,6.4898,6.4898,6.4898,6.4898,6.4898,6.4898,6.4898,6.4898,6.4898,6.4898,6.4898,6.4898,6.4898,6.4898,6.4898,6.4898,6.4898,6.4898,6.4898,6.4898,6.4898,6.4898,6.4898,6.4898,6.4898,6.4898,6.4898,6.4898,6.4898,6.4898,6.4898,6.4898,6.4898,6.4898,6.4898,6.4898,6.4898,6.4898,6.4898,6.4898,6.4898,6.4898,6.4898,6.4898,6.4898,6.4898,6.4898,6.4898,6.4898,6.4898,6.4898,6.4898,6.4898,6.4898,6.4898,6.4898,6.4898,6.4898,6.4898,6.4898,6.4898,6.4898,6.4898,6.4898,6.4898,6.4898,6.4898,6.4898,6.4898,6.4898,6.4898,6.7082,6.6525,6.5801,6.5387,6.5282,6.5266,6.5172,6.4936,6.5323,6.5608,6.5498,6.5365,6.527,6.5266,6.5099,6.4898,6.4898,6.4898,6.4898,6.4913,6.4898,6.4898,6.4898,6.4898,6.4898,6.4898,6.4898,6.4898,6.4898,6.4898,6.4898,6.4898,6.4898,6.4898,6.4898,6.4898,6.4898,6.4898,6.4898,6.4898,6.4898,6.4898,6.4898,6.4898,6.4898,6.4898,6.4898,6.4898,6.4898,6.4898,6.4898,6.4898,6.4898,6.4898,6.4898,6.4898,6.4898,6.4898,6.4898,6.4898,6.4898,6.4898,6.4898,6.4898,6.4898,6.4898,6.4898,6.4898,6.4898,6.4898,6.4898,6.4898,6.4898,6.4898,6.4898,6.4898,6.4898,6.4898,6.4898,6.4898,6.4898,6.4898,6.4898,6.4898,6.4898,6.4898,6.4898,6.4898,6.4898,6.4898,6.4898,6.4898,6.4898,6.4898,6.4898,6.4898,6.4898,6.4898,6.4898,6.4898,6.4898,6.4898,6.4898,6.4898,6.4898,6.4898,6.4898,6.4898,6.4898,6.4898,6.4898,6.4898,6.4898,6.4898,6.4898,6.7443,6.7332,6.7291,6.6832,6.6221,6.6167,6.5753,6.5106,6.6484,6.7218,6.7006,6.6471,6.6183,6.6038,6.5624,6.5274,6.5312,6.5312,6.5349,6.4966,6.5099,6.4989,6.497,6.4898,6.4898,6.4898,6.4898,6.4898,6.4898,6.4898,6.4898,6.4898,6.4898,6.4898,6.4898,6.4898,6.4898,6.4898,6.4898,6.4898,6.4898,6.4898,6.4898,6.4898,6.4898,6.4898,6.4898,6.4898,6.4898,6.4898,6.4898,6.4898,6.4898,6.4898,6.4898,6.4898,6.4898,6.4898,6.4898,6.4898,6.4898,6.4898,6.4898,6.4898,6.4898,6.4898,6.4898,6.4898,6.4898,6.4898,6.4898,6.4898,6.4898,6.4898,6.4898,6.4898,6.4898,6.4898,6.4898,6.4898,6.4898,6.4898,6.4898,6.4898,6.4898,6.4898,6.4898,6.4898,6.4898,6.4898,6.4898,6.4898,6.4898,6.4898,6.4898,6.4898,6.4898,6.4898,6.4898,6.4898,6.4898,6.4898,6.4898,6.4898,6.4898,6.4898,6.4898,6.4898,6.4898,6.4898,6.4898,6.4898,6.4898,6.4898,6.4898,6.8702,6.83,6.8297,6.7785,6.7063,6.7003,6.682,6.663,6.7126,6.7462,6.7408,6.7123,6.7003,6.6911,6.6592,6.6367,6.6367,6.6272,6.6064,6.5851,6.5772,6.5475,6.5046,6.4898,6.5027,6.4898,6.4898,6.5122,6.4898,6.4898,6.4913,6.4932,6.4898,6.4898,6.4932,6.497,6.4951,6.497,6.4913,6.4898,6.4898,6.4898,6.4898,6.4898,6.4898,6.4898,6.4898,6.4898,6.4898,6.4898,6.4898,6.4898,6.4898,6.4898,6.4898,6.4898,6.4898,6.4898,6.4898,6.4898,6.4898,6.4898,6.4898,6.497,6.4989,6.5008,6.4989,6.4898,6.4898,6.4898,6.4898,6.4898,6.4898,6.4898,6.4898,6.4898,6.4898,6.4898,6.4898,6.4898,6.4898,6.4898,6.4898,6.4898,6.4898,6.4898,6.4898,6.4898,6.4898,6.4898,6.4898,6.4898,6.4898,6.4898,6.4898,6.4898,6.4898,6.4898,6.4898,6.4898,6.4898,6.4898,6.4898,6.4898,6.4898,6.4898,6.4898,6.4898,6.4898,6.4898,6.4898,6.4898,6.4898,6.4898,6.4898,6.965,6.9173,6.9138,6.8791,6.8208,6.817,6.8186,6.8151,6.8205,6.817,6.8167,6.7942,6.7861,6.7788,6.7579,6.7408,6.7389,6.7367,6.7044,6.6851,6.6604,6.6174,6.5931,6.5801,6.5672,6.5706,6.5744,6.5874,6.5687,6.5342,6.5342,6.5023,6.4913,6.4898,6.5008,6.5179,6.5323,6.5342,6.5061,6.497,6.4898,6.4898,6.4898,6.4898,6.4898,6.4898,6.4898,6.4898,6.4898,6.4898,6.4898,6.4898,6.4898,6.4898,6.4913,6.4913,6.4932,6.4932,6.4898,6.4898,6.4898,6.4898,6.5501,6.546,6.5361,6.5361,6.5263,6.5042,6.4898,6.4898,6.4898,6.4898,6.4898,6.4898,6.4898,6.4898,6.4898,6.4898,6.4898,6.4898,6.4898,6.4898,6.4898,6.4898,6.4898,6.4898,6.4898,6.4898,6.4898,6.4898,6.4898,6.4898,6.4898,6.4898,6.4898,6.4898,6.4898,6.4898,6.4898,6.4898,6.4898,6.4898,6.4898,6.4898,6.4898,6.4898,6.4898,6.4898,6.4898,6.4898,6.4898,6.4898,6.4898,6.4898,6.4898,6.994,6.9921,6.9938,6.9864,6.9878,6.9726,6.9786,6.9843,6.9843,6.9805,6.9783,6.8984,6.8737,6.8585,6.7921,6.7693,6.7731,6.7696,6.7563,6.7484,6.7462,6.7275,6.7145,6.705,6.688,6.7104,6.7123,6.6801,6.7196,6.6569,6.5813,6.5327,6.5349,6.5349,6.5555,6.5836,6.6171,6.6041,6.5741,6.5513,6.5384,6.5179,6.5156,6.5065,6.497,6.4898,6.4898,6.4898,6.4898,6.4898,6.4898,6.4898,6.4898,6.4898,6.4932,6.497,6.5008,6.5137,6.5232,6.5327,6.527,6.5539,6.6408,6.6611,6.6475,6.619,6.5981,6.5627,6.527,6.5141,6.4913,6.4932,6.4932,6.4898,6.4898,6.4913,6.4913,6.4932,6.4932,6.4898,6.4898,6.4898,6.4898,6.4898,6.4898,6.4898,6.4898,6.4898,6.4898,6.4898,6.4898,6.4898,6.4898,6.4898,6.4898,6.4898,6.4898,6.4898,6.4898,6.4898,6.4898,6.4898,6.4898,6.4898,6.4898,6.4898,6.4898,6.4898,6.4898,6.4898,6.4898,6.4898,6.4898,6.4898,6.4898,6.9995,6.9995,6.9995,6.9995,6.9995,6.9995,6.9995,6.9995,6.9995,6.9995,6.9938,6.9726,6.9537,6.9461,6.9252,6.9084,6.9103,6.9065,6.8986,6.8357,6.8338,6.8034,6.7674,6.7389,6.7674,6.7443,6.7443,6.7503,6.7598,6.7199,6.6857,6.6611,6.6611,6.6446,6.6633,6.6766,6.706,6.693,6.6687,6.6402,6.6307,6.6079,6.5826,6.5662,6.5327,6.4989,6.4917,6.4898,6.4898,6.4898,6.4898,6.4898,6.4898,6.5008,6.5247,6.5677,6.5882,6.6095,6.6402,6.6516,6.6576,6.6545,6.7012,6.7275,6.7139,6.7063,6.6782,6.6459,6.6133,6.5962,6.5737,6.5023,6.5008,6.4936,6.4955,6.497,6.4989,6.5023,6.5004,6.4932,6.4898,6.4898,6.4898,6.4898,6.4898,6.4898,6.4898,6.4898,6.4898,6.4898,6.4898,6.4898,6.4898,6.4898,6.4898,6.4898,6.4898,6.4898,6.4898,6.4898,6.4898,6.4898,6.4898,6.4898,6.4898,6.4898,6.4898,6.4898,6.4898,6.4898,6.4898,6.4898,6.4898,6.4898,6.4898,6.9995,6.9995,6.9995,6.9995,6.9995,6.9995,6.9995,6.9995,6.9995,6.9995,6.9995,6.9995,6.9995,6.9995,6.99,6.9881,6.9919,6.9957,6.9843,6.9214,6.9195,6.8756,6.8566,6.8493,6.8417,6.8322,6.8303,6.8436,6.8211,6.7999,6.7958,6.775,6.7468,6.7756,6.8113,6.7977,6.7937,6.7896,6.7614,6.7462,6.7386,6.6949,6.6645,6.6626,6.6174,6.5934,6.5934,6.5975,6.5975,6.5972,6.5991,6.5953,6.5934,6.595,6.6155,6.6509,6.6715,6.6965,6.7291,6.811,6.8227,6.8303,6.8417,6.8322,6.7956,6.7902,6.7674,6.7332,6.6854,6.6756,6.6661,6.606,6.576,6.5668,6.5596,6.5593,6.5365,6.538,6.5251,6.5217,6.4917,6.4898,6.4898,6.4898,6.4898,6.4898,6.4898,6.4898,6.4898,6.4898,6.4898,6.4898,6.4898,6.4898,6.4898,6.4898,6.4898,6.4898,6.4898,6.4898,6.4898,6.4898,6.4898,6.4898,6.4898,6.4898,6.4898,6.4898,6.4898,6.4898,6.4898,6.4898,6.4898,6.4898,6.4898,6.9995,6.9995,6.9995,6.9995,6.9995,6.9995,6.9995,6.9995,6.9995,6.9995,6.9995,6.9995,6.9995,6.9995,6.9995,6.9995,6.9995,7.0011,6.9935,6.9807,6.9764,6.9881,6.9748,6.9653,6.9461,6.9864,6.9691,6.952,6.9729,6.91,6.8832,6.8623,6.8341,6.8452,6.971,6.9176,6.8867,6.8734,6.8067,6.788,6.7804,6.769,6.7519,6.7443,6.7161,6.6952,6.6933,6.6918,6.6899,6.6933,6.6971,6.699,6.7009,6.7082,6.7253,6.7462,6.7484,6.756,6.7674,6.91,6.9594,6.9596,6.9387,6.9309,6.8946,6.8756,6.8569,6.8151,6.7636,6.7519,6.7481,6.7351,6.718,6.7066,6.699,6.6876,6.644,6.6266,6.5988,6.5839,6.5368,6.5008,6.5027,6.5008,6.5065,6.5046,6.497,6.4898,6.4898,6.4898,6.4898,6.4898,6.4898,6.4898,6.4898,6.4898,6.4898,6.4898,6.4898,6.4898,6.4898,6.4898,6.4898,6.4898,6.4898,6.4898,6.4898,6.4898,6.4898,6.4898,6.4898,6.4898,6.4898,6.4898,6.4898,6.9995,6.9995,6.9995,6.9995,6.9995,6.9995,6.9995,6.9995,6.9995,6.9995,6.9995,6.9995,6.9995,6.9995,6.9995,6.9995,6.9995,6.9995,6.9995,6.9995,6.9995,6.9995,6.9995,6.9995,6.9995,6.9995,6.9995,6.9995,6.9995,6.9764,6.9594,6.948,6.9404,6.9385,6.9938,6.9693,6.9615,6.9631,6.9363,6.9252,6.9081,6.8718,6.8395,6.8373,6.7864,6.7674,6.7671,6.7709,6.7671,6.7652,6.7614,6.7522,6.7484,6.7538,6.7804,6.8148,6.8455,6.8685,6.9103,6.9767,6.9938,6.9995,6.9995,6.9862,6.9691,6.9631,6.9444,6.9008,6.8626,6.8395,6.8408,6.7975,6.7731,6.7883,6.7845,6.775,6.7332,6.712,6.6804,6.6446,6.6465,6.6314,6.6196,6.587,6.5908,6.5889,6.5665,6.5384,6.527,6.5175,6.508,6.4989,6.4932,6.4898,6.4898,6.4898,6.4898,6.4898,6.4898,6.4898,6.4898,6.4898,6.4898,6.4898,6.4898,6.4898,6.4898,6.4898,6.4898,6.4898,6.4898,6.4898,6.4898,6.4898,6.4898,6.9995,6.9995,6.9995,6.9995,6.9995,6.9995,6.9995,6.9995,6.9995,6.9995,6.9995,6.9995,6.9995,6.9995,6.9995,6.9995,6.9995,6.9995,6.9995,6.9995,6.9995,6.9995,6.9995,6.9995,6.9995,6.9995,6.9995,6.9995,6.9995,6.9919,6.9995,6.9995,6.9881,6.9995,6.9995,6.9938,6.9938,6.9954,6.9957,6.9957,6.99,6.9461,6.9252,6.9268,6.8569,6.8455,6.8411,6.8433,6.8449,6.8506,6.8528,6.8569,6.8588,6.8585,6.8796,6.9141,6.9233,6.9425,6.9807,6.9938,6.9995,6.9995,6.9995,6.9976,6.9919,6.9957,6.9995,6.9862,6.9463,6.9236,6.9249,6.8775,6.8303,6.8398,6.8401,6.8341,6.8151,6.8034,6.7734,6.7142,6.718,6.737,6.7063,6.6791,6.6775,6.6699,6.6231,6.5874,6.5737,6.5605,6.5323,6.5191,6.497,6.4898,6.4898,6.4898,6.4898,6.4898,6.4898,6.4898,6.4898,6.4898,6.4898,6.4898,6.4898,6.4898,6.4898,6.4898,6.4898,6.4898,6.4898,6.4898,6.4898,6.4898,6.4898,6.9995,6.9995,6.9995,6.9995,6.9995,6.9995,6.9995,6.9995,6.9995,6.9995,6.9995,6.9995,6.9995,6.9995,6.9995,6.9995,6.9995,6.9995,6.9995,6.9995,6.9995,6.9995,6.9995,6.9995,6.9995,6.9995,6.9995,6.9995,6.9995,6.9995,6.9995,6.9995,6.9995,6.9995,6.9995,6.9995,6.9995,6.9995,6.9995,6.9995,6.9976,6.9938,6.9862,6.9897,6.9919,6.9959,6.9957,6.9783,6.9688,6.9669,6.9631,6.9615,6.952,6.9575,6.9556,6.9748,6.9786,6.9824,6.9938,6.9995,6.9995,6.9995,6.9995,6.9995,6.9995,6.9995,6.9995,6.9957,6.9862,6.9824,6.9881,6.9938,6.9594,6.9463,6.9274,6.9122,6.8951,6.8834,6.849,6.788,6.7747,6.7921,6.7766,6.7956,6.7977,6.7633,6.7199,6.6914,6.6664,6.6285,6.5889,6.5472,6.5213,6.5084,6.5065,6.4898,6.4898,6.4898,6.4898,6.4898,6.4898,6.4898,6.4898,6.4898,6.4898,6.4898,6.4898,6.4898,6.4898,6.4898,6.4898,6.4898,6.4898,6.4898,6.4898,6.9995,6.9995,6.9995,6.9995,6.9995,6.9995,6.9995,6.9995,6.9995,6.9995,6.9995,6.9995,6.9995,6.9995,6.9995,6.9995,6.9995,6.9995,6.9995,6.9995,6.9995,6.9995,6.9995,6.9995,6.9995,6.9995,6.9995,6.9995,6.9995,6.9995,6.9995,6.9995,6.9995,6.9995,6.9995,6.9995,6.9995,6.9995,6.9995,6.9995,6.9995,6.9995,6.9995,6.9995,6.9995,6.9995,6.9995,6.9995,6.9995,6.9995,6.9995,6.9995,6.9995,6.9995,6.9995,6.9995,6.9995,6.9995,6.9995,6.9995,6.9995,6.9995,6.9995,6.9995,6.9995,6.9995,6.9995,6.9995,6.9995,6.9995,6.9995,6.9995,6.9995,6.9995,6.9995,6.9864,6.9693,6.9558,6.9252,6.8891,6.8794,6.8813,6.8775,6.9024,6.891,6.8547,6.8262,6.8012,6.7633,6.718,6.6721,6.6114,6.5908,6.576,6.5441,6.5008,6.4917,6.4898,6.4898,6.4898,6.4898,6.4898,6.4898,6.4898,6.4898,6.4898,6.4898,6.4898,6.4898,6.4898,6.4898,6.4898,6.4898,6.4898,6.4898,6.9995,6.9995,6.9995,6.9995,6.9995,6.9995,6.9995,6.9995,6.9995,6.9995,6.9995,6.9995,6.9995,6.9995,6.9995,6.9995,6.9995,6.9995,6.9995,6.9995,6.9995,6.9995,6.9995,6.9995,6.9995,6.9995,6.9995,6.9995,6.9995,6.9995,6.9995,6.9995,6.9995,6.9995,6.9995,6.9995,6.9995,6.9995,6.9995,6.9995,6.9995,6.9995,6.9995,6.9995,6.9995,6.9995,6.9995,6.9995,6.9995,6.9995,6.9995,6.9995,6.9995,6.9995,6.9995,6.9995,6.9995,6.9995,6.9995,6.9995,6.9995,6.9995,6.9995,6.9995,6.9995,6.9995,6.9995,6.9995,6.9995,6.9995,6.9995,6.9995,6.9995,6.9995,6.9995,6.9919,6.9919,6.9995,6.9995,6.9995,6.99,6.9596,6.9425,6.9558,6.9461,6.9233,6.91,6.8946,6.8642,6.8186,6.7576,6.6965,6.674,6.6494,6.5931,6.5399,6.5399,6.5099,6.5099,6.4898,6.4898,6.4898,6.4898,6.4898,6.4898,6.4898,6.4898,6.4898,6.4898,6.4898,6.4898,6.4898,6.4898,6.4898,6.4898,6.9995,6.9995,6.9995,6.9995,6.9995,6.9995,6.9995,6.9995,6.9995,6.9995,6.9995,6.9995,6.9995,6.9995,6.9995,6.9995,6.9995,6.9995,6.9995,6.9995,6.9995,6.9995,6.9995,6.9995,6.9995,6.9995,6.9995,6.9995,6.9995,6.9995,6.9995,6.9995,6.9995,6.9995,6.9995,6.9995,6.9995,6.9995,6.9995,6.9995,6.9995,6.9995,6.9995,6.9995,6.9995,6.9995,6.9995,6.9995,6.9995,6.9995,6.9995,6.9995,6.9995,6.9995,6.9995,6.9995,6.9995,6.9995,6.9995,6.9995,6.9995,6.9995,6.9995,6.9995,6.9995,6.9995,6.9995,6.9995,6.9995,6.9995,6.9995,6.9995,6.9995,6.9995,6.9995,6.9995,6.9995,6.9995,6.9995,6.9995,6.9995,6.9919,6.9862,6.9938,6.9995,6.9995,6.9976,6.99,6.9688,6.9176,6.8604,6.8167,6.7902,6.7294,6.6709,6.6167,6.5882,6.5377,6.5156,6.4898,6.4898,6.4898,6.4898,6.4951,6.4898,6.4898,6.4898,6.4898,6.4898,6.4898,6.4898,6.4898,6.4898,6.4898,6.4898,6.9995,6.9995,6.9995,6.9995,6.9995,6.9995,6.9995,6.9995,6.9995,6.9995,6.9995,6.9995,6.9995,6.9995,6.9995,6.9995,6.9995,6.9995,6.9995,6.9995,6.9995,6.9995,6.9995,6.9995,6.9995,6.9995,6.9995,6.9995,6.9995,6.9995,6.9995,6.9995,6.9995,6.9995,6.9995,6.9995,6.9995,6.9995,6.9995,6.9995,6.9995,6.9995,6.9995,6.9995,6.9995,6.9995,6.9995,6.9995,6.9995,6.9995,6.9995,6.9995,6.9995,6.9995,6.9995,6.9995,6.9995,6.9995,6.9995,6.9995,6.9995,6.9995,6.9995,6.9995,6.9995,6.9995,6.9995,6.9995,6.9995,6.9995,6.9995,6.9995,6.9995,6.9995,6.9995,6.9995,6.9995,6.9995,6.9995,6.9995,6.9995,6.9976,6.9957,6.9995,6.9995,6.9995,6.9995,6.9995,6.9938,6.9613,6.9423,6.9119,6.874,6.8075,6.75,6.6978,6.6623,6.6095,6.5684,6.5308,6.5141,6.4951,6.5023,6.5099,6.5042,6.4898,6.4898,6.4898,6.4898,6.4898,6.4898,6.4898,6.4898,6.4898,6.4898,6.9995,6.9995,6.9995,6.9995,6.9995,6.9995,6.9995,6.9995,6.9995,6.9995,6.9995,6.9995,6.9995,6.9995,6.9995,6.9995,6.9995,6.9995,6.9995,6.9995,6.9995,6.9995,6.9995,6.9995,6.9995,6.9995,6.9995,6.9995,6.9995,6.9995,6.9995,6.9995,6.9995,6.9995,6.9995,6.9995,6.9995,6.9995,6.9995,6.9995,6.9995,6.9995,6.9995,6.9995,6.9995,6.9995,6.9995,6.9995,6.9995,6.9995,6.9995,6.9995,6.9995,6.9995,6.9995,6.9995,6.9995,6.9995,6.9995,6.9995,6.9995,6.9995,6.9995,6.9995,6.9995,6.9995,6.9995,6.9995,6.9995,6.9995,6.9995,6.9995,6.9995,6.9995,6.9995,6.9995,6.9995,6.9995,6.9995,6.9995,6.9995,6.9995,6.9995,6.9995,6.9995,6.9995,6.9995,6.9995,6.9995,6.9881,6.984,6.9615,6.9463,6.8853,6.8335,6.7991,6.769,6.6933,6.6383,6.5908,6.5589,6.5175,6.5118,6.532,6.508,6.4913,6.4898,6.4898,6.4898,6.4898,6.4898,6.4898,6.4898,6.4898,6.4898,6.9995,6.9995,6.9995,6.9995,6.9995,6.9995,6.9995,6.9995,6.9995,6.9995,6.9995,6.9995,6.9995,6.9995,6.9995,6.9995,6.9995,6.9995,6.9995,6.9995,6.9995,6.9995,6.9995,6.9995,6.9995,6.9995,6.9995,6.9995,6.9995,6.9995,6.9995,6.9995,6.9995,6.9995,6.9995,6.9995,6.9995,6.9995,6.9995,6.9995,6.9995,6.9995,6.9995,6.9995,6.9995,6.9995,6.9995,6.9995,6.9995,6.9995,6.9995,6.9995,6.9995,6.9995,6.9995,6.9995,6.9995,6.9995,6.9995,6.9995,6.9995,6.9995,6.9995,6.9995,6.9995,6.9995,6.9995,6.9995,6.9995,6.9995,6.9995,6.9995,6.9995,6.9995,6.9995,6.9995,6.9995,6.9995,6.9995,6.9995,6.9995,6.9995,6.9995,6.9995,6.9995,6.9995,6.9995,6.9995,6.9995,6.9995,6.9995,6.9995,6.9995,6.9518,6.9078,6.8813,6.8452,6.7652,6.7101,6.6626,6.6196,6.5593,6.5361,6.5696,6.5639,6.5213,6.4989,6.4898,6.4898,6.4898,6.4898,6.4898,6.4898,6.4898,6.4898,6.9995,6.9995,6.9995,6.9995,6.9995,6.9995,6.9995,6.9995,6.9995,6.9995,6.9995,6.9995,6.9995,6.9995,6.9995,6.9995,6.9995,6.9995,6.9995,6.9995,6.9995,6.9995,6.9995,6.9995,6.9995,6.9995,6.9995,6.9995,6.9995,6.9995,6.9995,6.9995,6.9995,6.9995,6.9995,6.9995,6.9995,6.9995,6.9995,6.9995,6.9995,6.9995,6.9995,6.9995,6.9995,6.9995,6.9995,6.9995,6.9995,6.9995,6.9995,6.9995,6.9995,6.9995,6.9995,6.9995,6.9995,6.9995,6.9995,6.9995,6.9995,6.9995,6.9995,6.9995,6.9995,6.9995,6.9995,6.9995,6.9995,6.9995,6.9995,6.9995,6.9995,6.9995,6.9995,6.9995,6.9995,6.9995,6.9995,6.9995,6.9995,6.9995,6.9995,6.9995,6.9995,6.9995,6.9995,6.9995,6.9995,6.9995,6.9995,6.9995,6.9995,6.9669,6.9518,6.929,6.8965,6.8335,6.7877,6.7503,6.7148,6.6709,6.6437,6.6487,6.6145,6.5624,6.5308,6.5046,6.4898,6.4898,6.4898,6.4898,6.4898,6.4898,6.4898,6.9995,6.9995,6.9995,6.9995,6.9995,6.9995,6.9995,6.9995,6.9995,6.9995,6.9995,6.9995,6.9995,6.9995,6.9995,6.9995,6.9995,6.9995,6.9995,6.9995,6.9995,6.9995,6.9995,6.9995,6.9995,6.9995,6.9995,6.9995,6.9995,6.9995,6.9995,6.9995,6.9995,6.9995,6.9995,6.9995,6.9995,6.9995,6.9995,6.9995,6.9995,6.9995,6.9995,6.9995,6.9995,6.9995,6.9995,6.9995,6.9995,6.9995,6.9995,6.9995,6.9995,6.9995,6.9995,6.9995,6.9995,6.9995,6.9995,6.9995,6.9995,6.9995,6.9995,6.9995,6.9995,6.9995,6.9995,6.9995,6.9995,6.9995,6.9995,6.9995,6.9995,6.9995,6.9995,6.9995,6.9995,6.9995,6.9995,6.9995,6.9995,6.9995,6.9995,6.9995,6.9995,6.9995,6.9995,6.9995,6.9995,6.9995,6.9995,6.9995,6.9995,6.9957,6.9881,6.9669,6.9325,6.9019,6.8582,6.83,6.8081,6.781,6.7535,6.7152,6.6791,6.6231,6.5605,6.5122,6.4898,6.4898,6.4898,6.4898,6.4898,6.4898,6.4898,6.9995,6.9995,6.9995,6.9995,6.9995,6.9995,6.9995,6.9995,6.9995,6.9995,6.9995,6.9995,6.9995,6.9995,6.9995,6.9995,6.9995,6.9995,6.9995,6.9995,6.9995,6.9995,6.9995,6.9995,6.9995,6.9995,6.9995,6.9995,6.9995,6.9995,6.9995,6.9995,6.9995,6.9995,6.9995,6.9995,6.9995,6.9995,6.9995,6.9995,6.9995,6.9995,6.9995,6.9995,6.9995,6.9995,6.9995,6.9995,6.9995,6.9995,6.9995,6.9995,6.9995,6.9995,6.9995,6.9995,6.9995,6.9995,6.9995,6.9995,6.9995,6.9995,6.9995,6.9995,6.9995,6.9995,6.9995,6.9995,6.9995,6.9995,6.9995,6.9995,6.9995,6.9995,6.9995,6.9995,6.9995,6.9995,6.9995,6.9995,6.9995,6.9995,6.9995,6.9995,6.9995,6.9995,6.9995,6.9995,6.9995,6.9995,6.9995,6.9995,6.9995,6.9995,6.9919,6.9843,6.9688,6.9556,6.9268,6.904,6.8937,6.8729,6.849,6.805,6.7459,6.6772,6.6107,6.5601,6.4898,6.4898,6.4898,6.4898,6.4898,6.4898,6.4898,6.9995,6.9995,6.9995,6.9995,6.9995,6.9995,6.9995,6.9995,6.9995,6.9995,6.9995,6.9995,6.9995,6.9995,6.9995,6.9995,6.9995,6.9995,6.9995,6.9995,6.9995,6.9995,6.9995,6.9995,6.9995,6.9995,6.9995,6.9995,6.9995,6.9995,6.9995,6.9995,6.9995,6.9995,6.9995,6.9995,6.9995,6.9995,6.9995,6.9995,6.9995,6.9995,6.9995,6.9995,6.9995,6.9995,6.9995,6.9995,6.9995,6.9995,6.9995,6.9995,6.9995,6.9995,6.9995,6.9995,6.9995,6.9995,6.9995,6.9995,6.9995,6.9995,6.9995,6.9995,6.9995,6.9995,6.9995,6.9995,6.9995,6.9995,6.9995,6.9995,6.9995,6.9995,6.9995,6.9995,6.9995,6.9995,6.9995,6.9995,6.9995,6.9995,6.9995,6.9995,6.9995,6.9995,6.9995,6.9995,6.9995,6.9995,6.9995,6.9995,6.9995,6.9995,6.9995,6.9995,6.9995,6.9976,6.9669,6.9594,6.9506,6.9449,6.9292,6.8794,6.7785,6.7041,6.643,6.5753,6.5118,6.4898,6.4898,6.4898,6.4898,6.4898,6.4898,6.9995,6.9995,6.9995,6.9995,6.9995,6.9995,6.9995,6.9995,6.9995,6.9995,6.9995,6.9995,6.9995,6.9995,6.9995,6.9995,6.9995,6.9995,6.9995,6.9995,6.9976,6.9976,6.9995,6.9995,6.9995,6.9995,6.9995,6.9995,6.9995,6.9995,6.9995,6.9995,6.9995,6.9995,6.9995,6.9995,6.9995,6.9995,6.9995,6.9995,6.9995,6.9995,6.9995,6.9995,6.9995,6.9995,6.9995,6.9995,6.9995,6.9995,6.9995,6.9995,6.9995,6.9995,6.9995,6.9995,6.9995,6.9995,6.9995,6.9995,6.9995,6.9995,6.9995,6.9995,6.9995,6.9995,6.9995,6.9995,6.9995,6.9995,6.9995,6.9995,6.9995,6.9995,6.9995,6.9995,6.9995,6.9995,6.9995,6.9995,6.9995,6.9995,6.9995,6.9995,6.9995,6.9995,6.9995,6.9995,6.9995,6.9995,6.9995,6.9995,6.9995,6.9995,6.9995,6.9995,6.9995,6.9976,6.9805,6.9878,6.9826,6.9826,6.9461,6.8832,6.7996,6.7196,6.6399,6.5658,6.5156,6.4898,6.4898,6.4898,6.4898,6.4898,6.4898,6.9995,6.9995,6.9995,6.9995,6.9995,6.9995,6.9995,6.9995,6.9995,6.9995,6.9995,6.9995,6.9995,6.9995,6.9995,6.9995,6.9995,6.9995,6.9995,6.9959,6.9821,6.9783,6.9957,6.9995,6.9995,6.9995,6.9995,6.9995,6.9995,6.9995,6.9995,6.9995,6.9995,6.9995,6.9995,6.9995,6.9995,6.9995,6.9995,6.9995,6.9995,6.9995,6.9995,6.9995,6.9995,6.9995,6.9995,6.9995,6.9995,6.9995,6.9995,6.9995,6.9995,6.9995,6.9995,6.9995,6.9995,6.9995,6.9995,6.9995,6.9995,6.9995,6.9995,6.9995,6.9995,6.9995,6.9995,6.9995,6.9995,6.9995,6.9995,6.9995,6.9995,6.9995,6.9995,6.9995,6.9995,6.9995,6.9995,6.9995,6.9995,6.9995,6.9995,6.9995,6.9995,6.9995,6.9995,6.9995,6.9995,6.9995,6.9995,6.9995,6.9954,6.9976,6.9957,6.9957,6.9881,6.9769,6.9634,6.952,6.9347,6.9309,6.8967,6.8604,6.7576,6.6965,6.6243,6.5548,6.527,6.4898,6.4898,6.4898,6.4898,6.4898,6.4898,6.9995,6.9995,6.9995,6.9995,6.9995,6.9995,6.9957,6.9957,6.9938,6.9862,6.9843,6.9764,6.9824,6.9919,6.971,6.971,6.9938,6.9767,6.971,6.9577,6.9214,6.9138,6.9615,6.9688,6.9653,6.9748,6.975,6.9843,6.9691,6.9805,6.9995,6.9919,6.9938,6.9995,6.9995,6.9995,6.9995,6.9995,6.9995,6.9995,6.9995,6.9995,6.9995,6.9995,6.9995,6.9995,6.9995,6.9995,6.9995,6.9995,6.9995,6.9995,6.9995,6.9995,6.9995,6.9995,6.9995,6.9995,6.9995,6.9995,6.9995,6.9995,6.9995,6.9995,6.9995,6.9995,6.9995,6.9995,6.9995,6.9995,6.9995,6.9995,6.9995,6.9995,6.9995,6.9995,6.9995,6.9995,6.9995,6.9995,6.9995,6.9995,6.9995,6.9995,6.9995,6.9995,6.9995,6.9995,6.9995,6.9995,6.9995,6.9935,6.9821,6.9783,6.9613,6.9537,6.9195,6.9008,6.8721,6.8398,6.8072,6.8034,6.7845,6.7576,6.7041,6.6582,6.6031,6.5418,6.4989,6.4898,6.4898,6.4898,6.4898,6.4898,6.4898,6.9995,6.9995,6.9995,6.9995,6.9995,6.9995,6.9693,6.9271,6.9217,6.8927,6.8455,6.8414,6.8379,6.8379,6.8379,6.8379,6.8379,6.8379,6.8395,6.8319,6.805,6.8091,6.8322,6.8414,6.8398,6.8382,6.8398,6.8414,6.8417,6.8962,6.9214,6.9382,6.9764,6.9976,6.9995,6.9995,6.9995,6.9995,6.9995,6.9995,6.9995,6.9995,6.9995,6.9995,6.9995,6.9995,6.9995,6.9995,6.9995,6.9995,6.9995,6.9995,6.9995,6.9995,6.9995,6.9995,6.9995,6.9995,6.9995,6.9995,6.9995,6.9995,6.9995,6.9995,6.9995,6.9995,6.9995,6.9995,6.9995,6.9995,6.9995,6.9995,6.9995,6.9995,6.9919,6.9995,6.9995,6.9995,6.9957,6.99,6.9919,6.9995,6.9995,6.9995,6.9995,6.9995,6.9995,6.9995,6.9995,6.9938,6.9976,6.9919,6.9556,6.9268,6.9211,6.8927,6.8531,6.8075,6.7696,6.7275,6.7047,6.7028,6.7066,6.6835,6.6569,6.611,6.5677,6.5118,6.4898,6.4898,6.4898,6.4898,6.4898,6.4898,6.4898,6.9631,6.9594,6.9295,6.9214,6.9179,6.9179,6.8927,6.8379,6.8376,6.8034,6.7522,6.7462,6.7462,6.7462,6.7462,6.7465,6.7389,6.6895,6.6823,6.7063,6.7082,6.7218,6.7446,6.7481,6.7462,6.7462,6.7462,6.7481,6.7598,6.8088,6.8392,6.8547,6.9195,6.9577,6.961,6.9881,6.9995,6.9995,6.9995,6.9995,6.9995,6.9995,6.9995,6.9995,6.9995,6.9995,6.9995,6.9995,6.9995,6.9995,6.9995,6.9995,6.9995,6.9995,6.9995,6.9995,6.9995,6.9995,6.9995,6.9995,6.9995,6.9995,6.9995,6.9995,6.9995,6.9995,6.9995,6.9995,6.9995,6.9995,6.9995,6.9995,6.9726,6.9252,6.9195,6.9084,6.9043,6.9119,6.9214,6.9198,6.9179,6.9179,6.916,6.9138,6.9043,6.9078,6.9081,6.9084,6.9122,6.9005,6.9195,6.9179,6.887,6.8392,6.8338,6.8151,6.7468,6.675,6.65,6.6158,6.6234,6.6291,6.6348,6.6253,6.5984,6.5624,6.5175,6.4898,6.4898,6.4898,6.4898,6.4898,6.4898,6.4898,6.4898,6.8829,6.8696,6.7864,6.7636,6.7693,6.7696,6.7557,6.75,6.7484,6.7386,6.7142,6.731,6.7177,6.7294,6.7142,6.7265,6.68,6.5583,6.5403,6.6037,6.6168,6.6579,6.712,6.7133,6.7161,6.7215,6.7351,6.7332,6.7237,6.7389,6.7465,6.7636,6.8341,6.8832,6.8851,6.952,6.9935,6.9995,6.9995,6.9995,6.9995,6.9995,6.9995,6.9995,6.9995,6.9995,6.9995,6.9995,6.9995,6.9995,6.9957,6.9976,6.9883,6.9786,6.99,6.9767,6.9881,6.99,6.9881,6.9786,6.9726,6.971,6.9843,6.971,6.9653,6.9726,6.9745,6.9688,6.9729,6.9824,6.9786,6.9748,6.9198,6.788,6.7769,6.7769,6.7655,6.7541,6.7503,6.762,6.7731,6.7522,6.7506,6.7734,6.7845,6.7823,6.7788,6.7807,6.7883,6.7902,6.7633,6.7633,6.763,6.7554,6.7465,6.7316,6.6333,6.5574,6.5498,6.5441,6.5593,6.5631,6.5706,6.565,6.5399,6.5327,6.4898,6.4898,6.4898,6.4898,6.4898,6.4898,6.4898,6.4898,6.4898,6.7883,6.7842,6.7579,6.7462,6.7462,6.7462,6.7142,6.6677,6.6661,6.6304,6.5801,6.5725,6.576,6.5744,6.571,6.5293,6.4407,6.3905,6.3722,6.406,6.4479,6.4843,6.5115,6.5527,6.5744,6.5763,6.576,6.5744,6.5798,6.6361,6.6642,6.6683,6.7481,6.8183,6.8737,6.904,6.948,6.9919,6.9995,6.9995,6.9995,6.9995,6.9995,6.9995,6.9995,6.9995,6.9995,6.9995,6.9995,6.9935,6.9461,6.9176,6.91,6.8607,6.8249,6.8249,6.83,6.8262,6.8249,6.8249,6.83,6.8265,6.8265,6.8262,6.8249,6.8281,6.8281,6.8281,6.8281,6.8281,6.8265,6.8265,6.8056,6.7617,6.7462,6.7462,6.7462,6.7443,6.7389,6.7351,6.7332,6.7389,6.7446,6.7424,6.7389,6.7462,6.7462,6.7462,6.7462,6.7462,6.7462,6.7424,6.6984,6.6699,6.6645,6.6272,6.5399,6.5198,6.5141,6.5065,6.5103,6.5065,6.5046,6.4989,6.4932,6.4913,6.4898,6.4898,6.4898,6.4898,6.4898,6.4898,6.4898,6.4898,6.4898,6.7275,6.7006,6.6671,6.6522,6.6538,6.6538,6.6253,6.5791,6.5791,6.5329,6.4663,6.4545,6.4456,6.4225,6.3743,6.3063,6.2352,6.229,6.2259,6.2321,6.2725,6.3017,6.3264,6.3682,6.3956,6.4225,6.4486,6.4686,6.4974,6.5491,6.5791,6.5924,6.6607,6.7462,6.824,6.8642,6.9195,6.99,6.9995,6.9995,6.9995,6.9995,6.9995,6.9995,6.9995,6.9859,6.9575,6.9539,6.9371,6.9046,6.8588,6.83,6.8262,6.7769,6.7462,6.7462,6.7462,6.7462,6.7462,6.7462,6.7462,6.7462,6.7462,6.7503,6.7462,6.7462,6.7462,6.7481,6.7481,6.6924,6.6545,6.6428,6.6554,6.6538,6.6519,6.6478,6.6538,6.6538,6.6557,6.6538,6.6554,6.6538,6.644,6.6519,6.6538,6.6554,6.6519,6.6481,6.6519,6.6519,6.6443,6.6424,6.6117,6.5791,6.5775,6.5247,6.4944,6.4913,6.4898,6.4898,6.4898,6.4898,6.4898,6.4898,6.4898,6.4898,6.4898,6.4898,6.4898,6.4898,6.4898,6.4898,6.4898,6.4898,6.4898,6.6911,6.6148,6.5289,6.5008,6.4917,6.4962,6.4905,6.4931,6.4832,6.4459,6.3855,6.3839,6.3407,6.2492,6.1339,6.0837,6.0821,6.0725,6.0727,6.0725,6.0852,6.1225,6.1818,6.1927,6.2222,6.274,6.3422,6.4101,6.4621,6.4863,6.4882,6.4985,6.581,6.662,6.7389,6.8148,6.9059,6.9748,6.9826,6.9935,6.994,6.9862,6.9748,6.9745,6.984,6.9406,6.8851,6.8753,6.8392,6.7503,6.7446,6.7424,6.7424,6.7313,6.7218,6.7256,6.7275,6.7275,6.7174,6.7088,6.7072,6.7113,6.6888,6.7132,6.6819,6.6819,6.6819,6.7132,6.6806,6.6006,6.4374,6.4571,6.4894,6.4999,6.4919,6.4984,6.4977,6.5198,6.4936,6.5012,6.5141,6.5232,6.5046,6.4898,6.5099,6.5118,6.5008,6.5065,6.5194,6.5084,6.5103,6.5103,6.5065,6.4966,6.4932,6.4913,6.4913,6.4898,6.4898,6.4898,6.4898,6.4898,6.4898,6.4898,6.4898,6.4898,6.4898,6.4898,6.4898,6.4898,6.4898,6.4898,6.4898,6.4898,6.4898,6.5475,6.527,6.5012,6.4898,6.4867,6.4421,6.4225,6.4148,6.3685,6.3141,6.258,6.2533,6.1116,5.8825,5.8287,5.8064,5.808,5.8081,5.8049,5.8128,5.8571,5.887,5.9154,5.9972,6.0553,6.0899,6.1927,6.2626,6.2856,6.3731,6.4486,6.4886,6.5172,6.5737,6.6547,6.6813,6.7671,6.8984,6.9135,6.9406,6.9729,6.8777,6.8148,6.8132,6.8148,6.8053,6.7826,6.7826,6.7693,6.743,6.6892,6.662,6.6585,6.5969,6.5612,6.5612,6.5612,6.541,6.4947,6.49,6.4729,6.4295,6.4183,6.4217,6.4198,6.4198,6.4217,6.4108,6.3758,6.3369,6.2647,6.3144,6.3719,6.4179,6.424,6.4456,6.4836,6.4898,6.4898,6.4898,6.4898,6.4898,6.4898,6.4898,6.4898,6.4898,6.4898,6.4898,6.4898,6.4898,6.4898,6.4898,6.4898,6.4898,6.4898,6.4898,6.4898,6.4898,6.4898,6.4898,6.4898,6.4898,6.4898,6.4898,6.4898,6.4898,6.4898,6.4898,6.4898,6.4898,6.4898,6.4898,6.4898,6.4898,6.4898,6.4794,6.4514,6.4498,6.436,6.404,6.3435,6.3156,6.3063,6.2132,6.135,6.0605,5.8678,5.6783,5.4918,5.4871,5.5032,5.5275,5.5275,5.5275,5.5339,5.5659,5.6011,5.6298,5.7094,5.7745,5.8348,5.9387,6.0204,6.0879,6.2116,6.3236,6.404,6.441,6.4963,6.5861,6.6137,6.6943,6.8202,6.8243,6.8487,6.8777,6.7958,6.7462,6.7462,6.7462,6.7332,6.7041,6.6984,6.6816,6.644,6.6,6.5598,6.5256,6.475,6.4226,6.3632,6.3579,6.3185,6.2285,6.1931,6.1674,6.1371,6.1325,6.1459,6.1685,6.1709,6.1072,6.0108,6.0121,6.0468,6.0779,6.1898,6.274,6.3125,6.3669,6.4101,6.4483,6.4744,6.4898,6.4898,6.4898,6.4898,6.4898,6.4898,6.4898,6.4898,6.4898,6.4898,6.4898,6.4898,6.4898,6.4898,6.4898,6.4898,6.4898,6.4898,6.4898,6.4898,6.4898,6.4898,6.4898,6.4898,6.4898,6.4898,6.4898,6.4898,6.4898,6.4898,6.4898,6.4898,6.4898,6.4898,6.4898,6.4898,6.4898,6.4425,6.3824,6.3747,6.3345,6.2601,6.1896,6.1497,6.1189,6.0006,5.8952,5.7369,5.3411,5.1535,5.1446,5.1445,5.1767,5.2273,5.2317,5.2287,5.2288,5.2349,5.264,5.3079,5.3317,5.4088,5.5338,5.6232,5.722,5.8362,5.9878,6.1292,6.2461,6.3376,6.415,6.494,6.5598,6.6374,6.7234,6.7097,6.7078,6.7123,6.7139,6.7139,6.7221,6.7199,6.6892,6.6202,6.6148,6.5791,6.5008,6.4891,6.4507,6.3877,6.3612,6.2949,6.1675,6.1426,6.0823,5.964,5.8851,5.8516,5.8553,5.8473,5.8684,5.9194,5.8967,5.7577,5.5706,5.6315,5.7518,5.8369,5.9906,6.0963,6.1314,6.2474,6.3626,6.3833,6.4456,6.4836,6.4882,6.4898,6.4898,6.4898,6.4898,6.4898,6.4898,6.4898,6.4898,6.4898,6.4898,6.4898,6.4898,6.4898,6.4898,6.4898,6.4898,6.4898,6.4898,6.4898,6.4898,6.4898,6.4898,6.4898,6.4898,6.4898,6.4898,6.4898,6.4898,6.4898,6.4898,6.4898,6.4898,6.4898,6.4898,6.4898,6.3481,6.2455,6.2455,6.1727,6.0459,5.9343,5.824,5.7288,5.6462,5.4253,5.1221,4.9079,4.8138,4.814,4.8126,4.8229,4.8344,4.8359,4.8375,4.8344,4.8359,4.8424,4.8659,4.9515,5.0394,5.1383,5.3015,5.4199,5.513,5.695,5.83,5.9233,6.135,6.2547,6.2745,6.3405,6.442,6.5635,6.4622,6.4259,6.4741,6.4741,6.4952,6.5451,6.5517,6.5403,6.5266,6.5244,6.5149,6.4928,6.4371,6.3938,6.3729,6.2723,6.1705,6.0913,5.9933,5.9079,5.8322,5.725,5.6384,5.5931,5.5411,5.5187,5.5137,5.299,5.1282,5.1317,5.2406,5.3509,5.4293,5.5317,5.6662,5.8654,5.9575,6.0854,6.2829,6.3796,6.4329,6.4821,6.4898,6.4879,6.4898,6.4898,6.4898,6.4898,6.4898,6.4898,6.4898,6.4898,6.4898,6.4898,6.4898,6.4898,6.4898,6.4898,6.4898,6.4898,6.4898,6.4898,6.4898,6.4898,6.4898,6.4898,6.4898,6.4898,6.4898,6.4898,6.4898,6.4898,6.4898,6.4898,6.4898,6.4898,6.4898,6.1914,6.0179,5.9802,5.8721,5.7137,5.6107,5.511,5.3924,5.1473,4.8774,4.6231,4.5517,4.5328,4.5625,4.5625,4.5778,4.6058,4.6044,4.6058,4.6044,4.609,4.6042,4.6134,4.6701,4.7369,4.8143,4.9493,5.0579,5.1656,5.356,5.4922,5.5755,5.8046,5.9701,6.0595,6.1602,6.2646,6.3705,6.2053,6.16,6.2582,6.2893,6.3233,6.3589,6.4191,6.4452,6.4483,6.4434,6.4241,6.3952,6.3209,6.2486,6.1824,6.0787,5.9471,5.7875,5.6579,5.523,5.3862,5.2812,5.1955,5.1341,5.0952,5.0209,4.8756,4.6909,4.6186,4.6893,4.8335,4.9633,5.0572,5.184,5.3426,5.543,5.6817,5.8373,6.0266,6.1381,6.225,6.2891,6.3524,6.3921,6.3955,6.4502,6.4898,6.4898,6.4898,6.4898,6.4898,6.4898,6.4898,6.4898,6.4898,6.4898,6.4898,6.4898,6.4898,6.4898,6.4898,6.4898,6.4898,6.4898,6.4898,6.4898,6.4898,6.4898,6.4898,6.4898,6.4898,6.4898,6.4898,6.4898,6.4898,6.4898,6.4898,5.9502,5.7163,5.6418,5.5026,5.328,5.2632,5.1921,5.0882,4.6566,4.3981,4.2828,4.2736,4.3005,4.3507,4.3538,4.3852,4.4357,4.4371,4.4341,4.4355,4.4371,4.4357,4.4357,4.4468,4.486,4.5485,4.6101,4.7053,4.8304,5.0027,5.1323,5.2303,5.4056,5.5975,5.8012,5.9562,6.0506,6.0799,5.9292,5.9152,6.0427,6.1098,6.1488,6.1756,6.2859,6.3521,6.3517,6.338,6.3043,6.2369,6.1515,6.0432,5.9126,5.825,5.6625,5.4088,5.2609,5.0768,4.8488,4.7667,4.7017,4.6393,4.6234,4.4926,4.2005,4.1717,4.2097,4.2899,4.4464,4.5884,4.7093,4.87,5.0201,5.1752,5.3648,5.548,5.6932,5.8233,5.9337,6.0233,6.1475,6.2323,6.2409,6.3478,6.428,6.4433,6.4477,6.4779,6.4695,6.4634,6.4551,6.4741,6.4775,6.4821,6.4882,6.4898,6.4898,6.4898,6.4898,6.4898,6.4898,6.4898,6.4898,6.4898,6.4898,6.4898,6.4898,6.4898,6.4898,6.4898,6.4898,6.4898,6.4898,6.4625,6.4492,5.5255,5.3691,5.2468,5.1177,4.9823,4.9213,4.8538,4.7679,4.4625,0.0,0.0,4.1588,4.1423,4.1499,4.153,4.1582,4.1674,4.1687,4.1672,4.1703,4.1731,4.1703,4.1729,4.2263,4.2832,4.3473,4.4005,4.4748,4.5593,4.6489,4.7534,4.8701,4.9613,5.1344,5.3894,5.5883,5.6362,5.5371,5.609,5.6871,5.7649,5.8331,5.917,6.0223,6.1118,6.1482,6.1399,6.1391,6.1007,6.0266,5.8942,5.7835,5.6925,5.5304,5.3394,5.1351,4.9586,4.7769,4.5898,4.5149,4.4486,4.3862,4.3323,4.1891,3.9348,3.9656,4.0172,4.0749,4.1561,4.2378,4.3137,4.4031,4.5264,4.71,4.8537,5.0653,5.3489,5.5054,5.6375,5.8152,5.9307,6.0229,6.0211,6.1431,6.2369,6.2489,6.3268,6.4132,6.3962,6.3071,6.2665,6.3587,6.3766,6.4192,6.4691,6.4757,6.4898,6.4719,6.4788,6.4898,6.4898,6.4898,6.4898,6.4761,6.4879,6.4837,6.4875,6.4799,6.4898,6.4898,6.4898,6.4898,6.4799,6.393,6.3031,5.1932,5.0279,4.903,4.7661,0.0,4.573,4.4574,4.3016,4.1678,4.0914,4.0569,4.0266,4.013,4.013,4.013,4.0316,4.0604,4.0617,4.0773,4.0989,4.0989,4.0989,4.1015,4.1362,4.1663,4.2015,4.2567,4.3049,4.3471,4.4357,4.5136,4.5748,4.6815,4.7979,4.9371,5.1717,5.2068,5.0315,5.2052,5.3245,5.3899,5.4852,5.5834,5.6778,5.7581,0.0,0.0,0.0,0.0,0.0,0.0,0.0,0.0,0.0,0.0,4.7807,4.6044,4.426,4.2397,4.1409,4.0728,4.0422,4.0111,3.9022,3.6894,3.7311,3.7794,3.8028,3.8601,3.9227,3.9879,4.0739,4.1916,4.3501,4.4822,4.6565,4.907,5.034,5.1595,5.3459,5.5216,5.6469,5.7069,5.8684,5.9899,6.0337,6.1217,6.1869,6.2121,6.0946,6.0077,6.0764,6.136,6.2029,6.262,6.3017,6.3209,6.3292,6.3533,6.3729,6.3744,6.3759,6.3759,6.3725,6.3744,6.3755,6.374,6.3729,6.3725,6.3725,6.3725,6.359,6.2821,6.2165,6.1589,4.835,4.6791,4.5526,4.4327,4.3185,4.2549,4.1122,3.9273,3.9273,3.9273,3.9273,3.9273,3.9273,3.9273,3.9273,3.9562,4.0065,4.0035,4.031,4.0662,4.0693,4.0693,4.0693,4.0781,4.0861,4.0918,4.1479,4.1812,4.1825,4.2741,4.3287,4.3441,4.4565,4.5238,4.5582,0.0,0.0,0.0,4.8123,4.9463,4.9972,5.1148,5.2144,5.2916,5.365,0.0,5.4823,5.4621,5.3862,5.2446,5.164,0.0,0.0,0.0,0.0,0.0,0.0,0.0,0.0,0.0,0.0,0.0,3.6764,3.5967,3.4514,3.5033,3.558,3.5761,3.6149,3.6679,3.733,3.8331,3.9358,4.0431,4.1473,4.2811,4.4609,4.546,4.6516,4.8338,5.0414,5.2132,5.3224,5.5249,5.6778,5.7352,5.8285,5.8786,5.8676,5.7342,5.6754,5.7228,5.8131,5.9103,5.9974,6.0816,6.1329,6.1329,6.179,6.2212,6.2235,6.2246,6.2223,6.2246,6.2249,6.2223,6.2227,6.22,6.2254,6.22,6.2223,6.1751,6.0188,5.9818,5.9851,4.3154,4.2805,4.1523,4.0864,4.0664,4.0041,3.955,3.9273,3.9273,3.9273,3.9273,3.9273,3.9273,3.9273,3.9273,3.9312,3.9376,3.9406,3.9428,3.9508,3.9493,3.9508,3.9491,4.0072,4.0351,4.0379,4.0892,4.1121,4.1134,4.1263,4.164,4.2201,4.2384,4.2983,4.3974,4.3902,4.3724,4.3469,4.5392,4.6442,4.6523,4.7359,4.8387,4.9552,5.0243,5.0647,5.0738,5.0699,4.9761,4.7826,4.7061,4.6109,4.4748,4.4163,4.2761,0.0,3.9404,0.0,0.0,0.0,0.0,0.0,0.0,0.0,0.0,3.3134,3.4111,3.5033,3.5162,3.5501,3.6129,3.6732,3.7149,3.7352,3.7987,3.8952,4.0287,4.1439,4.281,4.4601,4.6477,4.7892,4.8673,5.0525,5.2039,5.2834,5.4177,5.4162,5.2063,5.1691,5.2449,5.4328,5.5153,5.589,5.751,5.8929,5.9683,5.9845,6.019,6.0887,6.0702,6.0739,6.0828,6.0809,6.0647,6.0721,6.0902,6.0813,6.0828,6.0717,6.0495,5.9602,5.749,5.6771,5.692,4.1082,4.1009,4.0084,3.8982,3.7841,3.7575,3.7407,3.7421,3.7449,3.7407,3.7449,3.7407,3.7435,3.7435,3.7407,3.7588,3.7875,3.7845,3.8224,3.8822,3.8835,3.8976,3.9258,3.9562,3.9691,3.9706,3.9923,4.004,4.0068,4.0025,4.0197,4.0489,4.086,4.11,4.1222,4.1047,4.1102,4.1432,4.2295,4.3217,4.4214,4.4962,4.5746,4.664,4.6366,4.6349,4.6685,4.6385,4.5446,4.3936,4.3538,4.2505,4.0589,4.024,3.9069,0.0,0.0,0.0,0.0,0.0,0.0,0.0,0.0,0.0,0.0,0.0,3.2255,3.3085,3.3399,3.3735,3.3982,3.4537,3.4901,3.4914,3.5437,3.6268,3.747,3.8084,3.9072,4.0912,4.2139,4.3356,4.4629,4.5924,4.7192,4.8481,4.7971,4.7137,4.6366,4.6717,4.7589,4.8871,4.9882,5.0942,5.2117,5.3587,5.4807,5.5459,5.6095,5.6641,5.6931,5.697,5.7006,5.7006,5.6959,5.7002,5.6974,5.6974,5.7137,5.7174,5.5976,5.4194,5.284,5.2358,5.226,3.9234,3.9136,3.8387,3.7083,3.5554,3.554,3.5567,3.5554,3.5541,3.5527,3.554,3.5554,3.5567,3.5541,3.554,3.5826,3.6317,3.6303,3.6861,3.7851,3.7891,3.8097,3.8485,3.8613,3.8678,3.8662,3.882,3.8914,3.8885,3.9015,3.908,3.9078,3.9307,3.9228,3.8898,3.9043,3.938,4.0011,3.9981,4.0747,4.2241,4.2792,4.3281,4.3761,4.2941,4.2616,4.2969,4.2533,4.1657,4.0376,4.0175,3.9126,3.6961,3.6731,0.0,0.0,0.0,0.0,0.0,0.0,0.0,0.0,0.0,2.8386,2.8529,0.0,3.0312,0.0,3.1463,3.1994,3.2242,3.2744,0.0,0.0,3.3539,3.4159,3.5028,3.5261,3.5968,3.7656,3.8392,3.9394,4.1058,4.1816,4.2644,4.3599,4.1799,4.0782,4.2065,4.271,4.3328,4.4355,4.5295,4.6009,4.6976,4.8248,4.9732,5.1003,5.1911,5.2522,5.2912,5.3079,5.319,5.3218,5.3235,5.3208,5.3264,5.319,5.3128,5.2233,5.0088,4.8068,4.8077,4.7943,4.7914,3.627,3.6192,3.5086,3.4501,3.4358,3.4345,3.4319,3.4345,3.4358,3.4332,3.4358,3.4332,3.4371,3.4345,3.4358,0.0,3.511,3.5149,3.546,3.6164,3.6177,3.619,3.6255,3.6733,3.6912,3.6952,3.7555,3.7829,3.7842,3.8293,3.8552,3.8512,3.7539,3.7293,3.7857,3.8307,3.8811,3.9325,3.9352,3.9695,4.0439,4.0515,4.0539,4.0617,4.0512,4.0299,3.9843,3.9776,3.8938,3.7219,3.6643,3.581,3.4567,0.0,0.0,0.0,0.0,0.0,0.0,0.0,0.0,0.0,0.0,0.0,0.0,0.0,0.0,2.8457,2.9467,0.0,3.1629,3.1796,0.0,0.0,0.0,3.2631,3.2719,3.3149,3.3955,3.5317,0.0,0.0,3.794,3.8653,3.8668,3.7622,3.7286,3.7742,3.9528,3.9804,4.0457,4.2073,4.2471,4.2993,4.4019,4.4939,4.6023,4.7583,4.9101,4.9631,4.9797,5.024,5.0719,5.063,5.0781,5.0731,5.0767,5.0515,4.9456,4.5129,4.3969,4.3714,4.3924,4.426,4.4693,3.4085,3.2737,3.2271,3.2113,3.2113,3.2113,3.2088,3.2088,3.2113,3.2076,3.2113,3.2089,3.2089,3.2101,3.2077,0.0,0.0,0.0,3.3526,3.4462,3.4735,3.5059,3.5396,3.5967,3.624,3.6294,3.6555,3.6645,3.6686,3.6879,3.645,3.5476,0.0,0.0,3.6057,3.6656,3.7438,3.8295,3.832,3.8775,3.9614,3.9669,3.9626,3.9642,3.9046,3.8626,3.8391,3.7357,3.631,3.5256,3.4317,3.3324,0.0,0.0,0.0,0.0,0.0,0.0,0.0,0.0,0.0,0.0,0.0,2.424,2.4425,0.0,0.0,0.0,2.736,2.828,2.9441,2.9925,0.0,0.0,0.0,0.0,0.0,0.0,0.0,3.2981,3.3523,3.427,3.5423,3.521,3.5001,3.5178,3.5217,3.5729,3.7131,0.0,3.771,3.8745,3.891,3.9229,4.0114,4.0775,4.1422,4.2188,4.3292,4.4232,4.485,4.5201,4.546,4.5745,4.5855,4.5842,4.5842,4.4717,4.3085,4.1349,4.0668,4.0488,4.0518,4.0383,4.0501,3.1504,0.0,0.0,0.0,0.0,2.9767,2.9767,2.9756,2.9745,2.9767,2.9767,2.9789,0.0,0.0,0.0,0.0,0.0,0.0,3.1562,3.2642,3.3227,3.3683,3.4048,3.467,3.4969,3.4969,3.4956,3.4956,3.4943,3.4618,3.3955,3.2965,0.0,0.0,0.0,0.0,3.6021,3.7141,3.7361,3.7878,3.8811,3.8822,3.8914,3.9056,3.7981,3.7205,3.6738,3.5462,3.4359,3.35,3.2383,0.0,0.0,0.0,0.0,0.0,0.0,0.0,0.0,0.0,0.0,0.0,0.0,0.0,0.0,0.0,0.0,0.0,0.0,0.0,2.7154,2.7926,2.8445,0.0,0.0,0.0,0.0,0.0,0.0,0.0,0.0,0.0,3.3085,3.2488,3.2398,0.0,0.0,3.4345,3.532,3.5605,3.5882,3.6428,3.6508,0.0,3.7138,3.774,3.8127,3.8127,3.8991,3.9973,4.0893,4.1155,4.1378,4.178,4.1802,4.1478,4.0522,3.9002,3.7984,3.7688,3.7403,3.7092,3.6937,3.6709,3.6755,0.0,0.0,0.0,0.0,0.0,0.0,0.0,0.0,2.75,2.7497,0.0,2.751,0.0,0.0,0.0,0.0,2.9191,2.9215,0.0,0.0,3.1472,3.1794,3.1823,3.2358,3.2592,3.2555,3.2593,3.2605,3.2501,3.1427,0.0,0.0,0.0,0.0,0.0,0.0,3.4839,3.6009,3.6473,3.7098,3.7712,3.7765,3.7971,3.8436,3.7369,3.6006,3.4436,3.4293,3.3474,3.1811,3.0642,0.0,0.0,0.0,0.0,0.0,0.0,0.0,0.0,0.0,0.0,0.0,0.0,0.0,0.0,0.0,0.0,0.0,0.0,0.0,0.0,2.5905,0.0,0.0,0.0,0.0,0.0,0.0,0.0,0.0,0.0,3.0803,3.0808,3.0805,3.1207,3.2347,0.0,0.0,0.0,0.0,3.5254,3.5839,3.5997,3.5957,3.5984,3.6468,3.6803,3.6777,0.0,0.0,3.8658,3.9148,3.9488,3.9532,3.9511,3.8476,3.5176,3.4536,3.4243,3.3658,3.3575,3.3265,3.2876,3.3372,3.4033,0.0,0.0,0.0,0.0,0.0,0.0,0.0,0.0,0.0,2.5126,2.5122,2.5141,0.0,0.0,0.0,0.0,0.0,0.0,0.0,0.0,2.9572,3.0026,3.0065,3.0894,3.1324,0.0,3.1324,3.0558,0.0,0.0,0.0,0.0,0.0,0.0,0.0,0.0,3.3631,3.4787,3.5331,3.5915,3.6528,3.6554,3.6644,3.684,3.645,3.5619,3.4241,3.3174,3.1952,0.0,0.0,0.0,0.0,0.0,0.0,0.0,0.0,0.0,0.0,0.0,0.0,0.0,0.0,0.0,0.0,0.0,0.0,0.0,0.0,0.0,0.0,0.0,2.4682,0.0,0.0,0.0,0.0,0.0,0.0,0.0,0.0,0.0,2.8595,2.8833,2.9626,3.1152,3.1516,3.1996,3.2942,0.0,0.0,0.0,0.0,0.0,0.0,0.0,3.4574,3.4574,3.4412,3.4362,3.4588,3.504,3.5543,3.5941,0.0,0.0,3.2427,3.1934,3.1875,3.1618,3.1595,3.1548,3.1335,3.1849,3.2402,0.0,0.0,0.0,0.0,0.0,0.0,0.0,0.0,0.0,2.2639,2.249,0.0,0.0,0.0,0.0,0.0,0.0,0.0,0.0,0.0,0.0,0.0,2.8027,2.9099,0.0,0.0,0.0,0.0,0.0,0.0,0.0,0.0,0.0,0.0,0.0,0.0,3.2798,3.3929,3.4618,3.5214,3.5644,3.5838,3.5955,3.5943,3.5734,3.5176,3.4215,0.0,0.0,0.0,0.0,0.0,0.0,0.0,0.0,0.0,0.0,0.0,0.0,0.0,0.0,0.0,0.0,0.0,0.0,0.0,0.0,0.0,0.0,0.0,0.0,0.0,2.3105,0.0,0.0,0.0,0.0,0.0,0.0,0.0,0.0,0.0,0.0,0.0,2.8416,2.9682,3.0354,3.0989,3.1776,3.2229,3.2451,0.0,0.0,0.0,0.0,0.0,0.0,0.0,0.0,0.0,0.0,0.0,0.0,0.0,0.0,3.1443,2.9897,2.9598,2.9587,2.9623,0.0,0.0,0.0,0.0,0.0,0.0,0.0,0.0,0.0,0.0,0.0,0.0,0.0,0.0,0.0,1.9588,0.0,0.0,1.965,0.0,0.0,0.0,0.0,0.0,0.0,0.0,0.0,0.0,0.0,0.0,0.0,0.0,0.0,0.0,0.0,0.0,0.0,0.0,0.0,0.0,0.0,3.221,3.3393,3.4384,3.4955,3.4981,3.5578,3.5878,3.5878,3.5279,3.4696,3.4176,0.0,0.0,0.0,0.0,0.0,0.0,0.0,0.0,0.0,0.0,0.0,0.0,0.0,0.0,0.0,0.0,0.0,0.0,0.0,0.0,0.0,0.0,0.0,0.0,0.0,0.0,2.2154,2.2706,2.3126,0.0,0.0,0.0,0.0,0.0,0.0,0.0,0.0,0.0,2.8101,2.9567,3.0651,3.0666,3.1649,3.2308,3.2359,3.2411,3.2463,3.2438,3.2424,3.2412,0.0,0.0,0.0,0.0,0.0,0.0,0.0,0.0,0.0,0.0,0.0,0.0,0.0,0.0,0.0,0.0,0.0,0.0,0.0,0.0,0.0,0.0,0.0,0.0,0.0,0.0,0.0,0.0,0.0,0.0,0.0,0.0,0.0,0.0,0.0,0.0,0.0,0.0,0.0,0.0,0.0,0.0,0.0,0.0,0.0,0.0,0.0,0.0,0.0,0.0,0.0,0.0,0.0,0.0,3.0686,3.2186,3.3343,3.4072,3.4449,3.4618,3.4735,3.4735,3.4202,3.3812,0.0,0.0,0.0,0.0,0.0,0.0,0.0,0.0,0.0,0.0,0.0,0.0,0.0,0.0,0.0,0.0,0.0,0.0,0.0,0.0,0.0,0.0,0.0,0.0,0.0,0.0,0.0,0.0,2.1599,2.2052,2.2408,0.0,0.0,0.0,0.0,0.0,0.0,0.0,0.0,0.0,0.0,2.8391,2.9476,3.0227,3.0672,3.0672,3.1382,3.1902,3.1903,3.1541,3.1222,3.1234,0.0,0.0,0.0,0.0,0.0,0.0,0.0,0.0,0.0,0.0,0.0,0.0,0.0,0.0,0.0,0.0,0.0,0.0,0.0,0.0,0.0,0.0,0.0,0.0,0.0,0.0,0.0,0.0,0.0,0.0,0.0,0.0,0.0,0.0,0.0,0.0,0.0,0.0,0.0,0.0,0.0,0.0,0.0,0.0,0.0,0.0,0.0,0.0,0.0,0.0,0.0,0.0,0.0,2.9985,3.1677,3.2822,3.3681,3.4189,3.4228,3.4228,3.4228,3.3682,3.3212,0.0,0.0,0.0,0.0,0.0,0.0,0.0,0.0,0.0,0.0,0.0,0.0,0.0,0.0,0.0,0.0,0.0,0.0,0.0,0.0,0.0,0.0,0.0,0.0,0.0,0.0,0.0,0.0,2.0119,2.053,2.0839,0.0,0.0,0.0,0.0,0.0,0.0,0.0,0.0,0.0,0.0,2.7166,2.8132,2.9047,0.0,0.0,3.0248,3.0702,3.0704,3.0382,3.0014,2.9771,2.9205,0.0,0.0,0.0,0.0,0.0,0.0,0.0,0.0,0.0,0.0,0.0,0.0,0.0,0.0,0.0,0.0,0.0,0.0,0.0,0.0,0.0,0.0,0.0,0.0,0.0,0.0,0.0,0.0,0.0,0.0,0.0,0.0,0.0,0.0,0.0,0.0,0.0,0.0,0.0,0.0,0.0,0.0,0.0,0.0,0.0,0.0,0.0,0.0,0.0,0.0,0.0,0.0,2.9905,3.1611,3.2782,3.3642,3.4215,3.4228,3.4228,3.4202,3.3643,3.2835,0.0,0.0,0.0,0.0,0.0,0.0,0.0,0.0,0.0,0.0,0.0,0.0,0.0,0.0,0.0,0.0,0.0,0.0,0.0,0.0,0.0,0.0,0.0,0.0,0.0,0.0,0.0,0.0,0.0,0.0,0.0,0.0,0.0,0.0,0.0,0.0,0.0,0.0,0.0,0.0,0.0,2.6556,2.6703,2.8031,2.9056,0.0,2.9085,2.9089,2.9111,2.9024,2.8747,2.8182,0.0,0.0,0.0,0.0,0.0,0.0,0.0,0.0,0.0,0.0,0.0,0.0,0.0,0.0,0.0,0.0,0.0,0.0,0.0,0.0,0.0,0.0,0.0,0.0,0.0,0.0,0.0,0.0,0.0,0.0,0.0,0.0,0.0,0.0,0.0,0.0,0.0,0.0,0.0,0.0,0.0,0.0,0.0,0.0,0.0,0.0,0.0,0.0,0.0,0.0,0.0,0.0,0.0,0.0,3.0933,3.2112,3.3176,3.4189,3.4228,3.4228,3.4202,3.3241,0.0,0.0,0.0,0.0,0.0,0.0,0.0,0.0,0.0,0.0,0.0,0.0,0.0,0.0,0.0,0.0,0.0,0.0,0.0,0.0,0.0,0.0,0.0,0.0,0.0,0.0,0.0,1.734,0.0,0.0,0.0,0.0,0.0,0.0,0.0,0.0,0.0,0.0,0.0,0.0,0.0,0.0,2.3971,2.533,2.683,2.7856,0.0,0.0,2.8437,2.845,2.7702,2.7082,0.0,0.0,0.0,0.0,0.0,0.0,0.0,0.0,0.0,0.0,0.0,0.0,0.0,0.0,0.0,0.0,0.0,0.0,0.0,0.0,0.0,0.0,0.0,0.0,0.0,0.0,0.0,0.0,0.0,0.0,0.0,0.0,0.0,0.0,0.0,0.0,0.0,0.0,0.0,0.0,0.0,0.0,0.0,0.0,0.0,0.0,0.0,0.0,0.0,0.0,0.0,0.0,0.0,0.0,2.8513,3.0676,3.1879,3.3059,3.4163,3.4228,3.4098,3.3851,3.2955,3.1865,0.0,0.0,0.0,0.0,0.0,0.0,0.0,0.0,0.0,0.0,0.0,0.0,0.0,0.0,0.0,0.0,0.0,0.0,0.0,0.0,0.0,0.0,0.0,0.0,0.0,0.0,0.0,0.0,0.0,0.0,0.0,0.0,0.0,0.0,0.0,0.0,0.0,0.0,0.0,0.0,0.0,0.0,2.3705,2.5176,0.0,0.0,0.0,2.6871,2.7095,0.0,0.0,0.0,0.0,0.0,0.0,0.0,0.0,0.0,0.0,0.0,0.0,0.0,0.0,0.0,0.0,0.0,0.0,0.0,0.0,0.0,0.0,0.0,0.0,0.0,0.0,0.0,0.0,0.0,0.0,0.0,0.0,0.0,0.0,0.0,0.0,0.0,0.0,0.0,0.0,0.0,0.0,0.0,0.0,0.0,0.0,0.0,0.0,0.0,0.0,0.0,0.0,0.0,0.0,0.0,0.0,0.0,3.0561,3.1852,3.3033,3.415,3.4228,3.398,3.3446,3.2759,3.1356,0.0,0.0,0.0,0.0,0.0,0.0,0.0,0.0,0.0,0.0,0.0,0.0,0.0,0.0,0.0,0.0,0.0,0.0,0.0,0.0,0.0,0.0,0.0,0.0,0.0,0.0,0.0,0.0,0.0,0.0,0.0,0.0,0.0,0.0,0.0,0.0,0.0,0.0,0.0,0.0,0.0,2.1097,2.192,2.3274,2.427,0.0,0.0,2.484,2.524,2.4851,0.0,0.0,0.0,0.0,0.0,0.0,0.0,0.0,0.0,0.0,0.0,0.0,0.0,0.0,0.0,0.0,0.0,0.0,0.0,0.0,0.0,0.0,0.0,0.0,0.0,0.0,0.0,0.0,0.0,0.0,0.0,0.0,0.0,0.0,0.0,0.0,0.0,0.0,0.0,0.0,0.0,0.0,0.0,0.0,0.0,0.0,0.0,0.0,0.0,0.0,0.0,0.0,0.0,0.0,0.0,0.0,3.0038,3.167,3.3021,3.4163,3.4228,3.398,3.3458,3.2418,3.1014,0.0,0.0,0.0,0.0,0.0,0.0,0.0,0.0,0.0,0.0,0.0,0.0,0.0,0.0,0.0,0.0,0.0,0.0,0.0,0.0,0.0,0.0,0.0,0.0,0.0,0.0,0.0,0.0,0.0,0.0,0.0,0.0,0.0,0.0,0.0,0.0,0.0,0.0,0.0,0.0,0.0,1.894,2.003,2.1328,0.0,0.0,0.0,0.0,2.3116,2.2741,0.0,0.0,0.0,0.0,0.0,0.0,0.0,0.0,0.0,0.0,0.0,0.0,0.0,0.0,0.0,0.0,0.0,0.0,0.0,0.0,0.0,0.0,0.0,0.0,0.0,0.0,0.0,0.0,0.0,0.0,0.0,0.0,0.0,0.0,0.0,0.0,0.0,0.0,0.0,0.0,0.0,0.0,0.0,0.0,0.0,0.0,0.0,0.0,0.0,0.0,0.0,0.0,0.0,0.0,0.0,0.0,2.9509,3.1251,3.2668,3.3786,3.4085,3.3787,3.2992,3.2158,3.0626,0.0,0.0,0.0,0.0,0.0,0.0,0.0,0.0,0.0,0.0,0.0,0.0,0.0,0.0,0.0,0.0,0.0,0.0,0.0,0.0,0.0,0.0,0.0,0.0,0.0,0.0,0.0,0.0,0.0,0.0,0.0,0.0,0.0,0.0,0.0,0.0,0.0,0.0,0.0,0.0,1.6151,1.7342,1.8618,0.0,0.0,0.0,0.0,0.0,0.0,2.1199,2.0996,0.0,0.0,0.0,0.0,0.0,0.0,0.0,0.0,0.0,0.0,0.0,0.0,0.0,0.0,0.0,0.0,0.0,0.0,0.0,0.0,0.0,0.0,0.0,0.0,0.0,0.0,0.0,0.0,0.0,0.0,0.0,0.0,0.0,0.0,0.0,0.0,0.0,0.0,0.0,0.0,0.0,0.0,0.0,0.0,0.0,0.0,0.0,0.0,0.0,0.0,0.0,0.0,0.0,0.0,0.0,2.8996,3.078,3.2225,3.3394,3.3954,3.3669,3.2514,3.1851,3.0162,2.7349,0.0,0.0,0.0,0.0,0.0,0.0,0.0,0.0,0.0,0.0,0.0,0.0,0.0,0.0,0.0,0.0,0.0,0.0,0.0,0.0,0.0,0.0,0.0,0.0,0.0,0.0,0.0,0.0,0.0,0.0,0.0,0.0,0.0,0.0,0.0,0.0,0.0,0.0,0.0,1.4485,1.5789,0.0,0.0,0.0,0.0,0.0,0.0,0.0,0.0,1.958,0.0,0.0,0.0,0.0,0.0,0.0,0.0,0.0,0.0,0.0,0.0,0.0,0.0,0.0,0.0,0.0,0.0,0.0,0.0,0.0,0.0,0.0,0.0,0.0,0.0,0.0,0.0,0.0,0.0,0.0,0.0,0.0,0.0,0.0,0.0,0.0,0.0,0.0,0.0,0.0,0.0,0.0,0.0,0.0,0.0,0.0,0.0,0.0,0.0,0.0,0.0,0.0,0.0,0.0,0.0,0.0,3.0549,3.2274,3.3419,3.3942,3.3631,3.2476,3.1439,2.9511,2.6682,0.0,0.0,0.0,0.0,0.0,0.0,0.0,0.0,0.0,0.0,0.0,0.0,0.0,0.0,0.0,0.0,0.0,0.0,0.0,0.0,0.0,0.0,0.0,0.0,0.0,0.0,0.0,0.0,0.0,0.0,0.0,0.0,0.0,0.0,0.0,0.0,0.0,0.0,1.0652,1.2284,0.0,0.0,0.0,0.0,0.0,0.0,0.0,0.0,1.7906,0.0,0.0,0.0,0.0,0.0,0.0,0.0,0.0,0.0,0.0,0.0,0.0,0.0,0.0,0.0,0.0,0.0,0.0,0.0,0.0,0.0,0.0,0.0,0.0,0.0,0.0,0.0,0.0,0.0,0.0,0.0,0.0,0.0,0.0,0.0,0.0,0.0,0.0,0.0,0.0,0.0,0.0,0.0,0.0,0.0,0.0,0.0,0.0,0.0,0.0,0.0,0.0,0.0,0.0,0.0,0.0,0.0,0.0,3.1459,3.2876,3.3773,3.3669,3.2477,3.1124,2.9084,0.0,0.0,0.0,0.0,0.0,0.0,0.0,0.0,0.0,0.0,0.0,0.0,0.0,0.0,0.0,0.0,0.0,0.0,0.0,0.0,0.0,0.0,0.0,0.0,0.0,0.0,0.0,0.0,0.0,0.0,0.0,0.0,0.0,0.0,0.0,0.0,0.0,0.0,0.0,0.0,0.0,0.0,0.0,0.0,0.0,0.0,0.0,0.0,0.0,0.0,0.0,0.0,0.0,0.0,0.0,0.0,0.0,0.0,0.0,0.0,0.0,0.0,0.0,0.0,0.0,0.0,0.0,0.0,0.0,0.0,0.0,0.0,0.0,0.0,0.0,0.0,0.0,0.0,0.0,0.0,0.0,0.0,0.0,0.0,0.0,0.0,0.0,0.0,0.0,0.0,0.0,0.0,0.0,0.0,0.0,0.0,0.0,0.0,0.0,0.0,0.0,0.0,0.0,0.0,0.0,0.0,0.0,0.0,3.0338,3.2098,3.326,3.3426,3.2477,3.0727,2.852,0.0,0.0,0.0,0.0,0.0,0.0,0.0,0.0,0.0,0.0,0.0,0.0,0.0,0.0,0.0,0.0,0.0,0.0,0.0,0.0,0.0,0.0,0.0,0.0,0.0,0.0,0.0,0.0,0.0,0.0,0.0,0.0,0.0,0.0,0.0,0.0,0.0,0.0,0.0,0.0,0.0,0.0,0.0,0.0,0.0,0.0,0.0,0.0,1.4385,0.0,0.0,0.0,0.0,0.0,0.0,0.0,0.0,0.0,0.0,0.0,0.0,0.0,0.0,0.0,0.0,0.0,0.0,0.0,0.0,0.0,0.0,0.0,0.0,0.0,0.0,0.0,0.0,0.0,0.0,0.0,0.0,0.0,0.0,0.0,0.0,0.0,0.0,0.0,0.0,0.0,0.0,0.0,0.0,0.0,0.0,0.0,0.0,0.0,0.0,0.0,0.0,0.0,0.0,0.0,0.0,0.0,0.0,0.0,2.9014,3.1016,3.2223,3.2678,3.2377,3.0057,2.7446,0.0,0.0,0.0,0.0,0.0,0.0,0.0,0.0,0.0,0.0,0.0,0.0,0.0,0.0,0.0,0.0,0.0,0.0,0.0,0.0,0.0,0.0,0.0,0.0,0.0,0.0,0.0,0.0,0.0,0.0,0.0,0.0,0.0,0.0,0.0,0.0,0.0,0.0,0.0,0.0,0.0,0.0,0.0,0.0,0.0,0.0,0.0,0.0,0.0,0.0,0.0,0.0,0.0,0.0,0.0,0.0,0.0,0.0,0.0,0.0,0.0,0.0,0.0,0.0,0.0,0.0,0.0,0.0,0.0,0.0,0.0,0.0,0.0,0.0,0.0,0.0,0.0,0.0,0.0,0.0,0.0,0.0,0.0,0.0,0.0,0.0,0.0,0.0,0.0,0.0,0.0,0.0,0.0,0.0,0.0,0.0,0.0,0.0,0.0,0.0,0.0,0.0,0.0,0.0,0.0,0.0,0.0,0.0,2.7015,2.9625,3.1056,3.1157,2.9879,2.8008,2.5758,0.0,0.0,0.0,0.0,0.0,0.0,0.0,0.0,0.0,0.0,0.0,0.0,0.0,0.0,0.0,0.0,0.0,0.0,0.0,0.0,0.0,0.0,0.0,0.0,0.0,0.0,0.0,0.0,0.0,0.0,0.0,0.0,0.0,0.0,0.0,0.0,0.0,0.0,0.0,0.0,0.0,0.0,0.0,0.0,0.0,0.0,0.0,0.0,0.0,0.0,0.0,0.0,0.0,0.0,0.0,0.0,0.0,0.0,0.0,0.0,0.0,0.0,0.0,0.0,0.0,0.0,0.0,0.0,0.0,0.0,0.0,0.0,0.0,0.0,0.0,0.0,0.0,0.0,0.0,0.0,0.0,0.0,0.0,0.0,0.0,0.0,0.0,0.0,0.0,0.0,0.0,0.0,0.0,0.0,0.0,0.0,0.0,0.0,0.0,0.0,0.0,0.0,0.0,0.0,0.0,0.0,0.0,0.0,0.0,2.7677,2.8544,2.831,2.6934,2.5411,2.3557,0.0,0.0,0.0,0.0,0.0,0.0,0.0,0.0,0.0,0.0,0.0,0.0,0.0,0.0,0.0,0.0,0.0,0.0,0.0,0.0,0.0,0.0,0.0,0.0,0.0,0.0,0.0,0.0,0.0,0.0,0.0,0.0,0.0,0.0,0.0,0.0,0.0,0.0,0.0,0.0,0.0,0.0,0.0,0.0,0.0,0.0,0.0,0.0,0.0,0.0,0.0,0.0,0.0,0.0,0.0,0.0,0.0,0.0,0.0,0.0,0.0,0.0,0.0,0.0,0.0,0.0,0.0,0.0,0.0,0.0,0.0,0.0,0.0,0.0,0.0,0.0,0.0,0.0,0.0,0.0,0.0,0.0,0.0,0.0,0.0,0.0,0.0,0.0,0.0,0.0,0.0,0.0,0.0,0.0,0.0,0.0,0.0,0.0,0.0,0.0,0.0,0.0,0.0,0.0,0.0,0.0,0.0,0.0,0.0,2.523,2.4039,2.3611,2.3897,2.2227,2.0754,0.0,0.0,0.0,0.0,0.0,0.0,0.0,0.0,0.0,0.0,0.0,0.0,0.0,0.0,0.0,0.0,0.0,0.0,0.0,0.0,0.0,0.0,0.0,0.0,0.0,0.0,0.0,0.0,0.0,0.0,0.0,0.0,0.0,0.0,0.0,0.0,0.0,0.0,0.0,0.0,0.0,0.0,0.0,0.0,0.0,0.0,0.0,0.0,0.0,0.0,0.0,0.0,0.0,0.0,0.0,0.0,0.0,0.0,0.0,0.0,0.0,0.0,0.0,0.0,0.0,0.0,0.0,0.0,0.0,0.0,0.0,0.0,0.0,0.0,0.0,0.0,0.0,0.0,0.0,0.0,0.0,0.0,0.0,0.0,0.0,0.0,0.0,0.0,0.0,0.0,0.0,0.0,0.0,0.0,0.0,0.0,0.0,0.0,0.0,0.0,0.0,0.0,0.0,0.0,0.0,0.0,0.0,0.0,0.0,1.9807,2.0341,2.0551,2.0452,1.9513,1.8386,1.6906,0.0,0.0,0.0,0.0,0.0,0.0,0.0,0.0,0.0,0.0,0.0,0.0,0.0,0.0,0.0,0.0,0.0,0.0,0.0,0.0,0.0,0.0,0.0,0.0,0.0,0.0,0.0,0.0,0.0,0.0,0.0,0.0,0.0,0.0,0.0,0.0,0.0,0.0,0.0,0.0,0.0,0.0,0.0,0.0,0.0,0.0,0.0,0.0,0.0,0.0,0.0,0.0,0.0,0.0,0.0,0.0,0.0,0.0,0.0,0.0,0.0,0.0,0.0,0.0,0.0,0.0,0.0,0.0,0.0,0.0,0.0,0.0,0.0,0.0,0.0,0.0,0.0,0.0,0.0,0.0,0.0,0.0,0.0,0.0,0.0,0.0,0.0,0.0,0.0,0.0,0.0,0.0,0.0,0.0,0.0,0.0,0.0,0.0,0.0,0.0,0.0,0.0,0.0,0.0,0.0,0.0,0.0,0.0,1.5635,1.6949,1.7523,1.7156,1.6686,1.5896,0.0,0.0,0.0,0.0,0.0,0.0,0.0,0.0,0.0,0.0,0.0,0.0,0.0,0.0,0.0,0.0,0.0,0.0,0.0,0.0,0.0,0.0,0.0,0.0,0.0,0.0,0.0,0.0,0.0,0.0,0.0,0.0,0.0,0.0,0.0,0.0,0.0,0.0,0.0,0.0,0.0,0.0,0.0,0.0,0.0,0.0,0.0,0.0,0.0,0.0,0.0,0.0,0.0,0.0,0.0,0.0,0.0,0.0,0.0,0.0,0.0,0.0,0.0,0.0,0.0,0.0,0.0,0.0,0.0,0.0,0.0,0.0,0.0,0.0,0.0,0.0,0.0,0.0,0.0,0.0,0.0,0.0,0.0,0.0,0.0,0.0,0.0,0.0,0.0,0.0,0.0,0.0,0.0,0.0,0.0,0.0,0.0,0.0,0.0,0.0,0.0,0.0,0.0,0.0,0.0,0.0,0.0,0.0,1.1476,1.3197,1.394,1.4336,1.4199,1.3666,1.3215,0.0,0.0,0.0,0.0,0.0,0.0,0.0,0.0,0.0,0.0,0.0,0.0,0.0,0.0,0.0,0.0,0.0,0.0,0.0,0.0,0.0,0.0,0.0,0.0,0.0,0.0,0.0,0.0,0.0,0.0,0.0,0.0,0.0,0.0,0.0,0.0,0.0,0.0,0.0,0.0,0.0,0.0,0.0,0.0,0.0,0.0,0.0,0.0,0.0,0.0,0.0,0.0,0.0,0.0,0.0,0.0,0.0,0.0,0.0,0.0,0.0,0.0,0.0,0.0,0.0,0.0,0.0,0.0,0.0,0.0,0.0,0.0,0.0,0.0,0.0,0.0,0.0,0.0,0.0,0.0,0.0,0.0,0.0,0.0,0.0,0.0,0.0,0.0,0.0,0.0,0.0,0.0,0.0,0.0,0.0,0.0,0.0,0.0,0.0,0.0,0.0,0.0,0.0,0.0,0.0,0.0,0.0,0.0,0.0,1.136,0.0,1.2758,0.0,1.2292,1.1806,0.0,0.0,0.0,0.0,0.0,0.0,0.0,0.0,0.0,0.0,0.0,0.0,0.0,0.0,0.0,0.0,0.0,0.0,0.0,0.0,0.0,0.0,0.0,0.0,0.0,0.0,0.0,0.0,0.0,0.0,0.0,0.0,0.0,0.0,0.0,0.0,0.0,0.0,0.0,0.0,0.0,0.0,0.0,0.0,0.0,0.0,0.0,0.0,0.0,0.0,0.0,0.0,0.0,0.0,0.0,0.0,0.0,0.0,0.0,0.0,0.0,0.0,0.0,0.0,0.0,0.0,0.0,0.0,0.0,0.0,0.0,0.0,0.0,0.0,0.0,0.0,0.0,0.0,0.0,0.0,0.0,0.0,0.0,0.0,0.0,0.0,0.0,0.0,0.0,0.0,0.0,0.0,0.0,0.0,0.0,0.0,0.0,0.0,0.0,0.0,0.0,0.0,0.0,0.0,0.0,0.0,0.0,0.0,0.0,1.0147,1.091,1.1346,1.147,1.1124,1.0739,0.0,0.0,0.0,0.0,0.0,0.0,0.0,0.0,0.0,0.0,0.0,0.0,0.0,0.0,0.0,0.0,0.0,0.0,0.0,0.0,0.0,0.0,0.0,0.0,0.0,0.0,0.0,0.0,0.0,0.0,0.0,0.0,0.0,0.0,0.0,0.0,0.0,0.0,0.0,0.0,0.0,0.0,0.0,0.0,0.0,0.0,0.0,0.0,0.0,0.0,0.0,0.0,0.0,0.0,0.0,0.0,0.0,0.0,0.0,0.0,0.0,0.0,0.0,0.0,0.0,0.0,0.0,0.0,0.0,0.0,0.0,0.0,0.0,0.0,0.0,0.0,0.0,0.0,0.0,0.0,0.0,0.0,0.0,0.0,0.0,0.0,0.0,0.0,0.0,0.0,0.0,0.0,0.0,0.0,0.0,0.0,0.0,0.0,0.0,0.0,0.0,0.0,0.0,0.0,0.0,0.0,0.0,0.0,0.0,0.9517,0.9792,1.0121,1.0472,1.0098,0.99,0.0,0.0,0.0,0.0,0.0,0.0,0.0,0.0,0.0,0.0,0.0,0.0,0.0,0.0,0.0,0.0,0.0,0.0,0.0,0.0,0.0,0.0,0.0,0.0,0.0,0.0,0.0,0.0,0.0,0.0,0.0,0.0,0.0,0.0,0.0,0.0,0.0,0.0,0.0,0.0,0.0,0.0,0.0,0.0,0.0,0.0,0.0,0.0,0.0,0.0,0.0,0.0,0.0,0.0,0.0,0.0,0.0,0.0,0.0,0.0,0.0,0.0,0.0,0.0,0.0,0.0,0.0,0.0,0.0,0.0,0.0,0.0,0.0,0.0,0.0,0.0,0.0,0.0,0.0,0.0,0.0,0.0,0.0,0.0,0.0,0.0,0.0,0.0,0.0,0.0,0.0,0.0,0.0,0.0,0.0,0.0,0.0,0.0,0.0,0.0,0.0,0.0,0.0,0.0,0.0,0.0,0.0,0.0,0.0,0.0,0.9679,0.9968,1.0066,0.9777,0.9526,0.9336,0.0,0.0,0.0,0.0,0.0,0.0,0.0,0.0,0.0,0.0,0.0,0.0,0.0,0.0,0.0,0.0,0.0,0.0,0.0,0.0,0.0,0.0,0.0,0.0,0.0,0.0,0.0,0.0,0.0,0.0,0.0,0.0,0.0,0.0,0.0,0.0,0.0,0.0,0.0,0.0,0.0,0.0,0.0,0.0,0.0,0.0,0.0,0.0,0.0,0.0,0.0,0.0,0.0,0.0,0.0,0.0,0.0,0.0,0.0,0.0,0.0,0.0,0.0,0.0,0.0,0.0,0.0,0.0,0.0,0.0,0.0,0.0,0.0,0.0,0.0,0.0,0.0,0.0,0.0,0.0,0.0,0.0,0.0,0.0,0.0,0.0,0.0,0.0,0.0,0.0,0.0,0.0,0.0,0.0,0.0,0.0,0.0,0.0,0.0,0.0,0.0,0.0,0.0,0.0,0.0,0.0,0.0,0.0,0.0,0.0,0.9626,0.975,0.9608,0.9384,0.0,0.0,0.0,0.0,0.0,0.0,0.0,0.0,0.0,0.0,0.0,0.0,0.0,0.0,0.0,0.0,0.0,0.0,0.0,0.0,0.0,0.0,0.0,0.0,0.0,0.0,0.0,0.0,0.0,0.0,0.0,0.0,0.0,0.0,0.0,0.0,0.0,0.0,0.0,0.0,0.0,0.0,0.0,0.0,0.0,0.0,0.0,0.0,0.0,0.0,0.0,0.0,0.0,0.0,0.0,0.0,0.0,0.0,0.0,0.0,0.0,0.0,0.0,0.0,0.0,0.0,0.0,0.0,0.0,0.0,0.0,0.0,0.0,0.0,0.0,0.0,0.0,0.0,0.0,0.0,0.0,0.0,0.0,0.0,0.0,0.0,0.0,0.0,0.0,0.0,0.0,0.0,0.0,0.0,0.0,0.0,0.0,0.0,0.0,0.0,0.0,0.0,0.0,0.0,0.0,0.0,0.0,0.0,0.0,0.0,0.0,0.9235,0.9463,0.9505,0.0,0.9152,0.0,0.0,0.0,0.0,0.0,0.0,0.0,0.0,0.0,0.0,0.0,0.0,0.0,0.0,0.0,0.0,0.0,0.0,0.0,0.0,0.0,0.0,0.0,0.0,0.0,0.0,0.0,0.0,0.0,0.0,0.0,0.0,0.0,0.0,0.0,0.0,0.0,0.0,0.0,0.0,0.0,0.0,0.0,0.0,0.0,0.0,0.0,0.0,0.0,0.0,0.0,0.0,0.0,0.0,0.0,0.0,0.0,0.0,0.0,0.0,0.0,0.0,0.0,0.0,0.0,0.0,0.0,0.0,0.0,0.0,0.0,0.0,0.0,0.0,0.0,0.0,0.0,0.0,0.0,0.0,0.0,0.0,0.0,0.0,0.0,0.0,0.0,0.0,0.0,0.0,0.0,0.0,0.0,0.0,0.0,0.0,0.0,0.0,0.0,0.0,0.0,0.0,0.0,0.0,0.0,0.0,0.0,0.0,0.0,0.0,0.0,0.0,0.9217,0.9198,0.9139,0.0,0.0,0.0,0.0,0.0,0.0,0.0,0.0,0.0,0.0,0.0,0.0,0.0,0.0,0.0,0.0,0.0,0.0,0.0,0.0,0.0,0.0,0.0,0.0,0.0,0.0,0.0,0.0,0.0,0.0,0.0,0.0,0.0,0.0,0.0,0.0,0.0,0.0,0.0,0.0,0.0,0.0,0.0,0.0,0.0,0.0,0.0,0.0,0.0,0.0,0.0,0.0,0.0,0.0,0.0,0.0,0.0,0.0,0.0,0.0,0.0,0.0,0.0,0.0,0.0,0.0,0.0,0.0,0.0,0.0,0.0,0.0,0.0,0.0,0.0,0.0,0.0,0.0,0.0,0.0,0.0,0.0,0.0,0.0,0.0,0.0,0.0,0.0,0.0,0.0,0.0,0.0,0.0,0.0,0.0,0.0,0.0,0.0,0.0,0.0,0.0,0.0,0.0,0.0,0.0,0.0,0.0,0.0,0.0,0.0,0.8989,0.8968,0.8968,0.8962,0.8934,0.0,0.0,0.0,0.0,0.0,0.0,0.0,0.0,0.0,0.0,0.0,0.0,0.0,0.0,0.0,0.0,0.0,0.0,0.0,0.0,0.0,0.0,0.0,0.0,0.0,0.0,0.0,0.0,0.0,0.0,0.0,0.0,0.0,0.0,0.0,0.0,0.0,0.0,0.0,0.0,0.0,0.0,0.0,0.0,0.0,0.0,0.0,0.0,0.0,0.0,0.0,0.0,0.0,0.0,0.0,0.0,0.0,0.0,0.0,0.0,0.0,0.0,0.0,0.0,0.0,0.0,0.0,0.0,0.0,0.0,0.0,0.0,0.0,0.0,0.0,0.0,0.0,0.0,0.0,0.0,0.0,0.0,0.0,0.0,0.0,0.0,0.0,0.0,0.0,0.0,0.0,0.0,0.0,0.0,0.0,0.0,0.0,0.0,0.0,0.0,0.0,0.0,0.0,0.0,0.0,0.0,0.0,0.0,0.0,0.0,0.0,0.0,0.0,0.0,0.8723,0.0,0.0,0.0,0.0,0.0,0.0,0.0,0.0,0.0,0.0,0.0,0.0,0.0,0.0,0.0,0.0,0.0,0.0,0.0,0.0,0.0,0.0,0.0,0.0,0.0,0.0,0.0,0.0,0.0,0.0,0.0,0.0,0.0,0.0,0.0,0.0,0.0,0.0,0.0,0.0,0.0,0.0,0.0,0.0,0.0,0.0,0.0,0.0,0.0,0.0,0.0,0.0,0.0,0.0,0.0,0.0,0.0,0.0,0.0,0.0,0.0,0.0,0.0,0.0,0.0,0.0,0.0,0.0,0.0,0.0,0.0,0.0,0.0,0.0,0.0,0.0,0.0,0.0,0.0,0.0,0.0,0.0,0.0,0.0,0.0,0.0,0.0,0.0,0.0,0.0,0.0,0.0,0.0,0.0,0.0,0.0,0.0,0.0,0.0,0.0,0.0,0.0,0.0,0.0,0.0,0.0,0.0,0.0,0.0,0.0,0.0,0.0,0.0,0.0,0.0,0.0,0.0,0.0,0.0,0.0,0.0,0.0,0.0,0.0,0.0,0.0,0.0,0.0,0.0,0.0,0.0,0.0,0.0,0.0,0.0,0.0,0.0,0.0,0.0,0.0,0.0,0.0,0.0,0.0,0.0,0.0,0.0,0.0,0.0,0.0,0.0,0.0,0.0,0.0,0.0,0.0,0.0,0.0,0.0,0.0,0.0,0.0,0.0,0.0,0.0,0.0,0.0,0.0,0.0,0.0,0.0,0.0,0.0,0.0,0.0,0.0,0.0,0.0,0.0,0.0,0.0,0.0,0.0,0.0,0.0,0.0,0.0,0.0,0.0,0.0,0.0,0.0,0.0,0.0,0.0,0.0,0.0,0.0,0.0,0.0,0.0,0.0,0.0,0.0,0.0,0.0,0.0,0.0,0.0,0.0,0.0,0.0,0.0,0.0,0.0,0.0,0.0,0.0,0.0,0.0,0.0,0.0,0.0,0.0,0.0,0.0,0.0,0.0,0.0,0.0,0.0,0.0,0.0,0.0,0.0,0.0,0.0,0.0,0.0,0.0,0.0,0.0,0.0,0.0,0.0,0.0,0.0,0.0,0.0,0.0,0.0,0.0,0.0,0.0,0.0,0.0,0.0,0.0,0.0,0.0,0.0,0.0,0.0,0.0,0.0,0.0,0.0,0.0,0.0,0.0,0.0,0.0,0.0,0.0,0.0,0.0,0.0,0.0,0.0,0.0,0.0,0.0,0.0,0.0,0.0,0.0,0.0,0.0,0.0,0.0,0.0,0.0,0.0,0.0,0.0,0.0,0.0,0.0,0.0,0.0,0.0,0.0,0.0,0.0,0.0,0.0,0.0,0.0,0.0,0.0,0.0,0.0,0.0,0.0,0.0,0.0,0.0,0.0,0.0,0.0,0.0,0.0,0.0,0.0,0.0,0.0,0.0,0.0,0.0,0.0,0.0,0.0,0.0,0.0,0.0,0.0,0.0,0.0,0.0,0.0,0.0,0.0,0.0,0.0,0.0,0.0,0.0,0.0,0.0,0.0,0.0,0.0,0.0,0.0,0.0,0.0,0.0,0.0,0.0,0.0,0.0,0.0,0.0,0.0,0.0,0.0,0.0,0.0,0.0,0.0,0.0,0.0,0.0,0.0,0.0,0.0,0.0,0.0,0.0,0.0,0.0,0.0,0.0,0.0,0.0,0.0,0.0,0.0,0.0,0.0,0.0,0.0,0.0,0.0,0.0,0.0,0.0,0.0,0.0,0.0,0.0,0.0,0.0,0.0,0.0,0.0,0.0,0.0,0.0,0.0,0.0,0.0,0.0,0.0,0.0,0.0,0.0,0.0,0.0,0.0,0.0,0.0,0.0,0.0,0.0,0.0,0.0,0.0,0.0,0.0,0.0,0.0,0.0,0.0,0.0,0.0,0.0,0.0,0.0,0.0,0.0,0.0,0.0,0.0,0.0,0.0,0.0,0.0,0.0,0.0,0.0,0.0,0.0,0.0,0.0,0.0,0.0,0.0,0.0,0.0,0.0,0.0,0.0,0.0,0.0,0.0,0.0,0.0,0.0,0.0,0.0,0.0,0.0,0.0,0.0,0.0,0.0,0.0,0.0,0.0,0.0,0.0,0.0,0.0,0.0,0.0,0.0,0.0,0.0,0.0,0.0,0.0,0.0,0.0,0.0,0.0,0.0,0.0,0.0,0.0,0.0,0.0,0.0,0.0,0.0,0.0,0.0,0.0,0.0,0.0,0.0,0.0,0.0,0.0,0.0,0.0,0.0,0.0,0.0,0.0,0.0,0.0,0.0,0.0,0.0,0.0,0.0,0.0,0.0,0.0,0.0,0.0,0.0,0.0,0.0,0.0,0.0,0.0,0.0,0.0,0.0,0.0,0.0,0.0,0.0,0.0,0.0,0.0,0.0,0.0,0.0,0.0,0.0,0.0,0.0,0.0,0.0,0.0,0.0,0.0,0.0,0.0,0.0,0.0,0.0,0.0,0.0,0.0,0.0,0.0,0.0,0.0,0.0,0.0,0.0,0.0,0.0,0.0,0.0,0.0,0.0,0.0,0.0,0.0,0.0,0.0,0.0,0.0,0.0,0.0,0.0,0.0,0.0,0.0,0.0,0.0,0.0,0.0,0.0,0.0,0.0,0.0,0.0,0.0,0.0,0.0,0.0,0.0,0.0,0.0,0.0,0.0,0.0,0.0,0.0,0.0,0.0,0.0,0.0,0.0,0.0,0.0,0.0,0.0,0.0,0.0,0.0,0.0,0.0,0.0,0.0,0.0,0.0,0.0,0.0,0.0,0.0,0.0,0.0,0.0,0.0,0.0,0.0,0.0,0.0,0.0,0.0,0.0,0.0,0.0,0.0,0.0,0.0,0.0,0.0,0.0,0.0,0.0,0.0,0.0,0.0,0.0,0.0,0.0,0.0,0.0,0.0,0.0,0.0,0.0,0.0,0.0,0.0,0.0,0.0,0.0,0.0,0.0,0.0,0.0,0.0,0.0,0.0,0.0,0.0,0.0,0.0,0.0,0.0,0.0,0.0,0.0,0.0,0.0,0.0,0.0,0.0,0.0,0.0,0.0,0.0,0.0,0.0,0.0,0.0,0.0,0.0,0.0,0.0,0.0,0.0,0.0,0.0,0.0,0.0,0.0,0.0,0.0,0.0,0.0,0.0,0.0,0.0,0.0,0.0,0.0,0.0,0.0,0.0,0.0,0.0,0.0,0.0,0.0,0.0,0.0,0.0,0.0,0.0,0.0,0.0,0.0,0.0,0.0,0.0,0.0,0.0,0.0,0.0,0.0,0.0,0.0,0.0,0.0,0.0,0.0,0.0,0.0,0.0,0.0,0.0,0.0,0.0,0.0,0.0,0.0,0.0,0.0,0.0,0.0,0.0,0.0,0.0,0.0,0.0,0.0,0.0,0.0,0.0,0.0,0.0,0.0,0.0,0.0,0.0,0.0,0.0,0.0,0.0,0.0,0.0,0.0,0.0,0.0,0.0,0.0,0.0,0.0,0.0,0.0,0.0,0.0,0.0,0.0,0.0,0.0,0.0,0.0,0.0,0.0,0.0,0.0,0.0,0.0,0.0,0.0,0.0,0.0,0.0,0.0,0.0,0.0,0.0,0.0,0.0,0.0,0.0,0.0,0.0,0.0,0.0,0.0,0.0,0.0,0.0,0.0,0.0,0.0,0.0,0.0,0.0,0.0,0.0,0.0,0.0,0.0,0.0,0.0,0.0,0.0,0.0,0.0,0.0,0.0,0.0,0.0,0.0,0.0,0.0,0.0,0.0,0.0,0.0,0.0,0.0,0.0,0.0,0.0,0.0,0.0,0.0,0.0,0.0,0.0,0.0,0.0,0.0,0.0,0.0,0.0,0.0,0.0,0.0,0.0,0.0,0.0,0.0,0.0,0.0,0.0,0.0,0.0,0.0,0.0,0.0,0.0,0.0,0.0,0.0,0.0,0.0,0.0,0.0,0.0,0.0,0.0,0.0,0.0,0.0,0.0,0.0,0.0,0.0,0.0,0.0,0.0,0.0,0.0,0.0,0.0,0.0,0.0,0.0,0.0,0.0,0.0,0.0,0.0,0.0,0.0,0.0,0.0,0.0,0.0,0.0,0.0,0.0,0.0,0.0,0.0,0.0,0.0,0.0,0.0,0.0,0.0,0.0,0.0,0.0,0.0,0.0,0.0,0.0,0.0,0.0,0.0,0.0,0.0,0.0,0.0,0.0,0.0,0.0,0.0,0.0,0.0,0.0,0.0,0.0,0.0,0.0,0.0,0.0,0.0,0.0,0.0,0.0,0.0,0.0,0.0,0.0,0.0,0.0,0.0,0.0,0.0,0.0,0.0]}]]]